Bourbeuse River (Missouri), High Gate (07015720)

StateMissouriLatestGood (67 cfs)
RiverBourbeuse RiverRatingObservedEstimated
Updated2026-05-10 14:00 (50 minutes ago)Flood - The river is flooding. Obstacles can be treacherous or deadly. The river should be avoided at this stage for casual trips and definitely for the inexperienced. Trips should be attempted only with protective gear and equipment.Flood(none)533
Discharge67 cfs (median: 59 cfs)High - The river is high and potentially dangerous, especially for the young and / or inexperienced. Normal stream obstacles are sometimes difficult to navigate. Extended distances can be attempted, but canoe travel may not be advisable.High(none)131
Height4.54 feetGood - Conditions are ideal for a canoe or kayak. Boats typically will drag on fewer than one-quarter of riffles, if at all, and portages are unnecessary or rare. Normal float lengths can be attempted without a problem.Good(none)48
TrendFalling (falling over 24 hours)Low - River is low but can still be floated. Some riffles are okay but most come with significant dragging and might need a portage. Float lengths should be reduced to accommodate low flow, dragging, and portages.Low(none)17
USGSExternal icon USGS Site (External icon Duck Duck Go Maps)Poor - River is too low to float comfortably. Most or all riffles will drag or must be portaged and some obstacles (such as slick shelf rock) cause undue problems. Avoid the river at this stage for casual paddling trips.Poor(none)2

Trending Data

Plot Image

Trips for Bourbeuse River (Missouri), High Gate (07015720)

DateStartEndDistanceConditionDischargeHeightFishingDetails

A total of 0 rows are displayed.

Condition Descriptions

Fishing Conditions

Fish Species

Notes

Classic Trip List

The classic River Trips application is still available for use. It is updated with the new system using a data retrofit. It is no longer maintained. The original River Trips application is no longer updated (as of 1 Dec 2016) but can be checked for errors or for the condition of the data before it was converted to the new system.

Gauge Data Table

ObservationHeightDischargeMaximum
Discharge
Minimum
Discharge
Mean
Discharge
P05P10P20P25P50
(Median)
P75P80P90P95
2026-05-10 14:00 4.54 67 4520 (1981) 6 (1986) 202 8 9 19 27 59 110 163 272 963
2026-05-10 13:00 4.56 69 4520 (1981) 6 (1986) 202 8 9 19 27 59 110 163 272 963
2026-05-10 12:00 4.56 69 4520 (1981) 6 (1986) 202 8 9 19 27 59 110 163 272 963
2026-05-10 11:00 4.58 72 4520 (1981) 6 (1986) 202 8 9 19 27 59 110 163 272 963
2026-05-10 10:00 4.60 75 4520 (1981) 6 (1986) 202 8 9 19 27 59 110 163 272 963
2026-05-10 09:00 4.60 75 4520 (1981) 6 (1986) 202 8 9 19 27 59 110 163 272 963
2026-05-10 08:00 4.61 77 4520 (1981) 6 (1986) 202 8 9 19 27 59 110 163 272 963
2026-05-10 07:00 4.62 78 4520 (1981) 6 (1986) 202 8 9 19 27 59 110 163 272 963
2026-05-10 06:00 4.64 81 4520 (1981) 6 (1986) 202 8 9 19 27 59 110 163 272 963
2026-05-10 05:00 4.65 83 4520 (1981) 6 (1986) 202 8 9 19 27 59 110 163 272 963
2026-05-10 04:00 4.67 86 4520 (1981) 6 (1986) 202 8 9 19 27 59 110 163 272 963
2026-05-10 03:00 4.68 88 4520 (1981) 6 (1986) 202 8 9 19 27 59 110 163 272 963
2026-05-10 02:00 4.69 89 4520 (1981) 6 (1986) 202 8 9 19 27 59 110 163 272 963
2026-05-10 01:00 4.71 93 4520 (1981) 6 (1986) 202 8 9 19 27 59 110 163 272 963
2026-05-10 00:00 4.72 95 4520 (1981) 6 (1986) 202 8 9 19 27 59 110 163 272 963
2026-05-09 23:00 4.74 98 4520 (1981) 6 (1986) 202 8 9 19 27 59 110 163 272 963
2026-05-09 22:00 4.76 102 4040 (2002) 6 (1986) 200 9 11 17 25 61 139 164 430 870
2026-05-09 21:00 4.77 104 4040 (2002) 6 (1986) 200 9 11 17 25 61 139 164 430 870
2026-05-09 20:00 4.80 110 4040 (2002) 6 (1986) 200 9 11 17 25 61 139 164 430 870
2026-05-09 19:00 4.81 112 4040 (2002) 6 (1986) 200 9 11 17 25 61 139 164 430 870
2026-05-09 18:00 4.83 116 4040 (2002) 6 (1986) 200 9 11 17 25 61 139 164 430 870
2026-05-09 17:00 4.86 122 4040 (2002) 6 (1986) 200 9 11 17 25 61 139 164 430 870
2026-05-09 16:00 4.89 129 4040 (2002) 6 (1986) 200 9 11 17 25 61 139 164 430 870
2026-05-09 15:00 4.92 135 4040 (2002) 6 (1986) 200 9 11 17 25 61 139 164 430 870
2026-05-09 14:00 4.94 140 4040 (2002) 6 (1986) 200 9 11 17 25 61 139 164 430 870
2026-05-09 13:00 4.92 135 4040 (2002) 6 (1986) 200 9 11 17 25 61 139 164 430 870
2026-05-09 12:00 4.84 118 4040 (2002) 6 (1986) 200 9 11 17 25 61 139 164 430 870
2026-05-09 11:00 4.73 97 4040 (2002) 6 (1986) 200 9 11 17 25 61 139 164 430 870
2026-05-09 10:00 4.70 91 4040 (2002) 6 (1986) 200 9 11 17 25 61 139 164 430 870
2026-05-09 09:00 4.66 84 4040 (2002) 6 (1986) 200 9 11 17 25 61 139 164 430 870
2026-05-09 08:00 4.62 78 4040 (2002) 6 (1986) 200 9 11 17 25 61 139 164 430 870
2026-05-09 07:00 4.60 75 4040 (2002) 6 (1986) 200 9 11 17 25 61 139 164 430 870
2026-05-09 06:00 4.58 72 4040 (2002) 6 (1986) 200 9 11 17 25 61 139 164 430 870
2026-05-09 05:00 4.53 65 4040 (2002) 6 (1986) 200 9 11 17 25 61 139 164 430 870
2026-05-09 04:00 4.47 58 4040 (2002) 6 (1986) 200 9 11 17 25 61 139 164 430 870
2026-05-09 03:00 4.41 52 4040 (2002) 6 (1986) 200 9 11 17 25 61 139 164 430 870
2026-05-09 02:00 4.36 46 4040 (2002) 6 (1986) 200 9 11 17 25 61 139 164 430 870
2026-05-09 01:00 4.33 44 4040 (2002) 6 (1986) 200 9 11 17 25 61 139 164 430 870
2026-05-09 00:00 4.30 41 4040 (2002) 6 (1986) 200 9 11 17 25 61 139 164 430 870
2026-05-08 23:00 4.28 39 4040 (2002) 6 (1986) 200 9 11 17 25 61 139 164 430 870
2026-05-08 22:00 4.24 36 7060 (2009) 6 (1986) 396 9 11 19 23 52 191 277 887 2770
2026-05-08 21:00 4.20 32 7060 (2009) 6 (1986) 396 9 11 19 23 52 191 277 887 2770
2026-05-08 20:00 4.20 32 7060 (2009) 6 (1986) 396 9 11 19 23 52 191 277 887 2770
2026-05-08 19:00 4.19 32 7060 (2009) 6 (1986) 396 9 11 19 23 52 191 277 887 2770
2026-05-08 18:00 4.19 32 7060 (2009) 6 (1986) 396 9 11 19 23 52 191 277 887 2770
2026-05-08 17:00 4.19 32 7060 (2009) 6 (1986) 396 9 11 19 23 52 191 277 887 2770
2026-05-08 16:00 4.20 32 7060 (2009) 6 (1986) 396 9 11 19 23 52 191 277 887 2770
2026-05-08 15:00 4.20 32 7060 (2009) 6 (1986) 396 9 11 19 23 52 191 277 887 2770
2026-05-08 14:00 4.20 32 7060 (2009) 6 (1986) 396 9 11 19 23 52 191 277 887 2770
2026-05-08 13:00 4.21 33 7060 (2009) 6 (1986) 396 9 11 19 23 52 191 277 887 2770
2026-05-08 12:00 4.21 33 7060 (2009) 6 (1986) 396 9 11 19 23 52 191 277 887 2770
2026-05-08 11:00 4.21 33 7060 (2009) 6 (1986) 396 9 11 19 23 52 191 277 887 2770
2026-05-08 10:00 4.21 33 7060 (2009) 6 (1986) 396 9 11 19 23 52 191 277 887 2770
2026-05-08 09:00 4.22 34 7060 (2009) 6 (1986) 396 9 11 19 23 52 191 277 887 2770
2026-05-08 08:00 4.22 34 7060 (2009) 6 (1986) 396 9 11 19 23 52 191 277 887 2770
2026-05-08 07:00 4.23 35 7060 (2009) 6 (1986) 396 9 11 19 23 52 191 277 887 2770
2026-05-08 06:00 4.23 35 7060 (2009) 6 (1986) 396 9 11 19 23 52 191 277 887 2770
2026-05-08 05:00 4.23 35 7060 (2009) 6 (1986) 396 9 11 19 23 52 191 277 887 2770
2026-05-08 04:00 4.24 36 7060 (2009) 6 (1986) 396 9 11 19 23 52 191 277 887 2770
2026-05-08 03:00 4.24 36 7060 (2009) 6 (1986) 396 9 11 19 23 52 191 277 887 2770
2026-05-08 02:00 4.25 36 7060 (2009) 6 (1986) 396 9 11 19 23 52 191 277 887 2770
2026-05-08 01:00 4.25 36 7060 (2009) 6 (1986) 396 9 11 19 23 52 191 277 887 2770
2026-05-08 00:00 4.25 36 7060 (2009) 6 (1986) 396 9 11 19 23 52 191 277 887 2770
2026-05-07 23:00 4.27 38 7060 (2009) 6 (1986) 396 9 11 19 23 52 191 277 887 2770
2026-05-07 22:00 4.27 38 4840 (1973) 6 (1986) 289 8 12 19 23 55 176 335 552 1650
2026-05-07 21:00 4.28 39 4840 (1973) 6 (1986) 289 8 12 19 23 55 176 335 552 1650
2026-05-07 20:00 4.28 39 4840 (1973) 6 (1986) 289 8 12 19 23 55 176 335 552 1650
2026-05-07 19:00 4.29 40 4840 (1973) 6 (1986) 289 8 12 19 23 55 176 335 552 1650
2026-05-07 18:00 4.29 40 4840 (1973) 6 (1986) 289 8 12 19 23 55 176 335 552 1650
2026-05-07 17:00 4.30 41 4840 (1973) 6 (1986) 289 8 12 19 23 55 176 335 552 1650
2026-05-07 16:00 4.30 41 4840 (1973) 6 (1986) 289 8 12 19 23 55 176 335 552 1650
2026-05-07 15:00 4.31 42 4840 (1973) 6 (1986) 289 8 12 19 23 55 176 335 552 1650
2026-05-07 14:00 4.32 43 4840 (1973) 6 (1986) 289 8 12 19 23 55 176 335 552 1650
2026-05-07 13:00 4.32 43 4840 (1973) 6 (1986) 289 8 12 19 23 55 176 335 552 1650
2026-05-07 12:00 4.33 44 4840 (1973) 6 (1986) 289 8 12 19 23 55 176 335 552 1650
2026-05-07 11:00 4.34 44 4840 (1973) 6 (1986) 289 8 12 19 23 55 176 335 552 1650
2026-05-07 10:00 4.34 44 4840 (1973) 6 (1986) 289 8 12 19 23 55 176 335 552 1650
2026-05-07 09:00 4.35 45 4840 (1973) 6 (1986) 289 8 12 19 23 55 176 335 552 1650
2026-05-07 08:00 4.35 45 4840 (1973) 6 (1986) 289 8 12 19 23 55 176 335 552 1650
2026-05-07 07:00 4.36 46 4840 (1973) 6 (1986) 289 8 12 19 23 55 176 335 552 1650
2026-05-07 06:00 4.37 47 4840 (1973) 6 (1986) 289 8 12 19 23 55 176 335 552 1650
2026-05-07 05:00 4.38 48 4840 (1973) 6 (1986) 289 8 12 19 23 55 176 335 552 1650
2026-05-07 04:00 4.39 49 4840 (1973) 6 (1986) 289 8 12 19 23 55 176 335 552 1650
2026-05-07 03:00 4.40 50 4840 (1973) 6 (1986) 289 8 12 19 23 55 176 335 552 1650
2026-05-07 02:00 4.41 52 4840 (1973) 6 (1986) 289 8 12 19 23 55 176 335 552 1650
2026-05-07 01:00 4.42 53 4840 (1973) 6 (1986) 289 8 12 19 23 55 176 335 552 1650
2026-05-07 00:00 4.42 53 4840 (1973) 6 (1986) 289 8 12 19 23 55 176 335 552 1650
2026-05-06 23:00 4.43 54 4840 (1973) 6 (1986) 289 8 12 19 23 55 176 335 552 1650
2026-05-06 22:00 4.43 54 3190 (1975) 4 (1977) 185 8 9 17 25 56 123 146 392 668
2026-05-06 21:00 4.43 54 3190 (1975) 4 (1977) 185 8 9 17 25 56 123 146 392 668
2026-05-06 20:00 4.42 53 3190 (1975) 4 (1977) 185 8 9 17 25 56 123 146 392 668
2026-05-06 19:00 4.40 50 3190 (1975) 4 (1977) 185 8 9 17 25 56 123 146 392 668
2026-05-06 18:00 4.40 50 3190 (1975) 4 (1977) 185 8 9 17 25 56 123 146 392 668
2026-05-06 17:00 4.39 49 3190 (1975) 4 (1977) 185 8 9 17 25 56 123 146 392 668
2026-05-06 16:00 4.40 50 3190 (1975) 4 (1977) 185 8 9 17 25 56 123 146 392 668
2026-05-06 15:00 4.40 50 3190 (1975) 4 (1977) 185 8 9 17 25 56 123 146 392 668
2026-05-06 14:00 4.40 50 3190 (1975) 4 (1977) 185 8 9 17 25 56 123 146 392 668
2026-05-06 13:00 4.41 52 3190 (1975) 4 (1977) 185 8 9 17 25 56 123 146 392 668
2026-05-06 12:00 4.40 50 3190 (1975) 4 (1977) 185 8 9 17 25 56 123 146 392 668
2026-05-06 11:00 4.40 50 3190 (1975) 4 (1977) 185 8 9 17 25 56 123 146 392 668
2026-05-06 10:00 4.40 50 3190 (1975) 4 (1977) 185 8 9 17 25 56 123 146 392 668
2026-05-06 09:00 4.40 50 3190 (1975) 4 (1977) 185 8 9 17 25 56 123 146 392 668
2026-05-06 08:00 4.40 50 3190 (1975) 4 (1977) 185 8 9 17 25 56 123 146 392 668
2026-05-06 07:00 4.39 49 3190 (1975) 4 (1977) 185 8 9 17 25 56 123 146 392 668
2026-05-06 06:00 4.40 50 3190 (1975) 4 (1977) 185 8 9 17 25 56 123 146 392 668
2026-05-06 05:00 4.39 49 3190 (1975) 4 (1977) 185 8 9 17 25 56 123 146 392 668
2026-05-06 04:00 4.40 50 3190 (1975) 4 (1977) 185 8 9 17 25 56 123 146 392 668
2026-05-06 03:00 4.39 49 3190 (1975) 4 (1977) 185 8 9 17 25 56 123 146 392 668
2026-05-06 02:00 4.39 49 3190 (1975) 4 (1977) 185 8 9 17 25 56 123 146 392 668
2026-05-06 01:00 4.39 49 3190 (1975) 4 (1977) 185 8 9 17 25 56 123 146 392 668
2026-05-06 00:00 4.38 48 3190 (1975) 4 (1977) 185 8 9 17 25 56 123 146 392 668
2026-05-05 23:00 4.38 48 3190 (1975) 4 (1977) 185 8 9 17 25 56 123 146 392 668
2026-05-05 22:00 4.38 48 9130 (2022) 4 (1977) 334 7 12 19 27 55 161 188 337 1670
2026-05-05 21:00 4.37 47 9130 (2022) 4 (1977) 334 7 12 19 27 55 161 188 337 1670
2026-05-05 20:00 4.37 47 9130 (2022) 4 (1977) 334 7 12 19 27 55 161 188 337 1670
2026-05-05 19:00 4.36 46 9130 (2022) 4 (1977) 334 7 12 19 27 55 161 188 337 1670
2026-05-05 18:00 4.35 45 9130 (2022) 4 (1977) 334 7 12 19 27 55 161 188 337 1670
2026-05-05 17:00 4.36 46 9130 (2022) 4 (1977) 334 7 12 19 27 55 161 188 337 1670
2026-05-05 16:00 4.35 45 9130 (2022) 4 (1977) 334 7 12 19 27 55 161 188 337 1670
2026-05-05 15:00 4.36 46 9130 (2022) 4 (1977) 334 7 12 19 27 55 161 188 337 1670
2026-05-05 14:00 4.35 45 9130 (2022) 4 (1977) 334 7 12 19 27 55 161 188 337 1670
2026-05-05 13:00 4.36 46 9130 (2022) 4 (1977) 334 7 12 19 27 55 161 188 337 1670
2026-05-05 12:00 4.37 47 9130 (2022) 4 (1977) 334 7 12 19 27 55 161 188 337 1670
2026-05-05 11:00 4.35 45 9130 (2022) 4 (1977) 334 7 12 19 27 55 161 188 337 1670
2026-05-05 10:00 4.36 46 9130 (2022) 4 (1977) 334 7 12 19 27 55 161 188 337 1670
2026-05-05 09:00 4.37 47 9130 (2022) 4 (1977) 334 7 12 19 27 55 161 188 337 1670
2026-05-05 08:00 4.37 47 9130 (2022) 4 (1977) 334 7 12 19 27 55 161 188 337 1670
2026-05-05 07:00 4.37 47 9130 (2022) 4 (1977) 334 7 12 19 27 55 161 188 337 1670
2026-05-05 06:00 4.36 46 9130 (2022) 4 (1977) 334 7 12 19 27 55 161 188 337 1670
2026-05-05 05:00 4.36 46 9130 (2022) 4 (1977) 334 7 12 19 27 55 161 188 337 1670
2026-05-05 04:00 4.35 45 9130 (2022) 4 (1977) 334 7 12 19 27 55 161 188 337 1670
2026-05-05 03:00 4.36 46 9130 (2022) 4 (1977) 334 7 12 19 27 55 161 188 337 1670
2026-05-05 02:00 4.36 46 9130 (2022) 4 (1977) 334 7 12 19 27 55 161 188 337 1670
2026-05-05 01:00 4.36 46 9130 (2022) 4 (1977) 334 7 12 19 27 55 161 188 337 1670
2026-05-05 00:00 4.37 47 9130 (2022) 4 (1977) 334 7 12 19 27 55 161 188 337 1670
2026-05-04 23:00 4.37 47 9130 (2022) 4 (1977) 334 7 12 19 27 55 161 188 337 1670
2026-05-04 22:00 4.38 48 6270 (2017) 4 (1977) 270 8 12 19 29 68 175 323 589 1170
2026-05-04 21:00 4.39 49 6270 (2017) 4 (1977) 270 8 12 19 29 68 175 323 589 1170
2026-05-04 20:00 4.39 49 6270 (2017) 4 (1977) 270 8 12 19 29 68 175 323 589 1170
2026-05-04 19:00 4.40 50 6270 (2017) 4 (1977) 270 8 12 19 29 68 175 323 589 1170
2026-05-04 18:00 4.40 50 6270 (2017) 4 (1977) 270 8 12 19 29 68 175 323 589 1170
2026-05-04 17:00 4.41 52 6270 (2017) 4 (1977) 270 8 12 19 29 68 175 323 589 1170
2026-05-04 16:00 4.42 53 6270 (2017) 4 (1977) 270 8 12 19 29 68 175 323 589 1170
2026-05-04 15:00 4.42 53 6270 (2017) 4 (1977) 270 8 12 19 29 68 175 323 589 1170
2026-05-04 14:00 4.42 53 6270 (2017) 4 (1977) 270 8 12 19 29 68 175 323 589 1170
2026-05-04 13:00 4.42 53 6270 (2017) 4 (1977) 270 8 12 19 29 68 175 323 589 1170
2026-05-04 12:00 4.44 55 6270 (2017) 4 (1977) 270 8 12 19 29 68 175 323 589 1170
2026-05-04 11:00 4.44 55 6270 (2017) 4 (1977) 270 8 12 19 29 68 175 323 589 1170
2026-05-04 10:00 4.45 56 6270 (2017) 4 (1977) 270 8 12 19 29 68 175 323 589 1170
2026-05-04 09:00 4.45 56 6270 (2017) 4 (1977) 270 8 12 19 29 68 175 323 589 1170
2026-05-04 08:00 4.45 56 6270 (2017) 4 (1977) 270 8 12 19 29 68 175 323 589 1170
2026-05-04 07:00 4.45 56 6270 (2017) 4 (1977) 270 8 12 19 29 68 175 323 589 1170
2026-05-04 06:00 4.45 56 6270 (2017) 4 (1977) 270 8 12 19 29 68 175 323 589 1170
2026-05-04 05:00 4.46 57 6270 (2017) 4 (1977) 270 8 12 19 29 68 175 323 589 1170
2026-05-04 04:00 4.47 58 6270 (2017) 4 (1977) 270 8 12 19 29 68 175 323 589 1170
2026-05-04 03:00 4.47 58 6270 (2017) 4 (1977) 270 8 12 19 29 68 175 323 589 1170
2026-05-04 02:00 4.48 59 6270 (2017) 4 (1977) 270 8 12 19 29 68 175 323 589 1170
2026-05-04 01:00 4.48 59 6270 (2017) 4 (1977) 270 8 12 19 29 68 175 323 589 1170
2026-05-04 00:00 4.49 60 6270 (2017) 4 (1977) 270 8 12 19 29 68 175 323 589 1170
2026-05-03 23:00 4.49 60 6270 (2017) 4 (1977) 270 8 12 19 29 68 175 323 589 1170
2026-05-03 22:00 4.49 60 3690 (1990) 4 (1977) 280 8 10 21 27 74 191 326 539 1480
2026-05-03 21:00 4.51 63 3690 (1990) 4 (1977) 280 8 10 21 27 74 191 326 539 1480
2026-05-03 20:00 4.51 63 3690 (1990) 4 (1977) 280 8 10 21 27 74 191 326 539 1480
2026-05-03 19:00 4.51 63 3690 (1990) 4 (1977) 280 8 10 21 27 74 191 326 539 1480
2026-05-03 18:00 4.52 64 3690 (1990) 4 (1977) 280 8 10 21 27 74 191 326 539 1480
2026-05-03 17:00 4.52 64 3690 (1990) 4 (1977) 280 8 10 21 27 74 191 326 539 1480
2026-05-03 16:00 4.53 65 3690 (1990) 4 (1977) 280 8 10 21 27 74 191 326 539 1480
2026-05-03 15:00 4.54 67 3690 (1990) 4 (1977) 280 8 10 21 27 74 191 326 539 1480
2026-05-03 14:00 4.54 67 3690 (1990) 4 (1977) 280 8 10 21 27 74 191 326 539 1480
2026-05-03 13:00 4.55 68 3690 (1990) 4 (1977) 280 8 10 21 27 74 191 326 539 1480
2026-05-03 12:00 4.56 69 3690 (1990) 4 (1977) 280 8 10 21 27 74 191 326 539 1480
2026-05-03 11:00 4.56 69 3690 (1990) 4 (1977) 280 8 10 21 27 74 191 326 539 1480
2026-05-03 10:00 4.57 71 3690 (1990) 4 (1977) 280 8 10 21 27 74 191 326 539 1480
2026-05-03 09:00 4.57 71 3690 (1990) 4 (1977) 280 8 10 21 27 74 191 326 539 1480
2026-05-03 08:00 4.57 71 3690 (1990) 4 (1977) 280 8 10 21 27 74 191 326 539 1480
2026-05-03 07:00 4.57 71 3690 (1990) 4 (1977) 280 8 10 21 27 74 191 326 539 1480
2026-05-03 06:00 4.57 71 3690 (1990) 4 (1977) 280 8 10 21 27 74 191 326 539 1480
2026-05-03 05:00 4.58 72 3690 (1990) 4 (1977) 280 8 10 21 27 74 191 326 539 1480
2026-05-03 04:00 4.58 72 3690 (1990) 4 (1977) 280 8 10 21 27 74 191 326 539 1480
2026-05-03 03:00 4.58 72 3690 (1990) 4 (1977) 280 8 10 21 27 74 191 326 539 1480
2026-05-03 02:00 4.59 74 3690 (1990) 4 (1977) 280 8 10 21 27 74 191 326 539 1480
2026-05-03 01:00 4.60 75 3690 (1990) 4 (1977) 280 8 10 21 27 74 191 326 539 1480
2026-05-03 00:00 4.60 75 3690 (1990) 4 (1977) 280 8 10 21 27 74 191 326 539 1480
2026-05-02 23:00 4.60 75 3690 (1990) 4 (1977) 280 8 10 21 27 74 191 326 539 1480
2026-05-02 22:00 4.61 77 1160 (2019) 5 (1977) 163 8 10 21 26 60 156 227 387 1030
2026-05-02 21:00 4.62 78 1160 (2019) 5 (1977) 163 8 10 21 26 60 156 227 387 1030
2026-05-02 20:00 4.62 78 1160 (2019) 5 (1977) 163 8 10 21 26 60 156 227 387 1030
2026-05-02 19:00 4.63 80 1160 (2019) 5 (1977) 163 8 10 21 26 60 156 227 387 1030
2026-05-02 18:00 4.64 81 1160 (2019) 5 (1977) 163 8 10 21 26 60 156 227 387 1030
2026-05-02 17:00 4.65 83 1160 (2019) 5 (1977) 163 8 10 21 26 60 156 227 387 1030
2026-05-02 16:00 4.66 84 1160 (2019) 5 (1977) 163 8 10 21 26 60 156 227 387 1030
2026-05-02 15:00 4.66 84 1160 (2019) 5 (1977) 163 8 10 21 26 60 156 227 387 1030
2026-05-02 14:00 4.66 84 1160 (2019) 5 (1977) 163 8 10 21 26 60 156 227 387 1030
2026-05-02 13:00 4.68 88 1160 (2019) 5 (1977) 163 8 10 21 26 60 156 227 387 1030
2026-05-02 12:00 4.68 88 1160 (2019) 5 (1977) 163 8 10 21 26 60 156 227 387 1030
2026-05-02 11:00 4.69 89 1160 (2019) 5 (1977) 163 8 10 21 26 60 156 227 387 1030
2026-05-02 10:00 4.69 89 1160 (2019) 5 (1977) 163 8 10 21 26 60 156 227 387 1030
2026-05-02 09:00 4.69 89 1160 (2019) 5 (1977) 163 8 10 21 26 60 156 227 387 1030
2026-05-02 08:00 4.69 89 1160 (2019) 5 (1977) 163 8 10 21 26 60 156 227 387 1030
2026-05-02 07:00 4.71 93 1160 (2019) 5 (1977) 163 8 10 21 26 60 156 227 387 1030
2026-05-02 06:00 4.72 95 1160 (2019) 5 (1977) 163 8 10 21 26 60 156 227 387 1030
2026-05-02 05:00 4.72 95 1160 (2019) 5 (1977) 163 8 10 21 26 60 156 227 387 1030
2026-05-02 04:00 4.73 97 1160 (2019) 5 (1977) 163 8 10 21 26 60 156 227 387 1030
2026-05-02 03:00 4.73 97 1160 (2019) 5 (1977) 163 8 10 21 26 60 156 227 387 1030
2026-05-02 02:00 4.74 98 1160 (2019) 5 (1977) 163 8 10 21 26 60 156 227 387 1030
2026-05-02 01:00 4.74 98 1160 (2019) 5 (1977) 163 8 10 21 26 60 156 227 387 1030
2026-05-02 00:00 4.75 100 1160 (2019) 5 (1977) 163 8 10 21 26 60 156 227 387 1030
2026-05-01 23:00 4.76 102 1160 (2019) 5 (1977) 163 8 10 21 26 60 156 227 387 1030
2026-05-01 22:00 4.77 104 7290 (1983) 7 (1986) 562 8 11 26 29 60 240 270 1350 4450
2026-05-01 21:00 4.79 108 7290 (1983) 7 (1986) 562 8 11 26 29 60 240 270 1350 4450
2026-05-01 20:00 4.80 110 7290 (1983) 7 (1986) 562 8 11 26 29 60 240 270 1350 4450
2026-05-01 19:00 4.80 110 7290 (1983) 7 (1986) 562 8 11 26 29 60 240 270 1350 4450
2026-05-01 18:00 4.81 112 7290 (1983) 7 (1986) 562 8 11 26 29 60 240 270 1350 4450
2026-05-01 17:00 4.82 114 7290 (1983) 7 (1986) 562 8 11 26 29 60 240 270 1350 4450
2026-05-01 16:00 4.83 116 7290 (1983) 7 (1986) 562 8 11 26 29 60 240 270 1350 4450
2026-05-01 15:00 4.84 118 7290 (1983) 7 (1986) 562 8 11 26 29 60 240 270 1350 4450
2026-05-01 14:00 4.85 120 7290 (1983) 7 (1986) 562 8 11 26 29 60 240 270 1350 4450
2026-05-01 13:00 4.86 122 7290 (1983) 7 (1986) 562 8 11 26 29 60 240 270 1350 4450
2026-05-01 12:00 4.86 122 7290 (1983) 7 (1986) 562 8 11 26 29 60 240 270 1350 4450
2026-05-01 11:00 4.87 124 7290 (1983) 7 (1986) 562 8 11 26 29 60 240 270 1350 4450
2026-05-01 10:00 4.89 129 7290 (1983) 7 (1986) 562 8 11 26 29 60 240 270 1350 4450
2026-05-01 09:00 4.89 129 7290 (1983) 7 (1986) 562 8 11 26 29 60 240 270 1350 4450
2026-05-01 08:00 4.89 129 7290 (1983) 7 (1986) 562 8 11 26 29 60 240 270 1350 4450
2026-05-01 07:00 4.90 131 7290 (1983) 7 (1986) 562 8 11 26 29 60 240 270 1350 4450
2026-05-01 06:00 4.91 133 7290 (1983) 7 (1986) 562 8 11 26 29 60 240 270 1350 4450
2026-05-01 05:00 4.93 138 7290 (1983) 7 (1986) 562 8 11 26 29 60 240 270 1350 4450
2026-05-01 04:00 4.94 140 7290 (1983) 7 (1986) 562 8 11 26 29 60 240 270 1350 4450
2026-05-01 03:00 4.94 140 7290 (1983) 7 (1986) 562 8 11 26 29 60 240 270 1350 4450
2026-05-01 02:00 4.94 140 7290 (1983) 7 (1986) 562 8 11 26 29 60 240 270 1350 4450
2026-05-01 01:00 4.96 145 7290 (1983) 7 (1986) 562 8 11 26 29 60 240 270 1350 4450
2026-05-01 00:00 4.97 147 7290 (1983) 7 (1986) 562 8 11 26 29 60 240 270 1350 4450
2026-04-30 23:00 4.98 149 7290 (1983) 7 (1986) 562 8 11 26 29 60 240 270 1350 4450
2026-04-30 22:00 5.00 154 12900 (2017) 7 (1986) 493 8 14 29 32 71 348 394 646 2430
2026-04-30 21:00 5.02 159 12900 (2017) 7 (1986) 493 8 14 29 32 71 348 394 646 2430
2026-04-30 20:00 5.03 162 12900 (2017) 7 (1986) 493 8 14 29 32 71 348 394 646 2430
2026-04-30 19:00 5.05 167 12900 (2017) 7 (1986) 493 8 14 29 32 71 348 394 646 2430
2026-04-30 18:00 5.07 172 12900 (2017) 7 (1986) 493 8 14 29 32 71 348 394 646 2430
2026-04-30 17:00 5.07 172 12900 (2017) 7 (1986) 493 8 14 29 32 71 348 394 646 2430
2026-04-30 16:00 5.09 178 12900 (2017) 7 (1986) 493 8 14 29 32 71 348 394 646 2430
2026-04-30 15:00 5.10 181 12900 (2017) 7 (1986) 493 8 14 29 32 71 348 394 646 2430
2026-04-30 14:00 5.11 183 12900 (2017) 7 (1986) 493 8 14 29 32 71 348 394 646 2430
2026-04-30 13:00 5.13 189 12900 (2017) 7 (1986) 493 8 14 29 32 71 348 394 646 2430
2026-04-30 12:00 5.16 198 12900 (2017) 7 (1986) 493 8 14 29 32 71 348 394 646 2430
2026-04-30 11:00 5.16 198 12900 (2017) 7 (1986) 493 8 14 29 32 71 348 394 646 2430
2026-04-30 10:00 5.19 206 12900 (2017) 7 (1986) 493 8 14 29 32 71 348 394 646 2430
2026-04-30 09:00 5.20 209 12900 (2017) 7 (1986) 493 8 14 29 32 71 348 394 646 2430
2026-04-30 08:00 5.21 212 12900 (2017) 7 (1986) 493 8 14 29 32 71 348 394 646 2430
2026-04-30 07:00 5.24 222 12900 (2017) 7 (1986) 493 8 14 29 32 71 348 394 646 2430
2026-04-30 06:00 5.26 228 12900 (2017) 7 (1986) 493 8 14 29 32 71 348 394 646 2430
2026-04-30 05:00 5.28 235 12900 (2017) 7 (1986) 493 8 14 29 32 71 348 394 646 2430
2026-04-30 04:00 5.32 248 12900 (2017) 7 (1986) 493 8 14 29 32 71 348 394 646 2430
2026-04-30 03:00 5.34 255 12900 (2017) 7 (1986) 493 8 14 29 32 71 348 394 646 2430
2026-04-30 02:00 5.38 269 12900 (2017) 7 (1986) 493 8 14 29 32 71 348 394 646 2430
2026-04-30 01:00 5.42 283 12900 (2017) 7 (1986) 493 8 14 29 32 71 348 394 646 2430
2026-04-30 00:00 5.46 298 12900 (2017) 7 (1986) 493 8 14 29 32 71 348 394 646 2430
2026-04-29 23:00 5.50 314 12900 (2017) 7 (1986) 493 8 14 29 32 71 348 394 646 2430
2026-04-29 22:00 5.55 334 6460 (2017) 4 (1977) 459 9 18 29 35 68 193 285 2000 2930
2026-04-29 21:00 5.60 355 6460 (2017) 4 (1977) 459 9 18 29 35 68 193 285 2000 2930
2026-04-29 20:00 5.65 377 6460 (2017) 4 (1977) 459 9 18 29 35 68 193 285 2000 2930
2026-04-29 19:00 5.70 400 6460 (2017) 4 (1977) 459 9 18 29 35 68 193 285 2000 2930
2026-04-29 18:00 5.76 429 6460 (2017) 4 (1977) 459 9 18 29 35 68 193 285 2000 2930
2026-04-29 17:00 5.82 458 6460 (2017) 4 (1977) 459 9 18 29 35 68 193 285 2000 2930
2026-04-29 16:00 5.88 490 6460 (2017) 4 (1977) 459 9 18 29 35 68 193 285 2000 2930
2026-04-29 15:00 5.93 517 6460 (2017) 4 (1977) 459 9 18 29 35 68 193 285 2000 2930
2026-04-29 14:00 5.99 550 6460 (2017) 4 (1977) 459 9 18 29 35 68 193 285 2000 2930
2026-04-29 13:00 6.07 598 6460 (2017) 4 (1977) 459 9 18 29 35 68 193 285 2000 2930
2026-04-29 12:00 6.13 630 6460 (2017) 4 (1977) 459 9 18 29 35 68 193 285 2000 2930
2026-04-29 11:00 6.20 667 6460 (2017) 4 (1977) 459 9 18 29 35 68 193 285 2000 2930
2026-04-29 10:00 6.28 712 6460 (2017) 4 (1977) 459 9 18 29 35 68 193 285 2000 2930
2026-04-29 09:00 6.36 759 6460 (2017) 4 (1977) 459 9 18 29 35 68 193 285 2000 2930
2026-04-29 08:00 6.44 808 6460 (2017) 4 (1977) 459 9 18 29 35 68 193 285 2000 2930
2026-04-29 07:00 6.54 868 6460 (2017) 4 (1977) 459 9 18 29 35 68 193 285 2000 2930
2026-04-29 06:00 6.65 933 6460 (2017) 4 (1977) 459 9 18 29 35 68 193 285 2000 2930
2026-04-29 05:00 6.74 988 6460 (2017) 4 (1977) 459 9 18 29 35 68 193 285 2000 2930
2026-04-29 04:00 6.81 1030 6460 (2017) 4 (1977) 459 9 18 29 35 68 193 285 2000 2930
2026-04-29 03:00 6.87 1070 6460 (2017) 4 (1977) 459 9 18 29 35 68 193 285 2000 2930
2026-04-29 02:00 6.87 1070 6460 (2017) 4 (1977) 459 9 18 29 35 68 193 285 2000 2930
2026-04-29 01:00 6.71 970 6460 (2017) 4 (1977) 459 9 18 29 35 68 193 285 2000 2930
2026-04-29 00:00 6.44 808 6460 (2017) 4 (1977) 459 9 18 29 35 68 193 285 2000 2930
2026-04-28 23:00 6.07 598 6460 (2017) 4 (1977) 459 9 18 29 35 68 193 285 2000 2930
2026-04-28 22:00 5.70 400 7700 (1994) 5 (1977) 390 9 15 27 33 77 154 358 590 1240
2026-04-28 21:00 5.47 302 7700 (1994) 5 (1977) 390 9 15 27 33 77 154 358 590 1240
2026-04-28 20:00 5.39 272 7700 (1994) 5 (1977) 390 9 15 27 33 77 154 358 590 1240
2026-04-28 19:00 5.33 251 7700 (1994) 5 (1977) 390 9 15 27 33 77 154 358 590 1240
2026-04-28 18:00 5.32 248 7700 (1994) 5 (1977) 390 9 15 27 33 77 154 358 590 1240
2026-04-28 17:00 5.34 255 7700 (1994) 5 (1977) 390 9 15 27 33 77 154 358 590 1240
2026-04-28 16:00 5.35 258 7700 (1994) 5 (1977) 390 9 15 27 33 77 154 358 590 1240
2026-04-28 15:00 5.38 269 7700 (1994) 5 (1977) 390 9 15 27 33 77 154 358 590 1240
2026-04-28 14:00 5.41 280 7700 (1994) 5 (1977) 390 9 15 27 33 77 154 358 590 1240
2026-04-28 13:00 5.45 295 7700 (1994) 5 (1977) 390 9 15 27 33 77 154 358 590 1240
2026-04-28 12:00 5.49 310 7700 (1994) 5 (1977) 390 9 15 27 33 77 154 358 590 1240
2026-04-28 11:00 5.53 326 7700 (1994) 5 (1977) 390 9 15 27 33 77 154 358 590 1240
2026-04-28 10:00 5.58 347 7700 (1994) 5 (1977) 390 9 15 27 33 77 154 358 590 1240
2026-04-28 09:00 5.63 368 7700 (1994) 5 (1977) 390 9 15 27 33 77 154 358 590 1240
2026-04-28 08:00 5.67 386 7700 (1994) 5 (1977) 390 9 15 27 33 77 154 358 590 1240
2026-04-28 07:00 5.72 409 7700 (1994) 5 (1977) 390 9 15 27 33 77 154 358 590 1240
2026-04-28 06:00 5.77 434 7700 (1994) 5 (1977) 390 9 15 27 33 77 154 358 590 1240
2026-04-28 05:00 5.82 458 7700 (1994) 5 (1977) 390 9 15 27 33 77 154 358 590 1240
2026-04-28 04:00 5.88 490 7700 (1994) 5 (1977) 390 9 15 27 33 77 154 358 590 1240
2026-04-28 03:00 5.95 528 7700 (1994) 5 (1977) 390 9 15 27 33 77 154 358 590 1240
2026-04-28 02:00 6.02 568 7700 (1994) 5 (1977) 390 9 15 27 33 77 154 358 590 1240
2026-04-28 01:00 6.11 619 7700 (1994) 5 (1977) 390 9 15 27 33 77 154 358 590 1240
2026-04-28 00:00 6.19 662 7700 (1994) 5 (1977) 390 9 15 27 33 77 154 358 590 1240
2026-04-27 23:00 6.19 662 7700 (1994) 5 (1977) 390 9 15 27 33 77 154 358 590 1240
2026-04-27 22:00 6.15 640 1880 (2013) 6 (1977) 202 9 16 27 35 73 150 186 634 1370
2026-04-27 21:00 6.15 640 1880 (2013) 6 (1977) 202 9 16 27 35 73 150 186 634 1370
2026-04-27 20:00 6.21 673 1880 (2013) 6 (1977) 202 9 16 27 35 73 150 186 634 1370
2026-04-27 19:00 6.34 747 1880 (2013) 6 (1977) 202 9 16 27 35 73 150 186 634 1370
2026-04-27 18:00 6.46 820 1880 (2013) 6 (1977) 202 9 16 27 35 73 150 186 634 1370
2026-04-27 17:00 6.61 909 1880 (2013) 6 (1977) 202 9 16 27 35 73 150 186 634 1370
2026-04-27 16:00 6.77 1010 1880 (2013) 6 (1977) 202 9 16 27 35 73 150 186 634 1370
2026-04-27 15:00 6.96 1130 1880 (2013) 6 (1977) 202 9 16 27 35 73 150 186 634 1370
2026-04-27 14:00 7.14 1260 1880 (2013) 6 (1977) 202 9 16 27 35 73 150 186 634 1370
2026-04-27 13:00 7.37 1420 1880 (2013) 6 (1977) 202 9 16 27 35 73 150 186 634 1370
2026-04-27 12:00 7.66 1610 1880 (2013) 6 (1977) 202 9 16 27 35 73 150 186 634 1370
2026-04-27 11:00 8.00 1860 1880 (2013) 6 (1977) 202 9 16 27 35 73 150 186 634 1370
2026-04-27 10:00 8.32 2070 1880 (2013) 6 (1977) 202 9 16 27 35 73 150 186 634 1370
2026-04-27 09:00 8.63 2260 1880 (2013) 6 (1977) 202 9 16 27 35 73 150 186 634 1370
2026-04-27 08:00 8.64 2270 1880 (2013) 6 (1977) 202 9 16 27 35 73 150 186 634 1370
2026-04-27 07:00 7.25 1340 1880 (2013) 6 (1977) 202 9 16 27 35 73 150 186 634 1370
2026-04-27 06:00 4.87 124 1880 (2013) 6 (1977) 202 9 16 27 35 73 150 186 634 1370
2026-04-27 05:00 4.76 102 1880 (2013) 6 (1977) 202 9 16 27 35 73 150 186 634 1370
2026-04-27 04:00 4.70 91 1880 (2013) 6 (1977) 202 9 16 27 35 73 150 186 634 1370
2026-04-27 03:00 4.68 88 1880 (2013) 6 (1977) 202 9 16 27 35 73 150 186 634 1370
2026-04-27 02:00 4.66 84 1880 (2013) 6 (1977) 202 9 16 27 35 73 150 186 634 1370
2026-04-27 01:00 4.64 81 1880 (2013) 6 (1977) 202 9 16 27 35 73 150 186 634 1370
2026-04-27 00:00 4.63 80 1880 (2013) 6 (1977) 202 9 16 27 35 73 150 186 634 1370
2026-04-26 23:00 4.63 80 1880 (2013) 6 (1977) 202 9 16 27 35 73 150 186 634 1370
2026-04-26 22:00 4.64 81 3090 (1999) 7 (1977) 268 9 17 27 31 67 220 267 886 1320
2026-04-26 21:00 4.65 83 3090 (1999) 7 (1977) 268 9 17 27 31 67 220 267 886 1320
2026-04-26 20:00 4.65 83 3090 (1999) 7 (1977) 268 9 17 27 31 67 220 267 886 1320
2026-04-26 19:00 4.66 84 3090 (1999) 7 (1977) 268 9 17 27 31 67 220 267 886 1320
2026-04-26 18:00 4.67 86 3090 (1999) 7 (1977) 268 9 17 27 31 67 220 267 886 1320
2026-04-26 17:00 4.68 88 3090 (1999) 7 (1977) 268 9 17 27 31 67 220 267 886 1320
2026-04-26 16:00 4.69 89 3090 (1999) 7 (1977) 268 9 17 27 31 67 220 267 886 1320
2026-04-26 15:00 4.70 91 3090 (1999) 7 (1977) 268 9 17 27 31 67 220 267 886 1320
2026-04-26 14:00 4.70 91 3090 (1999) 7 (1977) 268 9 17 27 31 67 220 267 886 1320
2026-04-26 13:00 4.71 93 3090 (1999) 7 (1977) 268 9 17 27 31 67 220 267 886 1320
2026-04-26 12:00 4.72 95 3090 (1999) 7 (1977) 268 9 17 27 31 67 220 267 886 1320
2026-04-26 11:00 4.73 97 3090 (1999) 7 (1977) 268 9 17 27 31 67 220 267 886 1320
2026-04-26 10:00 4.75 100 3090 (1999) 7 (1977) 268 9 17 27 31 67 220 267 886 1320
2026-04-26 09:00 4.75 100 3090 (1999) 7 (1977) 268 9 17 27 31 67 220 267 886 1320
2026-04-26 08:00 4.76 102 3090 (1999) 7 (1977) 268 9 17 27 31 67 220 267 886 1320
2026-04-26 07:00 4.76 102 3090 (1999) 7 (1977) 268 9 17 27 31 67 220 267 886 1320
2026-04-26 06:00 4.77 104 3090 (1999) 7 (1977) 268 9 17 27 31 67 220 267 886 1320
2026-04-26 05:00 4.78 106 3090 (1999) 7 (1977) 268 9 17 27 31 67 220 267 886 1320
2026-04-26 04:00 4.79 108 3090 (1999) 7 (1977) 268 9 17 27 31 67 220 267 886 1320
2026-04-26 03:00 4.80 110 3090 (1999) 7 (1977) 268 9 17 27 31 67 220 267 886 1320
2026-04-26 02:00 4.82 114 3090 (1999) 7 (1977) 268 9 17 27 31 67 220 267 886 1320
2026-04-26 01:00 4.83 116 3090 (1999) 7 (1977) 268 9 17 27 31 67 220 267 886 1320
2026-04-26 00:00 4.84 118 3090 (1999) 7 (1977) 268 9 17 27 31 67 220 267 886 1320
2026-04-25 23:00 4.86 122 3090 (1999) 7 (1977) 268 9 17 27 31 67 220 267 886 1320
2026-04-25 22:00 4.87 124 7000 (1975) 7 (1986) 332 10 15 28 37 86 228 286 750 1340
2026-04-25 21:00 4.89 129 7000 (1975) 7 (1986) 332 10 15 28 37 86 228 286 750 1340
2026-04-25 20:00 4.90 131 7000 (1975) 7 (1986) 332 10 15 28 37 86 228 286 750 1340
2026-04-25 19:00 4.91 133 7000 (1975) 7 (1986) 332 10 15 28 37 86 228 286 750 1340
2026-04-25 18:00 4.92 135 7000 (1975) 7 (1986) 332 10 15 28 37 86 228 286 750 1340
2026-04-25 17:00 4.94 140 7000 (1975) 7 (1986) 332 10 15 28 37 86 228 286 750 1340
2026-04-25 16:00 4.96 145 7000 (1975) 7 (1986) 332 10 15 28 37 86 228 286 750 1340
2026-04-25 15:00 4.97 147 7000 (1975) 7 (1986) 332 10 15 28 37 86 228 286 750 1340
2026-04-25 14:00 4.99 152 7000 (1975) 7 (1986) 332 10 15 28 37 86 228 286 750 1340
2026-04-25 13:00 5.00 154 7000 (1975) 7 (1986) 332 10 15 28 37 86 228 286 750 1340
2026-04-25 12:00 5.02 159 7000 (1975) 7 (1986) 332 10 15 28 37 86 228 286 750 1340
2026-04-25 11:00 5.03 162 7000 (1975) 7 (1986) 332 10 15 28 37 86 228 286 750 1340
2026-04-25 10:00 5.05 167 7000 (1975) 7 (1986) 332 10 15 28 37 86 228 286 750 1340
2026-04-25 09:00 5.07 172 7000 (1975) 7 (1986) 332 10 15 28 37 86 228 286 750 1340
2026-04-25 08:00 5.09 178 7000 (1975) 7 (1986) 332 10 15 28 37 86 228 286 750 1340
2026-04-25 07:00 5.10 181 7000 (1975) 7 (1986) 332 10 15 28 37 86 228 286 750 1340
2026-04-25 06:00 5.13 189 7000 (1975) 7 (1986) 332 10 15 28 37 86 228 286 750 1340
2026-04-25 05:00 5.14 192 7000 (1975) 7 (1986) 332 10 15 28 37 86 228 286 750 1340
2026-04-25 04:00 5.17 200 7000 (1975) 7 (1986) 332 10 15 28 37 86 228 286 750 1340
2026-04-25 03:00 5.20 209 7000 (1975) 7 (1986) 332 10 15 28 37 86 228 286 750 1340
2026-04-25 02:00 5.24 222 7000 (1975) 7 (1986) 332 10 15 28 37 86 228 286 750 1340
2026-04-25 01:00 5.27 231 7000 (1975) 7 (1986) 332 10 15 28 37 86 228 286 750 1340
2026-04-25 00:00 5.29 238 7000 (1975) 7 (1986) 332 10 15 28 37 86 228 286 750 1340
2026-04-24 23:00 5.32 248 7000 (1975) 7 (1986) 332 10 15 28 37 86 228 286 750 1340
2026-04-24 22:00 5.37 265 5000 (1975) 8 (1986) 267 10 18 25 33 76 177 203 612 1490
2026-04-24 21:00 5.43 287 5000 (1975) 8 (1986) 267 10 18 25 33 76 177 203 612 1490
2026-04-24 20:00 5.49 310 5000 (1975) 8 (1986) 267 10 18 25 33 76 177 203 612 1490
2026-04-24 19:00 5.55 334 5000 (1975) 8 (1986) 267 10 18 25 33 76 177 203 612 1490
2026-04-24 18:00 5.61 360 5000 (1975) 8 (1986) 267 10 18 25 33 76 177 203 612 1490
2026-04-24 17:00 5.61 360 5000 (1975) 8 (1986) 267 10 18 25 33 76 177 203 612 1490
2026-04-24 16:00 5.30 241 5000 (1975) 8 (1986) 267 10 18 25 33 76 177 203 612 1490
2026-04-24 15:00 4.80 110 5000 (1975) 8 (1986) 267 10 18 25 33 76 177 203 612 1490
2026-04-24 14:00 4.75 100 5000 (1975) 8 (1986) 267 10 18 25 33 76 177 203 612 1490
2026-04-24 13:00 4.71 93 5000 (1975) 8 (1986) 267 10 18 25 33 76 177 203 612 1490
2026-04-24 12:00 4.68 88 5000 (1975) 8 (1986) 267 10 18 25 33 76 177 203 612 1490
2026-04-24 11:00 4.64 81 5000 (1975) 8 (1986) 267 10 18 25 33 76 177 203 612 1490
2026-04-24 10:00 4.62 78 5000 (1975) 8 (1986) 267 10 18 25 33 76 177 203 612 1490
2026-04-24 09:00 4.60 75 5000 (1975) 8 (1986) 267 10 18 25 33 76 177 203 612 1490
2026-04-24 08:00 4.58 72 5000 (1975) 8 (1986) 267 10 18 25 33 76 177 203 612 1490
2026-04-24 07:00 4.57 71 5000 (1975) 8 (1986) 267 10 18 25 33 76 177 203 612 1490
2026-04-24 06:00 4.55 68 5000 (1975) 8 (1986) 267 10 18 25 33 76 177 203 612 1490
2026-04-24 05:00 4.53 65 5000 (1975) 8 (1986) 267 10 18 25 33 76 177 203 612 1490
2026-04-24 04:00 4.53 65 5000 (1975) 8 (1986) 267 10 18 25 33 76 177 203 612 1490
2026-04-24 03:00 4.50 62 5000 (1975) 8 (1986) 267 10 18 25 33 76 177 203 612 1490
2026-04-24 02:00 4.51 63 5000 (1975) 8 (1986) 267 10 18 25 33 76 177 203 612 1490
2026-04-24 01:00 4.52 64 5000 (1975) 8 (1986) 267 10 18 25 33 76 177 203 612 1490
2026-04-24 00:00 4.52 64 5000 (1975) 8 (1986) 267 10 18 25 33 76 177 203 612 1490
2026-04-23 23:00 4.53 65 5000 (1975) 8 (1986) 267 10 18 25 33 76 177 203 612 1490
2026-04-23 22:00 4.53 65 3360 (1966) 8 (1986) 240 10 20 24 28 69 195 274 495 1030
2026-04-23 21:00 4.54 67 3360 (1966) 8 (1986) 240 10 20 24 28 69 195 274 495 1030
2026-04-23 20:00 4.55 68 3360 (1966) 8 (1986) 240 10 20 24 28 69 195 274 495 1030
2026-04-23 19:00 4.56 69 3360 (1966) 8 (1986) 240 10 20 24 28 69 195 274 495 1030
2026-04-23 18:00 4.58 72 3360 (1966) 8 (1986) 240 10 20 24 28 69 195 274 495 1030
2026-04-23 17:00 4.59 74 3360 (1966) 8 (1986) 240 10 20 24 28 69 195 274 495 1030
2026-04-23 16:00 4.58 72 3360 (1966) 8 (1986) 240 10 20 24 28 69 195 274 495 1030
2026-04-23 15:00 4.58 72 3360 (1966) 8 (1986) 240 10 20 24 28 69 195 274 495 1030
2026-04-23 14:00 4.58 72 3360 (1966) 8 (1986) 240 10 20 24 28 69 195 274 495 1030
2026-04-23 13:00 4.59 74 3360 (1966) 8 (1986) 240 10 20 24 28 69 195 274 495 1030
2026-04-23 12:00 4.59 74 3360 (1966) 8 (1986) 240 10 20 24 28 69 195 274 495 1030
2026-04-23 11:00 4.60 75 3360 (1966) 8 (1986) 240 10 20 24 28 69 195 274 495 1030
2026-04-23 10:00 4.60 75 3360 (1966) 8 (1986) 240 10 20 24 28 69 195 274 495 1030
2026-04-23 09:00 4.61 77 3360 (1966) 8 (1986) 240 10 20 24 28 69 195 274 495 1030
2026-04-23 08:00 4.60 75 3360 (1966) 8 (1986) 240 10 20 24 28 69 195 274 495 1030
2026-04-23 07:00 4.61 77 3360 (1966) 8 (1986) 240 10 20 24 28 69 195 274 495 1030
2026-04-23 06:00 4.61 77 3360 (1966) 8 (1986) 240 10 20 24 28 69 195 274 495 1030
2026-04-23 05:00 4.62 78 3360 (1966) 8 (1986) 240 10 20 24 28 69 195 274 495 1030
2026-04-23 04:00 4.62 78 3360 (1966) 8 (1986) 240 10 20 24 28 69 195 274 495 1030
2026-04-23 03:00 4.62 78 3360 (1966) 8 (1986) 240 10 20 24 28 69 195 274 495 1030
2026-04-23 02:00 4.63 80 3360 (1966) 8 (1986) 240 10 20 24 28 69 195 274 495 1030
2026-04-23 01:00 4.64 81 3360 (1966) 8 (1986) 240 10 20 24 28 69 195 274 495 1030
2026-04-23 00:00 4.65 83 3360 (1966) 8 (1986) 240 10 20 24 28 69 195 274 495 1030
2026-04-22 23:00 4.65 83 3360 (1966) 8 (1986) 240 10 20 24 28 69 195 274 495 1030
2026-04-22 22:00 4.67 86 3300 (1973) 8 (1986) 301 10 19 25 28 71 159 302 936 2060
2026-04-22 21:00 4.68 88 3300 (1973) 8 (1986) 301 10 19 25 28 71 159 302 936 2060
2026-04-22 20:00 4.69 89 3300 (1973) 8 (1986) 301 10 19 25 28 71 159 302 936 2060
2026-04-22 19:00 4.67 86 3300 (1973) 8 (1986) 301 10 19 25 28 71 159 302 936 2060
2026-04-22 18:00 4.67 86 3300 (1973) 8 (1986) 301 10 19 25 28 71 159 302 936 2060
2026-04-22 17:00 4.68 88 3300 (1973) 8 (1986) 301 10 19 25 28 71 159 302 936 2060
2026-04-22 16:00 4.69 89 3300 (1973) 8 (1986) 301 10 19 25 28 71 159 302 936 2060
2026-04-22 15:00 4.69 89 3300 (1973) 8 (1986) 301 10 19 25 28 71 159 302 936 2060
2026-04-22 14:00 4.69 89 3300 (1973) 8 (1986) 301 10 19 25 28 71 159 302 936 2060
2026-04-22 13:00 4.71 93 3300 (1973) 8 (1986) 301 10 19 25 28 71 159 302 936 2060
2026-04-22 12:00 4.71 93 3300 (1973) 8 (1986) 301 10 19 25 28 71 159 302 936 2060
2026-04-22 11:00 4.72 95 3300 (1973) 8 (1986) 301 10 19 25 28 71 159 302 936 2060
2026-04-22 10:00 4.72 95 3300 (1973) 8 (1986) 301 10 19 25 28 71 159 302 936 2060
2026-04-22 09:00 4.73 97 3300 (1973) 8 (1986) 301 10 19 25 28 71 159 302 936 2060
2026-04-22 08:00 4.73 97 3300 (1973) 8 (1986) 301 10 19 25 28 71 159 302 936 2060
2026-04-22 07:00 4.74 98 3300 (1973) 8 (1986) 301 10 19 25 28 71 159 302 936 2060
2026-04-22 06:00 4.75 100 3300 (1973) 8 (1986) 301 10 19 25 28 71 159 302 936 2060
2026-04-22 05:00 4.76 102 3300 (1973) 8 (1986) 301 10 19 25 28 71 159 302 936 2060
2026-04-22 04:00 4.77 104 3300 (1973) 8 (1986) 301 10 19 25 28 71 159 302 936 2060
2026-04-22 03:00 4.78 106 3300 (1973) 8 (1986) 301 10 19 25 28 71 159 302 936 2060
2026-04-22 02:00 4.79 108 3300 (1973) 8 (1986) 301 10 19 25 28 71 159 302 936 2060
2026-04-22 01:00 4.80 110 3300 (1973) 8 (1986) 301 10 19 25 28 71 159 302 936 2060
2026-04-22 00:00 4.79 108 3300 (1973) 8 (1986) 301 10 19 25 28 71 159 302 936 2060
2026-04-21 23:00 4.80 110 3300 (1973) 8 (1986) 301 10 19 25 28 71 159 302 936 2060
2026-04-21 22:00 4.81 112 4000 (1984) 8 (1986) 279 10 20 28 32 66 173 206 485 1760
2026-04-21 21:00 4.81 112 4000 (1984) 8 (1986) 279 10 20 28 32 66 173 206 485 1760
2026-04-21 20:00 4.82 114 4000 (1984) 8 (1986) 279 10 20 28 32 66 173 206 485 1760
2026-04-21 19:00 4.83 116 4000 (1984) 8 (1986) 279 10 20 28 32 66 173 206 485 1760
2026-04-21 18:00 4.84 118 4000 (1984) 8 (1986) 279 10 20 28 32 66 173 206 485 1760
2026-04-21 17:00 4.84 118 4000 (1984) 8 (1986) 279 10 20 28 32 66 173 206 485 1760
2026-04-21 16:00 4.86 122 4000 (1984) 8 (1986) 279 10 20 28 32 66 173 206 485 1760
2026-04-21 15:00 4.87 124 4000 (1984) 8 (1986) 279 10 20 28 32 66 173 206 485 1760
2026-04-21 14:00 4.88 126 4000 (1984) 8 (1986) 279 10 20 28 32 66 173 206 485 1760
2026-04-21 13:00 4.88 126 4000 (1984) 8 (1986) 279 10 20 28 32 66 173 206 485 1760
2026-04-21 12:00 4.90 131 4000 (1984) 8 (1986) 279 10 20 28 32 66 173 206 485 1760
2026-04-21 11:00 4.90 131 4000 (1984) 8 (1986) 279 10 20 28 32 66 173 206 485 1760
2026-04-21 10:00 4.91 133 4000 (1984) 8 (1986) 279 10 20 28 32 66 173 206 485 1760
2026-04-21 09:00 4.92 135 4000 (1984) 8 (1986) 279 10 20 28 32 66 173 206 485 1760
2026-04-21 08:00 4.92 135 4000 (1984) 8 (1986) 279 10 20 28 32 66 173 206 485 1760
2026-04-21 07:00 4.93 138 4000 (1984) 8 (1986) 279 10 20 28 32 66 173 206 485 1760
2026-04-21 06:00 4.93 138 4000 (1984) 8 (1986) 279 10 20 28 32 66 173 206 485 1760
2026-04-21 05:00 4.95 142 4000 (1984) 8 (1986) 279 10 20 28 32 66 173 206 485 1760
2026-04-21 04:00 4.96 145 4000 (1984) 8 (1986) 279 10 20 28 32 66 173 206 485 1760
2026-04-21 03:00 4.97 147 4000 (1984) 8 (1986) 279 10 20 28 32 66 173 206 485 1760
2026-04-21 02:00 4.97 147 4000 (1984) 8 (1986) 279 10 20 28 32 66 173 206 485 1760
2026-04-21 01:00 4.99 152 4000 (1984) 8 (1986) 279 10 20 28 32 66 173 206 485 1760
2026-04-21 00:00 5.01 157 4000 (1984) 8 (1986) 279 10 20 28 32 66 173 206 485 1760
2026-04-20 23:00 5.01 157 4000 (1984) 8 (1986) 279 10 20 28 32 66 173 206 485 1760
2026-04-20 22:00 5.03 162 3730 (2002) 9 (1986) 366 12 20 30 31 68 218 290 1620 2780
2026-04-20 21:00 5.05 167 3730 (2002) 9 (1986) 366 12 20 30 31 68 218 290 1620 2780
2026-04-20 20:00 5.06 170 3730 (2002) 9 (1986) 366 12 20 30 31 68 218 290 1620 2780
2026-04-20 19:00 5.07 172 3730 (2002) 9 (1986) 366 12 20 30 31 68 218 290 1620 2780
2026-04-20 18:00 5.08 175 3730 (2002) 9 (1986) 366 12 20 30 31 68 218 290 1620 2780
2026-04-20 17:00 5.11 183 3730 (2002) 9 (1986) 366 12 20 30 31 68 218 290 1620 2780
2026-04-20 16:00 5.11 183 3730 (2002) 9 (1986) 366 12 20 30 31 68 218 290 1620 2780
2026-04-20 15:00 5.13 189 3730 (2002) 9 (1986) 366 12 20 30 31 68 218 290 1620 2780
2026-04-20 14:00 5.16 198 3730 (2002) 9 (1986) 366 12 20 30 31 68 218 290 1620 2780
2026-04-20 13:00 5.16 198 3730 (2002) 9 (1986) 366 12 20 30 31 68 218 290 1620 2780
2026-04-20 12:00 5.18 203 3730 (2002) 9 (1986) 366 12 20 30 31 68 218 290 1620 2780
2026-04-20 11:00 5.21 212 3730 (2002) 9 (1986) 366 12 20 30 31 68 218 290 1620 2780
2026-04-20 10:00 5.22 216 3730 (2002) 9 (1986) 366 12 20 30 31 68 218 290 1620 2780
2026-04-20 09:00 5.25 225 3730 (2002) 9 (1986) 366 12 20 30 31 68 218 290 1620 2780
2026-04-20 08:00 5.25 225 3730 (2002) 9 (1986) 366 12 20 30 31 68 218 290 1620 2780
2026-04-20 07:00 5.28 235 3730 (2002) 9 (1986) 366 12 20 30 31 68 218 290 1620 2780
2026-04-20 06:00 5.31 245 3730 (2002) 9 (1986) 366 12 20 30 31 68 218 290 1620 2780
2026-04-20 05:00 5.33 251 3730 (2002) 9 (1986) 366 12 20 30 31 68 218 290 1620 2780
2026-04-20 04:00 5.36 262 3730 (2002) 9 (1986) 366 12 20 30 31 68 218 290 1620 2780
2026-04-20 03:00 5.39 272 3730 (2002) 9 (1986) 366 12 20 30 31 68 218 290 1620 2780
2026-04-20 02:00 5.41 280 3730 (2002) 9 (1986) 366 12 20 30 31 68 218 290 1620 2780
2026-04-20 01:00 5.45 295 3730 (2002) 9 (1986) 366 12 20 30 31 68 218 290 1620 2780
2026-04-20 00:00 5.48 306 3730 (2002) 9 (1986) 366 12 20 30 31 68 218 290 1620 2780
2026-04-19 23:00 5.52 322 3730 (2002) 9 (1986) 366 12 20 30 31 68 218 290 1620 2780
2026-04-19 22:00 5.56 338 3560 (1970) 8 (1977) 308 10 18 29 34 76 164 265 825 2500
2026-04-19 21:00 5.60 355 3560 (1970) 8 (1977) 308 10 18 29 34 76 164 265 825 2500
2026-04-19 20:00 5.63 368 3560 (1970) 8 (1977) 308 10 18 29 34 76 164 265 825 2500
2026-04-19 19:00 5.68 391 3560 (1970) 8 (1977) 308 10 18 29 34 76 164 265 825 2500
2026-04-19 18:00 5.73 414 3560 (1970) 8 (1977) 308 10 18 29 34 76 164 265 825 2500
2026-04-19 17:00 5.78 438 3560 (1970) 8 (1977) 308 10 18 29 34 76 164 265 825 2500
2026-04-19 16:00 5.81 453 3560 (1970) 8 (1977) 308 10 18 29 34 76 164 265 825 2500
2026-04-19 15:00 5.87 484 3560 (1970) 8 (1977) 308 10 18 29 34 76 164 265 825 2500
2026-04-19 14:00 5.92 511 3560 (1970) 8 (1977) 308 10 18 29 34 76 164 265 825 2500
2026-04-19 13:00 5.98 545 3560 (1970) 8 (1977) 308 10 18 29 34 76 164 265 825 2500
2026-04-19 12:00 6.03 574 3560 (1970) 8 (1977) 308 10 18 29 34 76 164 265 825 2500
2026-04-19 11:00 6.09 609 3560 (1970) 8 (1977) 308 10 18 29 34 76 164 265 825 2500
2026-04-19 10:00 6.15 640 3560 (1970) 8 (1977) 308 10 18 29 34 76 164 265 825 2500
2026-04-19 09:00 6.21 673 3560 (1970) 8 (1977) 308 10 18 29 34 76 164 265 825 2500
2026-04-19 08:00 6.28 712 3560 (1970) 8 (1977) 308 10 18 29 34 76 164 265 825 2500
2026-04-19 07:00 6.35 753 3560 (1970) 8 (1977) 308 10 18 29 34 76 164 265 825 2500
2026-04-19 06:00 6.44 808 3560 (1970) 8 (1977) 308 10 18 29 34 76 164 265 825 2500
2026-04-19 05:00 6.51 851 3560 (1970) 8 (1977) 308 10 18 29 34 76 164 265 825 2500
2026-04-19 04:00 6.61 909 3560 (1970) 8 (1977) 308 10 18 29 34 76 164 265 825 2500
2026-04-19 03:00 6.70 964 3560 (1970) 8 (1977) 308 10 18 29 34 76 164 265 825 2500
2026-04-19 02:00 6.81 1030 3560 (1970) 8 (1977) 308 10 18 29 34 76 164 265 825 2500
2026-04-19 01:00 6.91 1100 3560 (1970) 8 (1977) 308 10 18 29 34 76 164 265 825 2500
2026-04-19 00:00 7.04 1190 3560 (1970) 8 (1977) 308 10 18 29 34 76 164 265 825 2500
2026-04-18 23:00 7.17 1280 3560 (1970) 8 (1977) 308 10 18 29 34 76 164 265 825 2500
2026-04-18 22:00 7.34 1400 2480 (2013) 6 (1976) 177 10 19 29 33 69 138 168 344 1140
2026-04-18 21:00 7.50 1500 2480 (2013) 6 (1976) 177 10 19 29 33 69 138 168 344 1140
2026-04-18 20:00 7.70 1640 2480 (2013) 6 (1976) 177 10 19 29 33 69 138 168 344 1140
2026-04-18 19:00 7.90 1790 2480 (2013) 6 (1976) 177 10 19 29 33 69 138 168 344 1140
2026-04-18 18:00 8.14 1970 2480 (2013) 6 (1976) 177 10 19 29 33 69 138 168 344 1140
2026-04-18 17:00 8.39 2120 2480 (2013) 6 (1976) 177 10 19 29 33 69 138 168 344 1140
2026-04-18 16:00 8.69 2300 2480 (2013) 6 (1976) 177 10 19 29 33 69 138 168 344 1140
2026-04-18 15:00 9.10 2550 2480 (2013) 6 (1976) 177 10 19 29 33 69 138 168 344 1140
2026-04-18 14:00 9.72 2960 2480 (2013) 6 (1976) 177 10 19 29 33 69 138 168 344 1140
2026-04-18 13:00 10.79 3690 2480 (2013) 6 (1976) 177 10 19 29 33 69 138 168 344 1140
2026-04-18 12:00 12.15 4690 2480 (2013) 6 (1976) 177 10 19 29 33 69 138 168 344 1140
2026-04-18 11:00 13.62 5860 2480 (2013) 6 (1976) 177 10 19 29 33 69 138 168 344 1140
2026-04-18 10:00 14.39 6540 2480 (2013) 6 (1976) 177 10 19 29 33 69 138 168 344 1140
2026-04-18 09:00 14.31 6450 2480 (2013) 6 (1976) 177 10 19 29 33 69 138 168 344 1140
2026-04-18 08:00 13.56 5810 2480 (2013) 6 (1976) 177 10 19 29 33 69 138 168 344 1140
2026-04-18 07:00 12.00 4580 2480 (2013) 6 (1976) 177 10 19 29 33 69 138 168 344 1140
2026-04-18 06:00 10.17 3270 2480 (2013) 6 (1976) 177 10 19 29 33 69 138 168 344 1140
2026-04-18 05:00 8.36 2100 2480 (2013) 6 (1976) 177 10 19 29 33 69 138 168 344 1140
2026-04-18 04:00 6.87 1070 2480 (2013) 6 (1976) 177 10 19 29 33 69 138 168 344 1140
2026-04-18 03:00 5.77 434 2480 (2013) 6 (1976) 177 10 19 29 33 69 138 168 344 1140
2026-04-18 02:00 5.33 251 2480 (2013) 6 (1976) 177 10 19 29 33 69 138 168 344 1140
2026-04-18 01:00 5.16 198 2480 (2013) 6 (1976) 177 10 19 29 33 69 138 168 344 1140
2026-04-18 00:00 5.08 175 2480 (2013) 6 (1976) 177 10 19 29 33 69 138 168 344 1140
2026-04-17 23:00 5.07 172 2480 (2013) 6 (1976) 177 10 19 29 33 69 138 168 344 1140
2026-04-17 22:00 5.07 172 881 (1982) 7 (1976) 108 10 18 27 31 61 151 166 249 279
2026-04-17 21:00 5.08 175 881 (1982) 7 (1976) 108 10 18 27 31 61 151 166 249 279
2026-04-17 20:00 5.09 178 881 (1982) 7 (1976) 108 10 18 27 31 61 151 166 249 279
2026-04-17 19:00 5.11 183 881 (1982) 7 (1976) 108 10 18 27 31 61 151 166 249 279
2026-04-17 18:00 5.13 189 881 (1982) 7 (1976) 108 10 18 27 31 61 151 166 249 279
2026-04-17 17:00 5.18 203 881 (1982) 7 (1976) 108 10 18 27 31 61 151 166 249 279
2026-04-17 16:00 5.19 206 881 (1982) 7 (1976) 108 10 18 27 31 61 151 166 249 279
2026-04-17 15:00 5.22 216 881 (1982) 7 (1976) 108 10 18 27 31 61 151 166 249 279
2026-04-17 14:00 5.23 219 881 (1982) 7 (1976) 108 10 18 27 31 61 151 166 249 279
2026-04-17 13:00 5.27 231 881 (1982) 7 (1976) 108 10 18 27 31 61 151 166 249 279
2026-04-17 12:00 5.29 238 881 (1982) 7 (1976) 108 10 18 27 31 61 151 166 249 279
2026-04-17 11:00 5.32 248 881 (1982) 7 (1976) 108 10 18 27 31 61 151 166 249 279
2026-04-17 10:00 5.35 258 881 (1982) 7 (1976) 108 10 18 27 31 61 151 166 249 279
2026-04-17 09:00 5.37 265 881 (1982) 7 (1976) 108 10 18 27 31 61 151 166 249 279
2026-04-17 08:00 5.42 283 881 (1982) 7 (1976) 108 10 18 27 31 61 151 166 249 279
2026-04-17 07:00 5.45 295 881 (1982) 7 (1976) 108 10 18 27 31 61 151 166 249 279
2026-04-17 06:00 5.49 310 881 (1982) 7 (1976) 108 10 18 27 31 61 151 166 249 279
2026-04-17 05:00 5.53 326 881 (1982) 7 (1976) 108 10 18 27 31 61 151 166 249 279
2026-04-17 04:00 5.58 347 881 (1982) 7 (1976) 108 10 18 27 31 61 151 166 249 279
2026-04-17 03:00 5.63 368 881 (1982) 7 (1976) 108 10 18 27 31 61 151 166 249 279
2026-04-17 02:00 5.68 391 881 (1982) 7 (1976) 108 10 18 27 31 61 151 166 249 279
2026-04-17 01:00 5.73 414 881 (1982) 7 (1976) 108 10 18 27 31 61 151 166 249 279
2026-04-17 00:00 5.79 443 881 (1982) 7 (1976) 108 10 18 27 31 61 151 166 249 279
2026-04-16 23:00 5.86 479 881 (1982) 7 (1976) 108 10 18 27 31 61 151 166 249 279
2026-04-16 22:00 5.93 517 2090 (2012) 8 (1976) 192 10 20 29 30 68 187 228 475 872
2026-04-16 21:00 6.00 556 2090 (2012) 8 (1976) 192 10 20 29 30 68 187 228 475 872
2026-04-16 20:00 6.09 609 2090 (2012) 8 (1976) 192 10 20 29 30 68 187 228 475 872
2026-04-16 19:00 6.18 657 2090 (2012) 8 (1976) 192 10 20 29 30 68 187 228 475 872
2026-04-16 18:00 6.28 712 2090 (2012) 8 (1976) 192 10 20 29 30 68 187 228 475 872
2026-04-16 17:00 6.40 783 2090 (2012) 8 (1976) 192 10 20 29 30 68 187 228 475 872
2026-04-16 16:00 6.53 862 2090 (2012) 8 (1976) 192 10 20 29 30 68 187 228 475 872
2026-04-16 15:00 6.66 939 2090 (2012) 8 (1976) 192 10 20 29 30 68 187 228 475 872
2026-04-16 14:00 6.82 1040 2090 (2012) 8 (1976) 192 10 20 29 30 68 187 228 475 872
2026-04-16 13:00 6.98 1150 2090 (2012) 8 (1976) 192 10 20 29 30 68 187 228 475 872
2026-04-16 12:00 7.13 1250 2090 (2012) 8 (1976) 192 10 20 29 30 68 187 228 475 872
2026-04-16 11:00 7.25 1340 2090 (2012) 8 (1976) 192 10 20 29 30 68 187 228 475 872
2026-04-16 10:00 7.28 1360 2090 (2012) 8 (1976) 192 10 20 29 30 68 187 228 475 872
2026-04-16 09:00 7.43 1460 2090 (2012) 8 (1976) 192 10 20 29 30 68 187 228 475 872
2026-04-16 08:00 7.66 1610 2090 (2012) 8 (1976) 192 10 20 29 30 68 187 228 475 872
2026-04-16 07:00 7.88 1770 2090 (2012) 8 (1976) 192 10 20 29 30 68 187 228 475 872
2026-04-16 06:00 8.09 1930 2090 (2012) 8 (1976) 192 10 20 29 30 68 187 228 475 872
2026-04-16 05:00 8.21 2010 2090 (2012) 8 (1976) 192 10 20 29 30 68 187 228 475 872
2026-04-16 04:00 8.22 2020 2090 (2012) 8 (1976) 192 10 20 29 30 68 187 228 475 872
2026-04-16 03:00 8.21 2010 2090 (2012) 8 (1976) 192 10 20 29 30 68 187 228 475 872
2026-04-16 02:00 8.15 1970 2090 (2012) 8 (1976) 192 10 20 29 30 68 187 228 475 872
2026-04-16 01:00 8.14 1970 2090 (2012) 8 (1976) 192 10 20 29 30 68 187 228 475 872
2026-04-16 00:00 7.95 1820 2090 (2012) 8 (1976) 192 10 20 29 30 68 187 228 475 872
2026-04-15 23:00 7.09 1220 2090 (2012) 8 (1976) 192 10 20 29 30 68 187 228 475 872
2026-04-15 22:00 5.71 405 7520 (1991) 10 (1976) 386 10 21 28 33 84 248 311 672 2440
2026-04-15 21:00 4.80 110 7520 (1991) 10 (1976) 386 10 21 28 33 84 248 311 672 2440
2026-04-15 20:00 4.26 37 7520 (1991) 10 (1976) 386 10 21 28 33 84 248 311 672 2440
2026-04-15 19:00 4.10 25 7520 (1991) 10 (1976) 386 10 21 28 33 84 248 311 672 2440
2026-04-15 18:00 4.10 25 7520 (1991) 10 (1976) 386 10 21 28 33 84 248 311 672 2440
2026-04-15 17:00 4.09 24 7520 (1991) 10 (1976) 386 10 21 28 33 84 248 311 672 2440
2026-04-15 16:00 4.09 24 7520 (1991) 10 (1976) 386 10 21 28 33 84 248 311 672 2440
2026-04-15 15:00 4.09 24 7520 (1991) 10 (1976) 386 10 21 28 33 84 248 311 672 2440
2026-04-15 14:00 4.09 24 7520 (1991) 10 (1976) 386 10 21 28 33 84 248 311 672 2440
2026-04-15 13:00 4.09 24 7520 (1991) 10 (1976) 386 10 21 28 33 84 248 311 672 2440
2026-04-15 12:00 4.08 24 7520 (1991) 10 (1976) 386 10 21 28 33 84 248 311 672 2440
2026-04-15 11:00 4.09 24 7520 (1991) 10 (1976) 386 10 21 28 33 84 248 311 672 2440
2026-04-15 10:00 4.08 24 7520 (1991) 10 (1976) 386 10 21 28 33 84 248 311 672 2440
2026-04-15 09:00 4.08 24 7520 (1991) 10 (1976) 386 10 21 28 33 84 248 311 672 2440
2026-04-15 08:00 4.07 23 7520 (1991) 10 (1976) 386 10 21 28 33 84 248 311 672 2440
2026-04-15 07:00 4.07 23 7520 (1991) 10 (1976) 386 10 21 28 33 84 248 311 672 2440
2026-04-15 06:00 4.07 23 7520 (1991) 10 (1976) 386 10 21 28 33 84 248 311 672 2440
2026-04-15 05:00 4.07 23 7520 (1991) 10 (1976) 386 10 21 28 33 84 248 311 672 2440
2026-04-15 04:00 4.08 24 7520 (1991) 10 (1976) 386 10 21 28 33 84 248 311 672 2440
2026-04-15 03:00 4.08 24 7520 (1991) 10 (1976) 386 10 21 28 33 84 248 311 672 2440
2026-04-15 02:00 4.08 24 7520 (1991) 10 (1976) 386 10 21 28 33 84 248 311 672 2440
2026-04-15 01:00 4.08 24 7520 (1991) 10 (1976) 386 10 21 28 33 84 248 311 672 2440
2026-04-15 00:00 4.09 24 7520 (1991) 10 (1976) 386 10 21 28 33 84 248 311 672 2440
2026-04-14 23:00 4.09 24 7520 (1991) 10 (1976) 386 10 21 28 33 84 248 311 672 2440
2026-04-14 22:00 4.09 24 4010 (2012) 9 (1976) 360 11 22 29 34 69 268 389 1490 2270
2026-04-14 21:00 4.09 24 4010 (2012) 9 (1976) 360 11 22 29 34 69 268 389 1490 2270
2026-04-14 20:00 4.10 25 4010 (2012) 9 (1976) 360 11 22 29 34 69 268 389 1490 2270
2026-04-14 19:00 4.10 25 4010 (2012) 9 (1976) 360 11 22 29 34 69 268 389 1490 2270
2026-04-14 18:00 4.10 25 4010 (2012) 9 (1976) 360 11 22 29 34 69 268 389 1490 2270
2026-04-14 17:00 4.11 26 4010 (2012) 9 (1976) 360 11 22 29 34 69 268 389 1490 2270
2026-04-14 16:00 4.12 26 4010 (2012) 9 (1976) 360 11 22 29 34 69 268 389 1490 2270
2026-04-14 15:00 4.12 26 4010 (2012) 9 (1976) 360 11 22 29 34 69 268 389 1490 2270
2026-04-14 14:00 4.12 26 4010 (2012) 9 (1976) 360 11 22 29 34 69 268 389 1490 2270
2026-04-14 13:00 4.12 26 4010 (2012) 9 (1976) 360 11 22 29 34 69 268 389 1490 2270
2026-04-14 12:00 4.13 27 4010 (2012) 9 (1976) 360 11 22 29 34 69 268 389 1490 2270
2026-04-14 10:00 4.13 27 4010 (2012) 9 (1976) 360 11 22 29 34 69 268 389 1490 2270
2026-04-14 09:00 4.12 26 4010 (2012) 9 (1976) 360 11 22 29 34 69 268 389 1490 2270
2026-04-14 08:00 4.13 27 4010 (2012) 9 (1976) 360 11 22 29 34 69 268 389 1490 2270
2026-04-14 07:00 4.13 27 4010 (2012) 9 (1976) 360 11 22 29 34 69 268 389 1490 2270
2026-04-14 06:00 4.13 27 4010 (2012) 9 (1976) 360 11 22 29 34 69 268 389 1490 2270
2026-04-14 05:00 4.14 28 4010 (2012) 9 (1976) 360 11 22 29 34 69 268 389 1490 2270
2026-04-14 04:00 4.14 28 4010 (2012) 9 (1976) 360 11 22 29 34 69 268 389 1490 2270
2026-04-14 03:00 4.14 28 4010 (2012) 9 (1976) 360 11 22 29 34 69 268 389 1490 2270
2026-04-14 02:00 4.14 28 4010 (2012) 9 (1976) 360 11 22 29 34 69 268 389 1490 2270
2026-04-14 01:00 4.13 27 4010 (2012) 9 (1976) 360 11 22 29 34 69 268 389 1490 2270
2026-04-14 00:00 4.14 28 4010 (2012) 9 (1976) 360 11 22 29 34 69 268 389 1490 2270
2026-04-13 23:00 4.13 27 4010 (2012) 9 (1976) 360 11 22 29 34 69 268 389 1490 2270
2026-04-13 22:00 4.14 28 2980 (1987) 8 (1976) 196 11 18 29 32 68 148 211 318 406
2026-04-13 21:00 4.14 28 2980 (1987) 8 (1976) 196 11 18 29 32 68 148 211 318 406
2026-04-13 20:00 4.14 28 2980 (1987) 8 (1976) 196 11 18 29 32 68 148 211 318 406
2026-04-13 19:00 4.14 28 2980 (1987) 8 (1976) 196 11 18 29 32 68 148 211 318 406
2026-04-13 18:00 4.15 29 2980 (1987) 8 (1976) 196 11 18 29 32 68 148 211 318 406
2026-04-13 17:00 4.16 29 2980 (1987) 8 (1976) 196 11 18 29 32 68 148 211 318 406
2026-04-13 16:00 4.16 29 2980 (1987) 8 (1976) 196 11 18 29 32 68 148 211 318 406
2026-04-13 15:00 4.16 29 2980 (1987) 8 (1976) 196 11 18 29 32 68 148 211 318 406
2026-04-13 14:00 4.17 30 2980 (1987) 8 (1976) 196 11 18 29 32 68 148 211 318 406
2026-04-13 13:00 4.16 29 2980 (1987) 8 (1976) 196 11 18 29 32 68 148 211 318 406
2026-04-13 12:00 4.18 31 2980 (1987) 8 (1976) 196 11 18 29 32 68 148 211 318 406
2026-04-13 11:00 4.18 31 2980 (1987) 8 (1976) 196 11 18 29 32 68 148 211 318 406
2026-04-13 10:00 4.17 30 2980 (1987) 8 (1976) 196 11 18 29 32 68 148 211 318 406
2026-04-13 09:00 4.18 31 2980 (1987) 8 (1976) 196 11 18 29 32 68 148 211 318 406
2026-04-13 08:00 4.17 30 2980 (1987) 8 (1976) 196 11 18 29 32 68 148 211 318 406
2026-04-13 07:00 4.18 31 2980 (1987) 8 (1976) 196 11 18 29 32 68 148 211 318 406
2026-04-13 06:00 4.18 31 2980 (1987) 8 (1976) 196 11 18 29 32 68 148 211 318 406
2026-04-13 05:00 4.18 31 2980 (1987) 8 (1976) 196 11 18 29 32 68 148 211 318 406
2026-04-13 04:00 4.19 32 2980 (1987) 8 (1976) 196 11 18 29 32 68 148 211 318 406
2026-04-13 03:00 4.19 32 2980 (1987) 8 (1976) 196 11 18 29 32 68 148 211 318 406
2026-04-13 02:00 4.19 32 2980 (1987) 8 (1976) 196 11 18 29 32 68 148 211 318 406
2026-04-13 01:00 4.20 32 2980 (1987) 8 (1976) 196 11 18 29 32 68 148 211 318 406
2026-04-13 00:00 4.20 32 2980 (1987) 8 (1976) 196 11 18 29 32 68 148 211 318 406
2026-04-12 23:00 4.20 32 2980 (1987) 8 (1976) 196 11 18 29 32 68 148 211 318 406
2026-04-12 22:00 4.20 32 2670 (1994) 10 (1976) 205 11 12 29 33 54 151 226 481 1420
2026-04-12 21:00 4.20 32 2670 (1994) 10 (1976) 205 11 12 29 33 54 151 226 481 1420
2026-04-12 20:00 4.21 33 2670 (1994) 10 (1976) 205 11 12 29 33 54 151 226 481 1420
2026-04-12 19:00 4.21 33 2670 (1994) 10 (1976) 205 11 12 29 33 54 151 226 481 1420
2026-04-12 18:00 4.22 34 2670 (1994) 10 (1976) 205 11 12 29 33 54 151 226 481 1420
2026-04-12 17:00 4.22 34 2670 (1994) 10 (1976) 205 11 12 29 33 54 151 226 481 1420
2026-04-12 16:00 4.23 35 2670 (1994) 10 (1976) 205 11 12 29 33 54 151 226 481 1420
2026-04-12 15:00 4.23 35 2670 (1994) 10 (1976) 205 11 12 29 33 54 151 226 481 1420
2026-04-12 14:00 4.23 35 2670 (1994) 10 (1976) 205 11 12 29 33 54 151 226 481 1420
2026-04-12 13:00 4.24 36 2670 (1994) 10 (1976) 205 11 12 29 33 54 151 226 481 1420
2026-04-12 12:00 4.24 36 2670 (1994) 10 (1976) 205 11 12 29 33 54 151 226 481 1420
2026-04-12 11:00 4.24 36 2670 (1994) 10 (1976) 205 11 12 29 33 54 151 226 481 1420
2026-04-12 10:00 4.24 36 2670 (1994) 10 (1976) 205 11 12 29 33 54 151 226 481 1420
2026-04-12 09:00 4.25 36 2670 (1994) 10 (1976) 205 11 12 29 33 54 151 226 481 1420
2026-04-12 08:00 4.24 36 2670 (1994) 10 (1976) 205 11 12 29 33 54 151 226 481 1420
2026-04-12 07:00 4.24 36 2670 (1994) 10 (1976) 205 11 12 29 33 54 151 226 481 1420
2026-04-12 06:00 4.24 36 2670 (1994) 10 (1976) 205 11 12 29 33 54 151 226 481 1420
2026-04-12 05:00 4.24 36 2670 (1994) 10 (1976) 205 11 12 29 33 54 151 226 481 1420
2026-04-12 04:00 4.25 36 2670 (1994) 10 (1976) 205 11 12 29 33 54 151 226 481 1420
2026-04-12 03:00 4.25 36 2670 (1994) 10 (1976) 205 11 12 29 33 54 151 226 481 1420
2026-04-12 02:00 4.25 36 2670 (1994) 10 (1976) 205 11 12 29 33 54 151 226 481 1420
2026-04-12 01:00 4.25 36 2670 (1994) 10 (1976) 205 11 12 29 33 54 151 226 481 1420
2026-04-12 00:00 4.26 37 2670 (1994) 10 (1976) 205 11 12 29 33 54 151 226 481 1420
2026-04-11 23:00 4.25 36 2670 (1994) 10 (1976) 205 11 12 29 33 54 151 226 481 1420
2026-04-11 22:00 4.25 36 11300 (1994) 11 (1976) 578 12 13 28 34 55 209 308 1040 2120
2026-04-11 21:00 4.25 36 11300 (1994) 11 (1976) 578 12 13 28 34 55 209 308 1040 2120
2026-04-11 20:00 4.25 36 11300 (1994) 11 (1976) 578 12 13 28 34 55 209 308 1040 2120
2026-04-11 19:00 4.25 36 11300 (1994) 11 (1976) 578 12 13 28 34 55 209 308 1040 2120
2026-04-11 18:00 4.26 37 11300 (1994) 11 (1976) 578 12 13 28 34 55 209 308 1040 2120
2026-04-11 17:00 4.26 37 11300 (1994) 11 (1976) 578 12 13 28 34 55 209 308 1040 2120
2026-04-11 16:00 4.26 37 11300 (1994) 11 (1976) 578 12 13 28 34 55 209 308 1040 2120
2026-04-11 15:00 4.27 38 11300 (1994) 11 (1976) 578 12 13 28 34 55 209 308 1040 2120
2026-04-11 14:00 4.27 38 11300 (1994) 11 (1976) 578 12 13 28 34 55 209 308 1040 2120
2026-04-11 13:00 4.27 38 11300 (1994) 11 (1976) 578 12 13 28 34 55 209 308 1040 2120
2026-04-11 12:00 4.27 38 11300 (1994) 11 (1976) 578 12 13 28 34 55 209 308 1040 2120
2026-04-11 11:00 4.28 39 11300 (1994) 11 (1976) 578 12 13 28 34 55 209 308 1040 2120
2026-04-11 10:00 4.28 39 11300 (1994) 11 (1976) 578 12 13 28 34 55 209 308 1040 2120
2026-04-11 09:00 4.28 39 11300 (1994) 11 (1976) 578 12 13 28 34 55 209 308 1040 2120
2026-04-11 08:00 4.28 39 11300 (1994) 11 (1976) 578 12 13 28 34 55 209 308 1040 2120
2026-04-11 07:00 4.28 39 11300 (1994) 11 (1976) 578 12 13 28 34 55 209 308 1040 2120
2026-04-11 06:00 4.28 39 11300 (1994) 11 (1976) 578 12 13 28 34 55 209 308 1040 2120
2026-04-11 05:00 4.29 40 11300 (1994) 11 (1976) 578 12 13 28 34 55 209 308 1040 2120
2026-04-11 04:00 4.29 40 11300 (1994) 11 (1976) 578 12 13 28 34 55 209 308 1040 2120
2026-04-11 03:00 4.29 40 11300 (1994) 11 (1976) 578 12 13 28 34 55 209 308 1040 2120
2026-04-11 02:00 4.29 40 11300 (1994) 11 (1976) 578 12 13 28 34 55 209 308 1040 2120
2026-04-11 01:00 4.30 41 11300 (1994) 11 (1976) 578 12 13 28 34 55 209 308 1040 2120
2026-04-11 00:00 4.30 41 11300 (1994) 11 (1976) 578 12 13 28 34 55 209 308 1040 2120
2026-04-10 23:00 4.31 42 11300 (1994) 11 (1976) 578 12 13 28 34 55 209 308 1040 2120
2026-04-10 22:00 4.31 42 7030 (1994) 11 (1966) 357 11 13 26 31 52 131 193 801 1460
2026-04-10 21:00 4.32 43 7030 (1994) 11 (1966) 357 11 13 26 31 52 131 193 801 1460
2026-04-10 20:00 4.32 43 7030 (1994) 11 (1966) 357 11 13 26 31 52 131 193 801 1460
2026-04-10 19:00 4.32 43 7030 (1994) 11 (1966) 357 11 13 26 31 52 131 193 801 1460
2026-04-10 18:00 4.33 44 7030 (1994) 11 (1966) 357 11 13 26 31 52 131 193 801 1460
2026-04-10 17:00 4.33 44 7030 (1994) 11 (1966) 357 11 13 26 31 52 131 193 801 1460
2026-04-10 16:00 4.34 44 7030 (1994) 11 (1966) 357 11 13 26 31 52 131 193 801 1460
2026-04-10 15:00 4.34 44 7030 (1994) 11 (1966) 357 11 13 26 31 52 131 193 801 1460
2026-04-10 14:00 4.34 44 7030 (1994) 11 (1966) 357 11 13 26 31 52 131 193 801 1460
2026-04-10 13:00 4.34 44 7030 (1994) 11 (1966) 357 11 13 26 31 52 131 193 801 1460
2026-04-10 12:00 4.35 45 7030 (1994) 11 (1966) 357 11 13 26 31 52 131 193 801 1460
2026-04-10 11:00 4.35 45 7030 (1994) 11 (1966) 357 11 13 26 31 52 131 193 801 1460
2026-04-10 10:00 4.35 45 7030 (1994) 11 (1966) 357 11 13 26 31 52 131 193 801 1460
2026-04-10 09:00 4.36 46 7030 (1994) 11 (1966) 357 11 13 26 31 52 131 193 801 1460
2026-04-10 08:00 4.35 45 7030 (1994) 11 (1966) 357 11 13 26 31 52 131 193 801 1460
2026-04-10 07:00 4.36 46 7030 (1994) 11 (1966) 357 11 13 26 31 52 131 193 801 1460
2026-04-10 06:00 4.36 46 7030 (1994) 11 (1966) 357 11 13 26 31 52 131 193 801 1460
2026-04-10 05:00 4.37 47 7030 (1994) 11 (1966) 357 11 13 26 31 52 131 193 801 1460
2026-04-10 04:00 4.37 47 7030 (1994) 11 (1966) 357 11 13 26 31 52 131 193 801 1460
2026-04-10 03:00 4.38 48 7030 (1994) 11 (1966) 357 11 13 26 31 52 131 193 801 1460
2026-04-10 02:00 4.38 48 7030 (1994) 11 (1966) 357 11 13 26 31 52 131 193 801 1460
2026-04-10 01:00 4.38 48 7030 (1994) 11 (1966) 357 11 13 26 31 52 131 193 801 1460
2026-04-10 00:00 4.39 49 7030 (1994) 11 (1966) 357 11 13 26 31 52 131 193 801 1460
2026-04-09 23:00 4.39 49 7030 (1994) 11 (1966) 357 11 13 26 31 52 131 193 801 1460
2026-04-09 22:00 4.40 50 999 (1973) 10 (1967) 101 12 14 27 32 57 98 112 200 382
2026-04-09 21:00 4.40 50 999 (1973) 10 (1967) 101 12 14 27 32 57 98 112 200 382
2026-04-09 20:00 4.41 52 999 (1973) 10 (1967) 101 12 14 27 32 57 98 112 200 382
2026-04-09 19:00 4.41 52 999 (1973) 10 (1967) 101 12 14 27 32 57 98 112 200 382
2026-04-09 18:00 4.42 53 999 (1973) 10 (1967) 101 12 14 27 32 57 98 112 200 382
2026-04-09 17:00 4.42 53 999 (1973) 10 (1967) 101 12 14 27 32 57 98 112 200 382
2026-04-09 16:00 4.43 54 999 (1973) 10 (1967) 101 12 14 27 32 57 98 112 200 382
2026-04-09 15:00 4.44 55 999 (1973) 10 (1967) 101 12 14 27 32 57 98 112 200 382
2026-04-09 14:00 4.44 55 999 (1973) 10 (1967) 101 12 14 27 32 57 98 112 200 382
2026-04-09 13:00 4.45 57 999 (1973) 10 (1967) 101 12 14 27 32 57 98 112 200 382
2026-04-09 12:00 4.46 58 999 (1973) 10 (1967) 101 12 14 27 32 57 98 112 200 382
2026-04-09 11:00 4.46 58 999 (1973) 10 (1967) 101 12 14 27 32 57 98 112 200 382
2026-04-09 10:00 4.46 58 999 (1973) 10 (1967) 101 12 14 27 32 57 98 112 200 382
2026-04-09 09:00 4.47 59 999 (1973) 10 (1967) 101 12 14 27 32 57 98 112 200 382
2026-04-09 08:00 4.46 58 999 (1973) 10 (1967) 101 12 14 27 32 57 98 112 200 382
2026-04-09 07:00 4.47 59 999 (1973) 10 (1967) 101 12 14 27 32 57 98 112 200 382
2026-04-09 06:00 4.48 60 999 (1973) 10 (1967) 101 12 14 27 32 57 98 112 200 382
2026-04-09 05:00 4.48 60 999 (1973) 10 (1967) 101 12 14 27 32 57 98 112 200 382
2026-04-09 04:00 4.49 62 999 (1973) 10 (1967) 101 12 14 27 32 57 98 112 200 382
2026-04-09 03:00 4.49 62 999 (1973) 10 (1967) 101 12 14 27 32 57 98 112 200 382
2026-04-09 02:00 4.49 62 999 (1973) 10 (1967) 101 12 14 27 32 57 98 112 200 382
2026-04-09 01:00 4.50 63 999 (1973) 10 (1967) 101 12 14 27 32 57 98 112 200 382
2026-04-09 00:00 4.51 64 999 (1973) 10 (1967) 101 12 14 27 32 57 98 112 200 382
2026-04-08 23:00 4.51 64 999 (1973) 10 (1967) 101 12 14 27 32 57 98 112 200 382
2026-04-08 22:00 4.52 66 1320 (1980) 11 (1967) 120 14 15 31 35 61 103 133 193 521
2026-04-08 21:00 4.52 66 1320 (1980) 11 (1967) 120 14 15 31 35 61 103 133 193 521
2026-04-08 20:00 4.53 67 1320 (1980) 11 (1967) 120 14 15 31 35 61 103 133 193 521
2026-04-08 19:00 4.54 68 1320 (1980) 11 (1967) 120 14 15 31 35 61 103 133 193 521
2026-04-08 18:00 4.54 68 1320 (1980) 11 (1967) 120 14 15 31 35 61 103 133 193 521
2026-04-08 17:00 4.55 70 1320 (1980) 11 (1967) 120 14 15 31 35 61 103 133 193 521
2026-04-08 16:00 4.56 71 1320 (1980) 11 (1967) 120 14 15 31 35 61 103 133 193 521
2026-04-08 15:00 4.56 71 1320 (1980) 11 (1967) 120 14 15 31 35 61 103 133 193 521
2026-04-08 14:00 4.57 73 1320 (1980) 11 (1967) 120 14 15 31 35 61 103 133 193 521
2026-04-08 13:00 4.57 73 1320 (1980) 11 (1967) 120 14 15 31 35 61 103 133 193 521
2026-04-08 12:00 4.59 76 1320 (1980) 11 (1967) 120 14 15 31 35 61 103 133 193 521
2026-04-08 11:00 4.59 76 1320 (1980) 11 (1967) 120 14 15 31 35 61 103 133 193 521
2026-04-08 10:00 4.60 77 1320 (1980) 11 (1967) 120 14 15 31 35 61 103 133 193 521
2026-04-08 09:00 4.60 77 1320 (1980) 11 (1967) 120 14 15 31 35 61 103 133 193 521
2026-04-08 08:00 4.60 77 1320 (1980) 11 (1967) 120 14 15 31 35 61 103 133 193 521
2026-04-08 07:00 4.61 79 1320 (1980) 11 (1967) 120 14 15 31 35 61 103 133 193 521
2026-04-08 06:00 4.61 79 1320 (1980) 11 (1967) 120 14 15 31 35 61 103 133 193 521
2026-04-08 05:00 4.62 80 1320 (1980) 11 (1967) 120 14 15 31 35 61 103 133 193 521
2026-04-08 04:00 4.62 80 1320 (1980) 11 (1967) 120 14 15 31 35 61 103 133 193 521
2026-04-08 03:00 4.63 82 1320 (1980) 11 (1967) 120 14 15 31 35 61 103 133 193 521
2026-04-08 02:00 4.63 82 1320 (1980) 11 (1967) 120 14 15 31 35 61 103 133 193 521
2026-04-08 01:00 4.64 83 1320 (1980) 11 (1967) 120 14 15 31 35 61 103 133 193 521
2026-04-08 00:00 4.64 83 1320 (1980) 11 (1967) 120 14 15 31 35 61 103 133 193 521
2026-04-07 23:00 4.65 85 1320 (1980) 11 (1967) 120 14 15 31 35 61 103 133 193 521
2026-04-07 22:00 4.65 85 451 (2003) 12 (1966) 95 14 17 35 36 62 122 133 251 287
2026-04-07 21:00 4.66 87 451 (2003) 12 (1966) 95 14 17 35 36 62 122 133 251 287
2026-04-07 20:00 4.67 88 451 (2003) 12 (1966) 95 14 17 35 36 62 122 133 251 287
2026-04-07 19:00 4.67 88 451 (2003) 12 (1966) 95 14 17 35 36 62 122 133 251 287
2026-04-07 18:00 4.68 90 451 (2003) 12 (1966) 95 14 17 35 36 62 122 133 251 287
2026-04-07 17:00 4.69 92 451 (2003) 12 (1966) 95 14 17 35 36 62 122 133 251 287
2026-04-07 16:00 4.69 92 451 (2003) 12 (1966) 95 14 17 35 36 62 122 133 251 287
2026-04-07 15:00 4.71 95 451 (2003) 12 (1966) 95 14 17 35 36 62 122 133 251 287
2026-04-07 14:00 4.71 95 451 (2003) 12 (1966) 95 14 17 35 36 62 122 133 251 287
2026-04-07 13:00 4.72 97 451 (2003) 12 (1966) 95 14 17 35 36 62 122 133 251 287
2026-04-07 12:00 4.73 99 451 (2003) 12 (1966) 95 14 17 35 36 62 122 133 251 287
2026-04-07 11:00 4.74 101 451 (2003) 12 (1966) 95 14 17 35 36 62 122 133 251 287
2026-04-07 10:00 4.75 103 451 (2003) 12 (1966) 95 14 17 35 36 62 122 133 251 287
2026-04-07 09:00 4.76 104 451 (2003) 12 (1966) 95 14 17 35 36 62 122 133 251 287
2026-04-07 08:00 4.76 104 451 (2003) 12 (1966) 95 14 17 35 36 62 122 133 251 287
2026-04-07 07:00 4.77 106 451 (2003) 12 (1966) 95 14 17 35 36 62 122 133 251 287
2026-04-07 06:00 4.78 108 451 (2003) 12 (1966) 95 14 17 35 36 62 122 133 251 287
2026-04-07 05:00 4.79 110 451 (2003) 12 (1966) 95 14 17 35 36 62 122 133 251 287
2026-04-07 04:00 4.80 112 451 (2003) 12 (1966) 95 14 17 35 36 62 122 133 251 287
2026-04-07 03:00 4.81 114 451 (2003) 12 (1966) 95 14 17 35 36 62 122 133 251 287
2026-04-07 02:00 4.81 114 451 (2003) 12 (1966) 95 14 17 35 36 62 122 133 251 287
2026-04-07 01:00 4.82 116 451 (2003) 12 (1966) 95 14 17 35 36 62 122 133 251 287
2026-04-07 00:00 4.83 118 451 (2003) 12 (1966) 95 14 17 35 36 62 122 133 251 287
2026-04-06 23:00 4.85 122 451 (2003) 12 (1966) 95 14 17 35 36 62 122 133 251 287
2026-04-06 22:00 4.86 125 1250 (2025) 12 (1966) 144 15 18 34 38 70 164 205 400 636
2026-04-06 21:00 4.87 127 1250 (2025) 12 (1966) 144 15 18 34 38 70 164 205 400 636
2026-04-06 20:00 4.87 127 1250 (2025) 12 (1966) 144 15 18 34 38 70 164 205 400 636
2026-04-06 19:00 4.88 129 1250 (2025) 12 (1966) 144 15 18 34 38 70 164 205 400 636
2026-04-06 18:00 4.90 133 1250 (2025) 12 (1966) 144 15 18 34 38 70 164 205 400 636
2026-04-06 17:00 4.91 136 1250 (2025) 12 (1966) 144 15 18 34 38 70 164 205 400 636
2026-04-06 16:00 4.92 138 1250 (2025) 12 (1966) 144 15 18 34 38 70 164 205 400 636
2026-04-06 15:00 4.94 143 1250 (2025) 12 (1966) 144 15 18 34 38 70 164 205 400 636
2026-04-06 14:00 4.94 143 1250 (2025) 12 (1966) 144 15 18 34 38 70 164 205 400 636
2026-04-06 13:00 4.96 147 1250 (2025) 12 (1966) 144 15 18 34 38 70 164 205 400 636
2026-04-06 12:00 4.98 152 1250 (2025) 12 (1966) 144 15 18 34 38 70 164 205 400 636
2026-04-06 11:00 4.98 152 1250 (2025) 12 (1966) 144 15 18 34 38 70 164 205 400 636
2026-04-06 10:00 5.00 157 1250 (2025) 12 (1966) 144 15 18 34 38 70 164 205 400 636
2026-04-06 09:00 5.01 159 1250 (2025) 12 (1966) 144 15 18 34 38 70 164 205 400 636
2026-04-06 08:00 5.02 162 1250 (2025) 12 (1966) 144 15 18 34 38 70 164 205 400 636
2026-04-06 07:00 5.03 165 1250 (2025) 12 (1966) 144 15 18 34 38 70 164 205 400 636
2026-04-06 06:00 5.05 170 1250 (2025) 12 (1966) 144 15 18 34 38 70 164 205 400 636
2026-04-06 05:00 5.07 175 1250 (2025) 12 (1966) 144 15 18 34 38 70 164 205 400 636
2026-04-06 04:00 5.08 178 1250 (2025) 12 (1966) 144 15 18 34 38 70 164 205 400 636
2026-04-06 03:00 5.11 186 1250 (2025) 12 (1966) 144 15 18 34 38 70 164 205 400 636
2026-04-06 02:00 5.12 189 1250 (2025) 12 (1966) 144 15 18 34 38 70 164 205 400 636
2026-04-06 01:00 5.16 200 1250 (2025) 12 (1966) 144 15 18 34 38 70 164 205 400 636
2026-04-06 00:00 5.19 209 1250 (2025) 12 (1966) 144 15 18 34 38 70 164 205 400 636
2026-04-05 23:00 5.20 212 1250 (2025) 12 (1966) 144 15 18 34 38 70 164 205 400 636
2026-04-05 22:00 5.24 225 4820 (2025) 13 (1966) 280 16 21 32 41 78 200 236 395 2040
2026-04-05 21:00 5.26 231 4820 (2025) 13 (1966) 280 16 21 32 41 78 200 236 395 2040
2026-04-05 20:00 5.29 241 4820 (2025) 13 (1966) 280 16 21 32 41 78 200 236 395 2040
2026-04-05 19:00 5.33 254 4820 (2025) 13 (1966) 280 16 21 32 41 78 200 236 395 2040
2026-04-05 18:00 5.36 265 4820 (2025) 13 (1966) 280 16 21 32 41 78 200 236 395 2040
2026-04-05 17:00 5.39 275 4820 (2025) 13 (1966) 280 16 21 32 41 78 200 236 395 2040
2026-04-05 16:00 5.43 290 4820 (2025) 13 (1966) 280 16 21 32 41 78 200 236 395 2040
2026-04-05 15:00 5.47 305 4820 (2025) 13 (1966) 280 16 21 32 41 78 200 236 395 2040
2026-04-05 14:00 5.51 321 4820 (2025) 13 (1966) 280 16 21 32 41 78 200 236 395 2040
2026-04-05 13:00 5.57 345 4820 (2025) 13 (1966) 280 16 21 32 41 78 200 236 395 2040
2026-04-05 12:00 5.61 362 4820 (2025) 13 (1966) 280 16 21 32 41 78 200 236 395 2040
2026-04-05 11:00 5.67 389 4820 (2025) 13 (1966) 280 16 21 32 41 78 200 236 395 2040
2026-04-05 10:00 5.71 407 4820 (2025) 13 (1966) 280 16 21 32 41 78 200 236 395 2040
2026-04-05 09:00 5.77 436 4820 (2025) 13 (1966) 280 16 21 32 41 78 200 236 395 2040
2026-04-05 08:00 5.82 461 4820 (2025) 13 (1966) 280 16 21 32 41 78 200 236 395 2040
2026-04-05 07:00 5.88 492 4820 (2025) 13 (1966) 280 16 21 32 41 78 200 236 395 2040
2026-04-05 06:00 5.95 530 4820 (2025) 13 (1966) 280 16 21 32 41 78 200 236 395 2040
2026-04-05 05:00 6.02 570 4820 (2025) 13 (1966) 280 16 21 32 41 78 200 236 395 2040
2026-04-05 04:00 6.11 620 4820 (2025) 13 (1966) 280 16 21 32 41 78 200 236 395 2040
2026-04-05 03:00 6.20 669 4820 (2025) 13 (1966) 280 16 21 32 41 78 200 236 395 2040
2026-04-05 02:00 6.29 719 4820 (2025) 13 (1966) 280 16 21 32 41 78 200 236 395 2040
2026-04-05 01:00 6.40 784 4820 (2025) 13 (1966) 280 16 21 32 41 78 200 236 395 2040
2026-04-05 00:00 6.50 845 4820 (2025) 13 (1966) 280 16 21 32 41 78 200 236 395 2040
2026-04-04 23:00 6.64 927 4820 (2025) 13 (1966) 280 16 21 32 41 78 200 236 395 2040
2026-04-04 22:00 6.77 1010 3970 (2025) 13 (1966) 276 18 23 32 43 76 185 265 689 1780
2026-04-04 21:00 6.92 1110 3970 (2025) 13 (1966) 276 18 23 32 43 76 185 265 689 1780
2026-04-04 20:00 7.10 1230 3970 (2025) 13 (1966) 276 18 23 32 43 76 185 265 689 1780
2026-04-04 19:00 7.27 1350 3970 (2025) 13 (1966) 276 18 23 32 43 76 185 265 689 1780
2026-04-04 18:00 7.51 1510 3970 (2025) 13 (1966) 276 18 23 32 43 76 185 265 689 1780
2026-04-04 17:00 7.74 1670 3970 (2025) 13 (1966) 276 18 23 32 43 76 185 265 689 1780
2026-04-04 16:00 8.04 1890 3970 (2025) 13 (1966) 276 18 23 32 43 76 185 265 689 1780
2026-04-04 15:00 8.35 2090 3970 (2025) 13 (1966) 276 18 23 32 43 76 185 265 689 1780
2026-04-04 14:00 8.64 2270 3970 (2025) 13 (1966) 276 18 23 32 43 76 185 265 689 1780
2026-04-04 13:00 8.84 2390 3970 (2025) 13 (1966) 276 18 23 32 43 76 185 265 689 1780
2026-04-04 12:00 8.83 2380 3970 (2025) 13 (1966) 276 18 23 32 43 76 185 265 689 1780
2026-04-04 11:00 8.22 2020 3970 (2025) 13 (1966) 276 18 23 32 43 76 185 265 689 1780
2026-04-04 10:00 6.74 988 3970 (2025) 13 (1966) 276 18 23 32 43 76 185 265 689 1780
2026-04-04 09:00 5.12 189 3970 (2025) 13 (1966) 276 18 23 32 43 76 185 265 689 1780
2026-04-04 08:00 4.89 131 3970 (2025) 13 (1966) 276 18 23 32 43 76 185 265 689 1780
2026-04-04 07:00 4.78 108 3970 (2025) 13 (1966) 276 18 23 32 43 76 185 265 689 1780
2026-04-04 06:00 4.72 97 3970 (2025) 13 (1966) 276 18 23 32 43 76 185 265 689 1780
2026-04-04 05:00 4.70 93 3970 (2025) 13 (1966) 276 18 23 32 43 76 185 265 689 1780
2026-04-04 04:00 4.70 93 3970 (2025) 13 (1966) 276 18 23 32 43 76 185 265 689 1780
2026-04-04 03:00 4.68 90 3970 (2025) 13 (1966) 276 18 23 32 43 76 185 265 689 1780
2026-04-04 02:00 4.67 88 3970 (2025) 13 (1966) 276 18 23 32 43 76 185 265 689 1780
2026-04-04 01:00 4.66 87 3970 (2025) 13 (1966) 276 18 23 32 43 76 185 265 689 1780
2026-04-04 00:00 4.66 87 3970 (2025) 13 (1966) 276 18 23 32 43 76 185 265 689 1780
2026-04-03 23:00 4.67 88 3970 (2025) 13 (1966) 276 18 23 32 43 76 185 265 689 1780
2026-04-03 22:00 4.67 88 4620 (2001) 14 (1966) 388 19 23 36 44 89 179 324 1040 2700
2026-04-03 21:00 4.68 90 4620 (2001) 14 (1966) 388 19 23 36 44 89 179 324 1040 2700
2026-04-03 20:00 4.69 92 4620 (2001) 14 (1966) 388 19 23 36 44 89 179 324 1040 2700
2026-04-03 19:00 4.70 93 4620 (2001) 14 (1966) 388 19 23 36 44 89 179 324 1040 2700
2026-04-03 18:00 4.71 95 4620 (2001) 14 (1966) 388 19 23 36 44 89 179 324 1040 2700
2026-04-03 17:00 4.72 97 4620 (2001) 14 (1966) 388 19 23 36 44 89 179 324 1040 2700
2026-04-03 16:00 4.73 99 4620 (2001) 14 (1966) 388 19 23 36 44 89 179 324 1040 2700
2026-04-03 15:00 4.74 101 4620 (2001) 14 (1966) 388 19 23 36 44 89 179 324 1040 2700
2026-04-03 14:00 4.75 103 4620 (2001) 14 (1966) 388 19 23 36 44 89 179 324 1040 2700
2026-04-03 13:00 4.77 106 4620 (2001) 14 (1966) 388 19 23 36 44 89 179 324 1040 2700
2026-04-03 12:00 4.77 106 4620 (2001) 14 (1966) 388 19 23 36 44 89 179 324 1040 2700
2026-04-03 11:00 4.79 110 4620 (2001) 14 (1966) 388 19 23 36 44 89 179 324 1040 2700
2026-04-03 10:00 4.80 112 4620 (2001) 14 (1966) 388 19 23 36 44 89 179 324 1040 2700
2026-04-03 09:00 4.81 114 4620 (2001) 14 (1966) 388 19 23 36 44 89 179 324 1040 2700
2026-04-03 08:00 4.82 116 4620 (2001) 14 (1966) 388 19 23 36 44 89 179 324 1040 2700
2026-04-03 07:00 4.82 116 4620 (2001) 14 (1966) 388 19 23 36 44 89 179 324 1040 2700
2026-04-03 06:00 4.84 120 4620 (2001) 14 (1966) 388 19 23 36 44 89 179 324 1040 2700
2026-04-03 05:00 4.85 122 4620 (2001) 14 (1966) 388 19 23 36 44 89 179 324 1040 2700
2026-04-03 04:00 4.86 125 4620 (2001) 14 (1966) 388 19 23 36 44 89 179 324 1040 2700
2026-04-03 03:00 4.86 125 4620 (2001) 14 (1966) 388 19 23 36 44 89 179 324 1040 2700
2026-04-03 02:00 4.87 127 4620 (2001) 14 (1966) 388 19 23 36 44 89 179 324 1040 2700
2026-04-03 01:00 4.88 129 4620 (2001) 14 (1966) 388 19 23 36 44 89 179 324 1040 2700
2026-04-03 00:00 4.90 133 4620 (2001) 14 (1966) 388 19 23 36 44 89 179 324 1040 2700
2026-04-02 23:00 4.91 136 4620 (2001) 14 (1966) 388 19 23 36 44 89 179 324 1040 2700
2026-04-02 22:00 4.93 140 5000 (1983) 14 (1966) 238 19 24 37 43 81 164 203 249 979
2026-04-02 21:00 4.95 145 5000 (1983) 14 (1966) 238 19 24 37 43 81 164 203 249 979
2026-04-02 20:00 4.96 147 5000 (1983) 14 (1966) 238 19 24 37 43 81 164 203 249 979
2026-04-02 19:00 4.98 152 5000 (1983) 14 (1966) 238 19 24 37 43 81 164 203 249 979
2026-04-02 18:00 5.00 157 5000 (1983) 14 (1966) 238 19 24 37 43 81 164 203 249 979
2026-04-02 17:00 5.02 162 5000 (1983) 14 (1966) 238 19 24 37 43 81 164 203 249 979
2026-04-02 16:00 5.04 167 5000 (1983) 14 (1966) 238 19 24 37 43 81 164 203 249 979
2026-04-02 15:00 172 5000 (1983) 14 (1966) 238 19 24 37 43 81 164 203 249 979
2026-04-02 14:00 5.07 175 5000 (1983) 14 (1966) 238 19 24 37 43 81 164 203 249 979
2026-04-02 13:00 5.11 186 5000 (1983) 14 (1966) 238 19 24 37 43 81 164 203 249 979
2026-04-02 12:00 5.13 192 5000 (1983) 14 (1966) 238 19 24 37 43 81 164 203 249 979
2026-04-02 11:00 5.18 206 5000 (1983) 14 (1966) 238 19 24 37 43 81 164 203 249 979
2026-04-02 09:00 5.24 225 5000 (1983) 14 (1966) 238 19 24 37 43 81 164 203 249 979
2026-04-02 08:00 5.28 237 5000 (1983) 14 (1966) 238 19 24 37 43 81 164 203 249 979
2026-04-02 07:00 5.33 254 5000 (1983) 14 (1966) 238 19 24 37 43 81 164 203 249 979
2026-04-02 06:00 5.37 268 5000 (1983) 14 (1966) 238 19 24 37 43 81 164 203 249 979
2026-04-02 05:00 5.42 286 5000 (1983) 14 (1966) 238 19 24 37 43 81 164 203 249 979
2026-04-02 04:00 5.45 297 5000 (1983) 14 (1966) 238 19 24 37 43 81 164 203 249 979
2026-04-02 03:00 5.50 317 5000 (1983) 14 (1966) 238 19 24 37 43 81 164 203 249 979
2026-04-02 02:00 5.59 354 5000 (1983) 14 (1966) 238 19 24 37 43 81 164 203 249 979
2026-04-02 01:00 5.61 362 5000 (1983) 14 (1966) 238 19 24 37 43 81 164 203 249 979
2026-04-02 00:00 5.35 261 5000 (1983) 14 (1966) 238 19 24 37 43 81 164 203 249 979
2026-04-01 23:00 4.70 93 5000 (1983) 14 (1966) 238 19 24 37 43 81 164 203 249 979
2026-04-01 22:00 4.64 83 2150 (2008) 15 (2014) 201 20 21 36 43 84 219 258 412 1070
2026-04-01 21:00 4.60 77 2150 (2008) 15 (2014) 201 20 21 36 43 84 219 258 412 1070
2026-04-01 20:00 4.52 66 2150 (2008) 15 (2014) 201 20 21 36 43 84 219 258 412 1070
2026-04-01 19:00 4.42 54 2150 (2008) 15 (2014) 201 20 21 36 43 84 219 258 412 1070
2026-04-01 18:00 4.33 44 2150 (2008) 15 (2014) 201 20 21 36 43 84 219 258 412 1070
2026-04-01 17:00 4.26 38 2150 (2008) 15 (2014) 201 20 21 36 43 84 219 258 412 1070
2026-04-01 16:00 4.19 32 2150 (2008) 15 (2014) 201 20 21 36 43 84 219 258 412 1070
2026-04-01 15:00 4.13 28 2150 (2008) 15 (2014) 201 20 21 36 43 84 219 258 412 1070
2026-04-01 14:00 4.08 24 2150 (2008) 15 (2014) 201 20 21 36 43 84 219 258 412 1070
2026-04-01 13:00 4.06 23 2150 (2008) 15 (2014) 201 20 21 36 43 84 219 258 412 1070
2026-04-01 12:00 4.04 22 2150 (2008) 15 (2014) 201 20 21 36 43 84 219 258 412 1070
2026-04-01 11:00 4.02 21 2150 (2008) 15 (2014) 201 20 21 36 43 84 219 258 412 1070
2026-04-01 10:00 3.99 19 2150 (2008) 15 (2014) 201 20 21 36 43 84 219 258 412 1070
2026-04-01 09:00 3.96 17 2150 (2008) 15 (2014) 201 20 21 36 43 84 219 258 412 1070
2026-04-01 08:00 3.93 16 2150 (2008) 15 (2014) 201 20 21 36 43 84 219 258 412 1070
2026-04-01 07:00 3.93 16 2150 (2008) 15 (2014) 201 20 21 36 43 84 219 258 412 1070
2026-04-01 06:00 3.93 16 2150 (2008) 15 (2014) 201 20 21 36 43 84 219 258 412 1070
2026-04-01 05:00 3.93 16 2150 (2008) 15 (2014) 201 20 21 36 43 84 219 258 412 1070
2026-04-01 04:00 3.93 16 2150 (2008) 15 (2014) 201 20 21 36 43 84 219 258 412 1070
2026-04-01 03:00 3.93 16 2150 (2008) 15 (2014) 201 20 21 36 43 84 219 258 412 1070
2026-04-01 02:00 3.93 16 2150 (2008) 15 (2014) 201 20 21 36 43 84 219 258 412 1070
2026-04-01 01:00 3.93 16 2150 (2008) 15 (2014) 201 20 21 36 43 84 219 258 412 1070
2026-04-01 00:00 3.93 16 2150 (2008) 15 (2014) 201 20 21 36 43 84 219 258 412 1070
2026-03-31 23:00 3.94 16 2150 (2008) 15 (2014) 201 20 21 36 43 84 219 258 412 1070
2026-03-31 22:00 3.93 16 2880 (2008) 15 (2014) 311 22 23 43 50 105 317 352 1150 1430
2026-03-31 21:00 3.93 16 2880 (2008) 15 (2014) 311 22 23 43 50 105 317 352 1150 1430
2026-03-31 20:00 3.93 16 2880 (2008) 15 (2014) 311 22 23 43 50 105 317 352 1150 1430
2026-03-31 19:00 3.93 16 2880 (2008) 15 (2014) 311 22 23 43 50 105 317 352 1150 1430
2026-03-31 18:00 3.93 16 2880 (2008) 15 (2014) 311 22 23 43 50 105 317 352 1150 1430
2026-03-31 17:00 3.94 16 2880 (2008) 15 (2014) 311 22 23 43 50 105 317 352 1150 1430
2026-03-31 16:00 3.94 16 2880 (2008) 15 (2014) 311 22 23 43 50 105 317 352 1150 1430
2026-03-31 15:00 3.94 16 2880 (2008) 15 (2014) 311 22 23 43 50 105 317 352 1150 1430
2026-03-31 14:00 3.94 16 2880 (2008) 15 (2014) 311 22 23 43 50 105 317 352 1150 1430
2026-03-31 13:00 3.94 16 2880 (2008) 15 (2014) 311 22 23 43 50 105 317 352 1150 1430
2026-03-31 12:00 3.95 17 2880 (2008) 15 (2014) 311 22 23 43 50 105 317 352 1150 1430
2026-03-31 11:00 3.95 17 2880 (2008) 15 (2014) 311 22 23 43 50 105 317 352 1150 1430
2026-03-31 10:00 3.95 17 2880 (2008) 15 (2014) 311 22 23 43 50 105 317 352 1150 1430
2026-03-31 09:00 3.95 17 2880 (2008) 15 (2014) 311 22 23 43 50 105 317 352 1150 1430
2026-03-31 08:00 3.95 17 2880 (2008) 15 (2014) 311 22 23 43 50 105 317 352 1150 1430
2026-03-31 07:00 3.94 16 2880 (2008) 15 (2014) 311 22 23 43 50 105 317 352 1150 1430
2026-03-31 06:00 3.94 16 2880 (2008) 15 (2014) 311 22 23 43 50 105 317 352 1150 1430
2026-03-31 05:00 3.95 17 2880 (2008) 15 (2014) 311 22 23 43 50 105 317 352 1150 1430
2026-03-31 04:00 3.95 17 2880 (2008) 15 (2014) 311 22 23 43 50 105 317 352 1150 1430
2026-03-31 03:00 3.95 17 2880 (2008) 15 (2014) 311 22 23 43 50 105 317 352 1150 1430
2026-03-31 02:00 3.95 17 2880 (2008) 15 (2014) 311 22 23 43 50 105 317 352 1150 1430
2026-03-31 01:00 3.95 17 2880 (2008) 15 (2014) 311 22 23 43 50 105 317 352 1150 1430
2026-03-31 00:00 3.95 17 2880 (2008) 15 (2014) 311 22 23 43 50 105 317 352 1150 1430
2026-03-30 23:00 3.95 17 2880 (2008) 15 (2014) 311 22 23 43 50 105 317 352 1150 1430
2026-03-30 22:00 3.96 17 4290 (1985) 17 (2014) 398 23 25 38 55 117 219 513 1200 2260
2026-03-30 21:00 3.96 17 4290 (1985) 17 (2014) 398 23 25 38 55 117 219 513 1200 2260
2026-03-30 20:00 3.96 17 4290 (1985) 17 (2014) 398 23 25 38 55 117 219 513 1200 2260
2026-03-30 19:00 3.96 17 4290 (1985) 17 (2014) 398 23 25 38 55 117 219 513 1200 2260
2026-03-30 18:00 3.96 17 4290 (1985) 17 (2014) 398 23 25 38 55 117 219 513 1200 2260
2026-03-30 17:00 3.96 17 4290 (1985) 17 (2014) 398 23 25 38 55 117 219 513 1200 2260
2026-03-30 16:00 3.97 18 4290 (1985) 17 (2014) 398 23 25 38 55 117 219 513 1200 2260
2026-03-30 15:00 3.97 18 4290 (1985) 17 (2014) 398 23 25 38 55 117 219 513 1200 2260
2026-03-30 14:00 3.97 18 4290 (1985) 17 (2014) 398 23 25 38 55 117 219 513 1200 2260
2026-03-30 13:00 3.97 18 4290 (1985) 17 (2014) 398 23 25 38 55 117 219 513 1200 2260
2026-03-30 12:00 3.98 18 4290 (1985) 17 (2014) 398 23 25 38 55 117 219 513 1200 2260
2026-03-30 11:00 3.97 18 4290 (1985) 17 (2014) 398 23 25 38 55 117 219 513 1200 2260
2026-03-30 10:00 3.97 18 4290 (1985) 17 (2014) 398 23 25 38 55 117 219 513 1200 2260
2026-03-30 09:00 3.98 18 4290 (1985) 17 (2014) 398 23 25 38 55 117 219 513 1200 2260
2026-03-30 08:00 3.97 18 4290 (1985) 17 (2014) 398 23 25 38 55 117 219 513 1200 2260
2026-03-30 07:00 3.97 18 4290 (1985) 17 (2014) 398 23 25 38 55 117 219 513 1200 2260
2026-03-30 06:00 3.97 18 4290 (1985) 17 (2014) 398 23 25 38 55 117 219 513 1200 2260
2026-03-30 05:00 3.97 18 4290 (1985) 17 (2014) 398 23 25 38 55 117 219 513 1200 2260
2026-03-30 04:00 3.97 18 4290 (1985) 17 (2014) 398 23 25 38 55 117 219 513 1200 2260
2026-03-30 03:00 3.97 18 4290 (1985) 17 (2014) 398 23 25 38 55 117 219 513 1200 2260
2026-03-30 02:00 3.97 18 4290 (1985) 17 (2014) 398 23 25 38 55 117 219 513 1200 2260
2026-03-30 01:00 3.97 18 4290 (1985) 17 (2014) 398 23 25 38 55 117 219 513 1200 2260
2026-03-30 00:00 3.97 18 4290 (1985) 17 (2014) 398 23 25 38 55 117 219 513 1200 2260
2026-03-29 23:00 3.97 18 4290 (1985) 17 (2014) 398 23 25 38 55 117 219 513 1200 2260
2026-03-29 22:00 3.98 18 2680 (1988) 18 (2014) 268 24 25 37 49 103 182 218 682 1810
2026-03-29 21:00 3.98 18 2680 (1988) 18 (2014) 268 24 25 37 49 103 182 218 682 1810
2026-03-29 20:00 3.98 18 2680 (1988) 18 (2014) 268 24 25 37 49 103 182 218 682 1810
2026-03-29 19:00 3.98 18 2680 (1988) 18 (2014) 268 24 25 37 49 103 182 218 682 1810
2026-03-29 18:00 3.99 19 2680 (1988) 18 (2014) 268 24 25 37 49 103 182 218 682 1810
2026-03-29 17:00 3.99 19 2680 (1988) 18 (2014) 268 24 25 37 49 103 182 218 682 1810
2026-03-29 16:00 3.99 19 2680 (1988) 18 (2014) 268 24 25 37 49 103 182 218 682 1810
2026-03-29 15:00 3.99 19 2680 (1988) 18 (2014) 268 24 25 37 49 103 182 218 682 1810
2026-03-29 14:00 3.99 19 2680 (1988) 18 (2014) 268 24 25 37 49 103 182 218 682 1810
2026-03-29 13:00 3.99 19 2680 (1988) 18 (2014) 268 24 25 37 49 103 182 218 682 1810
2026-03-29 12:00 3.99 19 2680 (1988) 18 (2014) 268 24 25 37 49 103 182 218 682 1810
2026-03-29 11:00 3.99 19 2680 (1988) 18 (2014) 268 24 25 37 49 103 182 218 682 1810
2026-03-29 10:00 3.99 19 2680 (1988) 18 (2014) 268 24 25 37 49 103 182 218 682 1810
2026-03-29 09:00 3.99 19 2680 (1988) 18 (2014) 268 24 25 37 49 103 182 218 682 1810
2026-03-29 08:00 3.99 19 2680 (1988) 18 (2014) 268 24 25 37 49 103 182 218 682 1810
2026-03-29 07:00 3.99 19 2680 (1988) 18 (2014) 268 24 25 37 49 103 182 218 682 1810
2026-03-29 06:00 3.99 19 2680 (1988) 18 (2014) 268 24 25 37 49 103 182 218 682 1810
2026-03-29 05:00 3.99 19 2680 (1988) 18 (2014) 268 24 25 37 49 103 182 218 682 1810
2026-03-29 04:00 4.00 20 2680 (1988) 18 (2014) 268 24 25 37 49 103 182 218 682 1810
2026-03-29 03:00 4.00 20 2680 (1988) 18 (2014) 268 24 25 37 49 103 182 218 682 1810
2026-03-29 02:00 4.00 20 2680 (1988) 18 (2014) 268 24 25 37 49 103 182 218 682 1810
2026-03-29 01:00 4.00 20 2680 (1988) 18 (2014) 268 24 25 37 49 103 182 218 682 1810
2026-03-29 00:00 4.01 20 2680 (1988) 18 (2014) 268 24 25 37 49 103 182 218 682 1810
2026-03-28 23:00 4.01 20 2680 (1988) 18 (2014) 268 24 25 37 49 103 182 218 682 1810
2026-03-28 22:00 4.01 20 4960 (1977) 16 (1981) 301 22 26 36 47 101 224 240 465 1540
2026-03-28 21:00 4.02 21 4960 (1977) 16 (1981) 301 22 26 36 47 101 224 240 465 1540
2026-03-28 20:00 4.02 21 4960 (1977) 16 (1981) 301 22 26 36 47 101 224 240 465 1540
2026-03-28 19:00 4.02 21 4960 (1977) 16 (1981) 301 22 26 36 47 101 224 240 465 1540
2026-03-28 18:00 4.03 21 4960 (1977) 16 (1981) 301 22 26 36 47 101 224 240 465 1540
2026-03-28 17:00 4.03 21 4960 (1977) 16 (1981) 301 22 26 36 47 101 224 240 465 1540
2026-03-28 16:00 4.03 21 4960 (1977) 16 (1981) 301 22 26 36 47 101 224 240 465 1540
2026-03-28 15:00 4.03 21 4960 (1977) 16 (1981) 301 22 26 36 47 101 224 240 465 1540
2026-03-28 14:00 4.04 22 4960 (1977) 16 (1981) 301 22 26 36 47 101 224 240 465 1540
2026-03-28 13:00 4.04 22 4960 (1977) 16 (1981) 301 22 26 36 47 101 224 240 465 1540
2026-03-28 12:00 4.04 22 4960 (1977) 16 (1981) 301 22 26 36 47 101 224 240 465 1540
2026-03-28 11:00 4.05 23 4960 (1977) 16 (1981) 301 22 26 36 47 101 224 240 465 1540
2026-03-28 10:00 4.05 23 4960 (1977) 16 (1981) 301 22 26 36 47 101 224 240 465 1540
2026-03-28 09:00 4.05 23 4960 (1977) 16 (1981) 301 22 26 36 47 101 224 240 465 1540
2026-03-28 08:00 4.05 23 4960 (1977) 16 (1981) 301 22 26 36 47 101 224 240 465 1540
2026-03-28 07:00 4.05 23 4960 (1977) 16 (1981) 301 22 26 36 47 101 224 240 465 1540
2026-03-28 06:00 4.06 23 4960 (1977) 16 (1981) 301 22 26 36 47 101 224 240 465 1540
2026-03-28 05:00 4.06 23 4960 (1977) 16 (1981) 301 22 26 36 47 101 224 240 465 1540
2026-03-28 04:00 4.06 23 4960 (1977) 16 (1981) 301 22 26 36 47 101 224 240 465 1540
2026-03-28 03:00 4.07 24 4960 (1977) 16 (1981) 301 22 26 36 47 101 224 240 465 1540
2026-03-28 02:00 4.07 24 4960 (1977) 16 (1981) 301 22 26 36 47 101 224 240 465 1540
2026-03-28 01:00 4.08 24 4960 (1977) 16 (1981) 301 22 26 36 47 101 224 240 465 1540
2026-03-28 00:00 4.08 24 4960 (1977) 16 (1981) 301 22 26 36 47 101 224 240 465 1540
2026-03-27 23:00 4.08 24 4960 (1977) 16 (1981) 301 22 26 36 47 101 224 240 465 1540
2026-03-27 22:00 4.09 25 4300 (2018) 18 (2014) 285 24 28 39 48 116 229 276 461 1930
2026-03-27 21:00 4.10 26 4300 (2018) 18 (2014) 285 24 28 39 48 116 229 276 461 1930
2026-03-27 20:00 4.10 26 4300 (2018) 18 (2014) 285 24 28 39 48 116 229 276 461 1930
2026-03-27 19:00 4.10 26 4300 (2018) 18 (2014) 285 24 28 39 48 116 229 276 461 1930
2026-03-27 18:00 4.10 26 4300 (2018) 18 (2014) 285 24 28 39 48 116 229 276 461 1930
2026-03-27 17:00 4.11 26 4300 (2018) 18 (2014) 285 24 28 39 48 116 229 276 461 1930
2026-03-27 16:00 4.10 26 4300 (2018) 18 (2014) 285 24 28 39 48 116 229 276 461 1930
2026-03-27 15:00 4.10 26 4300 (2018) 18 (2014) 285 24 28 39 48 116 229 276 461 1930
2026-03-27 14:00 4.10 26 4300 (2018) 18 (2014) 285 24 28 39 48 116 229 276 461 1930
2026-03-27 13:00 4.10 26 4300 (2018) 18 (2014) 285 24 28 39 48 116 229 276 461 1930
2026-03-27 12:00 4.10 26 4300 (2018) 18 (2014) 285 24 28 39 48 116 229 276 461 1930
2026-03-27 11:00 4.09 25 4300 (2018) 18 (2014) 285 24 28 39 48 116 229 276 461 1930
2026-03-27 10:00 4.09 25 4300 (2018) 18 (2014) 285 24 28 39 48 116 229 276 461 1930
2026-03-27 09:00 4.09 25 4300 (2018) 18 (2014) 285 24 28 39 48 116 229 276 461 1930
2026-03-27 08:00 4.09 25 4300 (2018) 18 (2014) 285 24 28 39 48 116 229 276 461 1930
2026-03-27 07:00 4.09 25 4300 (2018) 18 (2014) 285 24 28 39 48 116 229 276 461 1930
2026-03-27 06:00 4.09 25 4300 (2018) 18 (2014) 285 24 28 39 48 116 229 276 461 1930
2026-03-27 05:00 4.09 25 4300 (2018) 18 (2014) 285 24 28 39 48 116 229 276 461 1930
2026-03-27 04:00 4.07 24 4300 (2018) 18 (2014) 285 24 28 39 48 116 229 276 461 1930
2026-03-27 03:00 4.06 23 4300 (2018) 18 (2014) 285 24 28 39 48 116 229 276 461 1930
2026-03-27 02:00 4.06 23 4300 (2018) 18 (2014) 285 24 28 39 48 116 229 276 461 1930
2026-03-27 01:00 4.07 24 4300 (2018) 18 (2014) 285 24 28 39 48 116 229 276 461 1930
2026-03-27 00:00 4.07 24 4300 (2018) 18 (2014) 285 24 28 39 48 116 229 276 461 1930
2026-03-26 23:00 4.07 24 4300 (2018) 18 (2014) 285 24 28 39 48 116 229 276 461 1930
2026-03-26 22:00 4.08 24 1970 (2015) 13 (1977) 224 19 24 37 42 92 255 310 486 921
2026-03-26 21:00 4.08 24 1970 (2015) 13 (1977) 224 19 24 37 42 92 255 310 486 921
2026-03-26 20:00 4.08 24 1970 (2015) 13 (1977) 224 19 24 37 42 92 255 310 486 921
2026-03-26 19:00 4.08 24 1970 (2015) 13 (1977) 224 19 24 37 42 92 255 310 486 921
2026-03-26 18:00 4.09 25 1970 (2015) 13 (1977) 224 19 24 37 42 92 255 310 486 921
2026-03-26 17:00 4.09 25 1970 (2015) 13 (1977) 224 19 24 37 42 92 255 310 486 921
2026-03-26 16:00 4.09 25 1970 (2015) 13 (1977) 224 19 24 37 42 92 255 310 486 921
2026-03-26 15:00 4.09 25 1970 (2015) 13 (1977) 224 19 24 37 42 92 255 310 486 921
2026-03-26 14:00 4.10 26 1970 (2015) 13 (1977) 224 19 24 37 42 92 255 310 486 921
2026-03-26 13:00 4.10 26 1970 (2015) 13 (1977) 224 19 24 37 42 92 255 310 486 921
2026-03-26 12:00 4.10 26 1970 (2015) 13 (1977) 224 19 24 37 42 92 255 310 486 921
2026-03-26 11:00 4.10 26 1970 (2015) 13 (1977) 224 19 24 37 42 92 255 310 486 921
2026-03-26 10:00 4.10 26 1970 (2015) 13 (1977) 224 19 24 37 42 92 255 310 486 921
2026-03-26 09:00 4.10 26 1970 (2015) 13 (1977) 224 19 24 37 42 92 255 310 486 921
2026-03-26 08:00 4.10 26 1970 (2015) 13 (1977) 224 19 24 37 42 92 255 310 486 921
2026-03-26 07:00 4.10 26 1970 (2015) 13 (1977) 224 19 24 37 42 92 255 310 486 921
2026-03-26 06:00 4.10 26 1970 (2015) 13 (1977) 224 19 24 37 42 92 255 310 486 921
2026-03-26 05:00 4.11 26 1970 (2015) 13 (1977) 224 19 24 37 42 92 255 310 486 921
2026-03-26 04:00 4.11 26 1970 (2015) 13 (1977) 224 19 24 37 42 92 255 310 486 921
2026-03-26 03:00 4.11 26 1970 (2015) 13 (1977) 224 19 24 37 42 92 255 310 486 921
2026-03-26 02:00 4.11 26 1970 (2015) 13 (1977) 224 19 24 37 42 92 255 310 486 921
2026-03-26 01:00 4.11 26 1970 (2015) 13 (1977) 224 19 24 37 42 92 255 310 486 921
2026-03-26 00:00 4.11 26 1970 (2015) 13 (1977) 224 19 24 37 42 92 255 310 486 921
2026-03-25 23:00 4.11 26 1970 (2015) 13 (1977) 224 19 24 37 42 92 255 310 486 921
2026-03-25 22:00 4.11 26 1780 (2023) 16 (1977) 271 20 24 35 42 89 322 425 975 1010
2026-03-25 21:00 4.11 26 1780 (2023) 16 (1977) 271 20 24 35 42 89 322 425 975 1010
2026-03-25 20:00 4.12 27 1780 (2023) 16 (1977) 271 20 24 35 42 89 322 425 975 1010
2026-03-25 19:00 4.12 27 1780 (2023) 16 (1977) 271 20 24 35 42 89 322 425 975 1010
2026-03-25 18:00 4.12 27 1780 (2023) 16 (1977) 271 20 24 35 42 89 322 425 975 1010
2026-03-25 17:00 4.12 27 1780 (2023) 16 (1977) 271 20 24 35 42 89 322 425 975 1010
2026-03-25 16:00 4.13 28 1780 (2023) 16 (1977) 271 20 24 35 42 89 322 425 975 1010
2026-03-25 15:00 4.14 29 1780 (2023) 16 (1977) 271 20 24 35 42 89 322 425 975 1010
2026-03-25 14:00 4.13 28 1780 (2023) 16 (1977) 271 20 24 35 42 89 322 425 975 1010
2026-03-25 13:00 4.15 29 1780 (2023) 16 (1977) 271 20 24 35 42 89 322 425 975 1010
2026-03-25 12:00 4.13 28 1780 (2023) 16 (1977) 271 20 24 35 42 89 322 425 975 1010
2026-03-25 11:00 4.13 28 1780 (2023) 16 (1977) 271 20 24 35 42 89 322 425 975 1010
2026-03-25 10:00 4.14 29 1780 (2023) 16 (1977) 271 20 24 35 42 89 322 425 975 1010
2026-03-25 09:00 4.13 28 1780 (2023) 16 (1977) 271 20 24 35 42 89 322 425 975 1010
2026-03-25 08:00 4.13 28 1780 (2023) 16 (1977) 271 20 24 35 42 89 322 425 975 1010
2026-03-25 07:00 4.13 28 1780 (2023) 16 (1977) 271 20 24 35 42 89 322 425 975 1010
2026-03-25 06:00 4.14 29 1780 (2023) 16 (1977) 271 20 24 35 42 89 322 425 975 1010
2026-03-25 05:00 4.14 29 1780 (2023) 16 (1977) 271 20 24 35 42 89 322 425 975 1010
2026-03-25 04:00 4.14 29 1780 (2023) 16 (1977) 271 20 24 35 42 89 322 425 975 1010
2026-03-25 03:00 4.14 29 1780 (2023) 16 (1977) 271 20 24 35 42 89 322 425 975 1010
2026-03-25 02:00 4.15 29 1780 (2023) 16 (1977) 271 20 24 35 42 89 322 425 975 1010
2026-03-25 01:00 4.15 29 1780 (2023) 16 (1977) 271 20 24 35 42 89 322 425 975 1010
2026-03-25 00:00 4.15 29 1780 (2023) 16 (1977) 271 20 24 35 42 89 322 425 975 1010
2026-03-24 23:00 4.16 30 1780 (2023) 16 (1977) 271 20 24 35 42 89 322 425 975 1010
2026-03-24 22:00 4.15 29 6230 (2023) 9 (2024) 353 18 23 31 41 85 172 209 633 1860
2026-03-24 21:00 4.16 30 6230 (2023) 9 (2024) 353 18 23 31 41 85 172 209 633 1860
2026-03-24 20:00 4.16 30 6230 (2023) 9 (2024) 353 18 23 31 41 85 172 209 633 1860
2026-03-24 19:00 4.16 30 6230 (2023) 9 (2024) 353 18 23 31 41 85 172 209 633 1860
2026-03-24 18:00 4.16 30 6230 (2023) 9 (2024) 353 18 23 31 41 85 172 209 633 1860
2026-03-24 17:00 4.17 31 6230 (2023) 9 (2024) 353 18 23 31 41 85 172 209 633 1860
2026-03-24 16:00 4.17 31 6230 (2023) 9 (2024) 353 18 23 31 41 85 172 209 633 1860
2026-03-24 15:00 4.18 32 6230 (2023) 9 (2024) 353 18 23 31 41 85 172 209 633 1860
2026-03-24 14:00 4.18 32 6230 (2023) 9 (2024) 353 18 23 31 41 85 172 209 633 1860
2026-03-24 13:00 4.18 32 6230 (2023) 9 (2024) 353 18 23 31 41 85 172 209 633 1860
2026-03-24 12:00 4.18 32 6230 (2023) 9 (2024) 353 18 23 31 41 85 172 209 633 1860
2026-03-24 11:00 4.19 32 6230 (2023) 9 (2024) 353 18 23 31 41 85 172 209 633 1860
2026-03-24 10:00 4.19 32 6230 (2023) 9 (2024) 353 18 23 31 41 85 172 209 633 1860
2026-03-24 09:00 4.18 32 6230 (2023) 9 (2024) 353 18 23 31 41 85 172 209 633 1860
2026-03-24 08:00 4.18 32 6230 (2023) 9 (2024) 353 18 23 31 41 85 172 209 633 1860
2026-03-24 07:00 4.19 32 6230 (2023) 9 (2024) 353 18 23 31 41 85 172 209 633 1860
2026-03-24 06:00 4.19 32 6230 (2023) 9 (2024) 353 18 23 31 41 85 172 209 633 1860
2026-03-24 05:00 4.19 32 6230 (2023) 9 (2024) 353 18 23 31 41 85 172 209 633 1860
2026-03-24 04:00 4.20 33 6230 (2023) 9 (2024) 353 18 23 31 41 85 172 209 633 1860
2026-03-24 03:00 4.20 33 6230 (2023) 9 (2024) 353 18 23 31 41 85 172 209 633 1860
2026-03-24 02:00 4.21 34 6230 (2023) 9 (2024) 353 18 23 31 41 85 172 209 633 1860
2026-03-24 01:00 4.21 34 6230 (2023) 9 (2024) 353 18 23 31 41 85 172 209 633 1860
2026-03-24 00:00 4.21 34 6230 (2023) 9 (2024) 353 18 23 31 41 85 172 209 633 1860
2026-03-23 23:00 4.21 34 6230 (2023) 9 (2024) 353 18 23 31 41 85 172 209 633 1860
2026-03-23 22:00 4.22 35 1050 (1979) 9 (2024) 131 13 23 31 35 86 157 184 266 438
2026-03-23 21:00 4.22 35 1050 (1979) 9 (2024) 131 13 23 31 35 86 157 184 266 438
2026-03-23 20:00 4.22 35 1050 (1979) 9 (2024) 131 13 23 31 35 86 157 184 266 438
2026-03-23 19:00 4.23 36 1050 (1979) 9 (2024) 131 13 23 31 35 86 157 184 266 438
2026-03-23 18:00 4.23 36 1050 (1979) 9 (2024) 131 13 23 31 35 86 157 184 266 438
2026-03-23 17:00 4.23 36 1050 (1979) 9 (2024) 131 13 23 31 35 86 157 184 266 438
2026-03-23 16:00 4.24 36 1050 (1979) 9 (2024) 131 13 23 31 35 86 157 184 266 438
2026-03-23 15:00 4.24 36 1050 (1979) 9 (2024) 131 13 23 31 35 86 157 184 266 438
2026-03-23 14:00 4.25 37 1050 (1979) 9 (2024) 131 13 23 31 35 86 157 184 266 438
2026-03-23 13:00 4.26 38 1050 (1979) 9 (2024) 131 13 23 31 35 86 157 184 266 438
2026-03-23 12:00 4.26 38 1050 (1979) 9 (2024) 131 13 23 31 35 86 157 184 266 438
2026-03-23 11:00 4.26 38 1050 (1979) 9 (2024) 131 13 23 31 35 86 157 184 266 438
2026-03-23 10:00 4.26 38 1050 (1979) 9 (2024) 131 13 23 31 35 86 157 184 266 438
2026-03-23 09:00 4.26 38 1050 (1979) 9 (2024) 131 13 23 31 35 86 157 184 266 438
2026-03-23 08:00 4.26 38 1050 (1979) 9 (2024) 131 13 23 31 35 86 157 184 266 438
2026-03-23 07:00 4.27 39 1050 (1979) 9 (2024) 131 13 23 31 35 86 157 184 266 438
2026-03-23 06:00 4.28 40 1050 (1979) 9 (2024) 131 13 23 31 35 86 157 184 266 438
2026-03-23 05:00 4.28 40 1050 (1979) 9 (2024) 131 13 23 31 35 86 157 184 266 438
2026-03-23 04:00 4.28 40 1050 (1979) 9 (2024) 131 13 23 31 35 86 157 184 266 438
2026-03-23 03:00 4.29 41 1050 (1979) 9 (2024) 131 13 23 31 35 86 157 184 266 438
2026-03-23 02:00 4.30 42 1050 (1979) 9 (2024) 131 13 23 31 35 86 157 184 266 438
2026-03-23 01:00 4.30 42 1050 (1979) 9 (2024) 131 13 23 31 35 86 157 184 266 438
2026-03-23 00:00 4.31 43 1050 (1979) 9 (2024) 131 13 23 31 35 86 157 184 266 438
2026-03-22 23:00 4.31 43 1050 (1979) 9 (2024) 131 13 23 31 35 86 157 184 266 438
2026-03-22 22:00 4.32 44 1130 (2007) 10 (2024) 152 14 23 28 36 102 189 203 364 660
2026-03-22 21:00 4.33 44 1130 (2007) 10 (2024) 152 14 23 28 36 102 189 203 364 660
2026-03-22 20:00 4.34 45 1130 (2007) 10 (2024) 152 14 23 28 36 102 189 203 364 660
2026-03-22 19:00 4.34 45 1130 (2007) 10 (2024) 152 14 23 28 36 102 189 203 364 660
2026-03-22 18:00 4.35 46 1130 (2007) 10 (2024) 152 14 23 28 36 102 189 203 364 660
2026-03-22 17:00 4.35 46 1130 (2007) 10 (2024) 152 14 23 28 36 102 189 203 364 660
2026-03-22 16:00 4.35 46 1130 (2007) 10 (2024) 152 14 23 28 36 102 189 203 364 660
2026-03-22 15:00 4.37 48 1130 (2007) 10 (2024) 152 14 23 28 36 102 189 203 364 660
2026-03-22 14:00 4.37 48 1130 (2007) 10 (2024) 152 14 23 28 36 102 189 203 364 660
2026-03-22 13:00 4.37 48 1130 (2007) 10 (2024) 152 14 23 28 36 102 189 203 364 660
2026-03-22 12:00 4.37 48 1130 (2007) 10 (2024) 152 14 23 28 36 102 189 203 364 660
2026-03-22 11:00 4.38 49 1130 (2007) 10 (2024) 152 14 23 28 36 102 189 203 364 660
2026-03-22 10:00 4.37 48 1130 (2007) 10 (2024) 152 14 23 28 36 102 189 203 364 660
2026-03-22 09:00 4.38 49 1130 (2007) 10 (2024) 152 14 23 28 36 102 189 203 364 660
2026-03-22 08:00 4.38 49 1130 (2007) 10 (2024) 152 14 23 28 36 102 189 203 364 660
2026-03-22 07:00 4.38 49 1130 (2007) 10 (2024) 152 14 23 28 36 102 189 203 364 660
2026-03-22 06:00 4.39 50 1130 (2007) 10 (2024) 152 14 23 28 36 102 189 203 364 660
2026-03-22 05:00 4.39 50 1130 (2007) 10 (2024) 152 14 23 28 36 102 189 203 364 660
2026-03-22 04:00 4.40 52 1130 (2007) 10 (2024) 152 14 23 28 36 102 189 203 364 660
2026-03-22 03:00 4.39 50 1130 (2007) 10 (2024) 152 14 23 28 36 102 189 203 364 660
2026-03-22 02:00 4.40 52 1130 (2007) 10 (2024) 152 14 23 28 36 102 189 203 364 660
2026-03-22 01:00 4.40 52 1130 (2007) 10 (2024) 152 14 23 28 36 102 189 203 364 660
2026-03-22 00:00 4.41 53 1130 (2007) 10 (2024) 152 14 23 28 36 102 189 203 364 660
2026-03-21 23:00 4.41 53 1130 (2007) 10 (2024) 152 14 23 28 36 102 189 203 364 660
2026-03-21 22:00 4.41 53 1130 (1998) 11 (2024) 167 15 18 33 38 101 243 290 370 593
2026-03-21 21:00 4.42 54 1130 (1998) 11 (2024) 167 15 18 33 38 101 243 290 370 593
2026-03-21 20:00 4.42 54 1130 (1998) 11 (2024) 167 15 18 33 38 101 243 290 370 593
2026-03-21 19:00 4.43 55 1130 (1998) 11 (2024) 167 15 18 33 38 101 243 290 370 593
2026-03-21 18:00 4.44 56 1130 (1998) 11 (2024) 167 15 18 33 38 101 243 290 370 593
2026-03-21 17:00 4.44 56 1130 (1998) 11 (2024) 167 15 18 33 38 101 243 290 370 593
2026-03-21 16:00 4.45 57 1130 (1998) 11 (2024) 167 15 18 33 38 101 243 290 370 593
2026-03-21 15:00 4.45 57 1130 (1998) 11 (2024) 167 15 18 33 38 101 243 290 370 593
2026-03-21 14:00 4.46 58 1130 (1998) 11 (2024) 167 15 18 33 38 101 243 290 370 593
2026-03-21 13:00 4.46 58 1130 (1998) 11 (2024) 167 15 18 33 38 101 243 290 370 593
2026-03-21 12:00 4.46 58 1130 (1998) 11 (2024) 167 15 18 33 38 101 243 290 370 593
2026-03-21 11:00 4.47 59 1130 (1998) 11 (2024) 167 15 18 33 38 101 243 290 370 593
2026-03-21 10:00 4.47 59 1130 (1998) 11 (2024) 167 15 18 33 38 101 243 290 370 593
2026-03-21 09:00 4.47 59 1130 (1998) 11 (2024) 167 15 18 33 38 101 243 290 370 593
2026-03-21 08:00 4.48 60 1130 (1998) 11 (2024) 167 15 18 33 38 101 243 290 370 593
2026-03-21 07:00 4.48 60 1130 (1998) 11 (2024) 167 15 18 33 38 101 243 290 370 593
2026-03-21 06:00 4.49 62 1130 (1998) 11 (2024) 167 15 18 33 38 101 243 290 370 593
2026-03-21 05:00 4.49 62 1130 (1998) 11 (2024) 167 15 18 33 38 101 243 290 370 593
2026-03-21 04:00 4.49 62 1130 (1998) 11 (2024) 167 15 18 33 38 101 243 290 370 593
2026-03-21 03:00 4.50 63 1130 (1998) 11 (2024) 167 15 18 33 38 101 243 290 370 593
2026-03-21 02:00 4.50 63 1130 (1998) 11 (2024) 167 15 18 33 38 101 243 290 370 593
2026-03-21 01:00 4.50 63 1130 (1998) 11 (2024) 167 15 18 33 38 101 243 290 370 593
2026-03-21 00:00 4.49 62 1130 (1998) 11 (2024) 167 15 18 33 38 101 243 290 370 593
2026-03-20 23:00 4.50 63 1130 (1998) 11 (2024) 167 15 18 33 38 101 243 290 370 593
2026-03-20 22:00 4.51 64 4630 (1998) 12 (2024) 318 16 20 33 42 87 299 437 849 1350
2026-03-20 21:00 4.51 64 4630 (1998) 12 (2024) 318 16 20 33 42 87 299 437 849 1350
2026-03-20 20:00 4.51 64 4630 (1998) 12 (2024) 318 16 20 33 42 87 299 437 849 1350
2026-03-20 19:00 4.51 64 4630 (1998) 12 (2024) 318 16 20 33 42 87 299 437 849 1350
2026-03-20 18:00 4.52 66 4630 (1998) 12 (2024) 318 16 20 33 42 87 299 437 849 1350
2026-03-20 17:00 4.52 66 4630 (1998) 12 (2024) 318 16 20 33 42 87 299 437 849 1350
2026-03-20 16:00 4.53 67 4630 (1998) 12 (2024) 318 16 20 33 42 87 299 437 849 1350
2026-03-20 15:00 4.53 67 4630 (1998) 12 (2024) 318 16 20 33 42 87 299 437 849 1350
2026-03-20 14:00 4.53 67 4630 (1998) 12 (2024) 318 16 20 33 42 87 299 437 849 1350
2026-03-20 13:00 4.54 68 4630 (1998) 12 (2024) 318 16 20 33 42 87 299 437 849 1350
2026-03-20 12:00 4.54 68 4630 (1998) 12 (2024) 318 16 20 33 42 87 299 437 849 1350
2026-03-20 11:00 4.54 68 4630 (1998) 12 (2024) 318 16 20 33 42 87 299 437 849 1350
2026-03-20 10:00 4.56 71 4630 (1998) 12 (2024) 318 16 20 33 42 87 299 437 849 1350
2026-03-20 09:00 4.55 70 4630 (1998) 12 (2024) 318 16 20 33 42 87 299 437 849 1350
2026-03-20 08:00 4.55 70 4630 (1998) 12 (2024) 318 16 20 33 42 87 299 437 849 1350
2026-03-20 07:00 4.56 71 4630 (1998) 12 (2024) 318 16 20 33 42 87 299 437 849 1350
2026-03-20 06:00 4.56 71 4630 (1998) 12 (2024) 318 16 20 33 42 87 299 437 849 1350
2026-03-20 05:00 4.56 71 4630 (1998) 12 (2024) 318 16 20 33 42 87 299 437 849 1350
2026-03-20 04:00 4.57 73 4630 (1998) 12 (2024) 318 16 20 33 42 87 299 437 849 1350
2026-03-20 03:00 4.57 73 4630 (1998) 12 (2024) 318 16 20 33 42 87 299 437 849 1350
2026-03-20 02:00 4.57 73 4630 (1998) 12 (2024) 318 16 20 33 42 87 299 437 849 1350
2026-03-20 01:00 4.58 74 4630 (1998) 12 (2024) 318 16 20 33 42 87 299 437 849 1350
2026-03-20 00:00 4.58 74 4630 (1998) 12 (2024) 318 16 20 33 42 87 299 437 849 1350
2026-03-19 23:00 4.59 76 4630 (1998) 12 (2024) 318 16 20 33 42 87 299 437 849 1350
2026-03-19 22:00 4.59 76 6680 (2008) 13 (2009) 433 16 21 32 37 80 289 355 753 3120
2026-03-19 21:00 4.59 76 6680 (2008) 13 (2009) 433 16 21 32 37 80 289 355 753 3120
2026-03-19 20:00 4.61 79 6680 (2008) 13 (2009) 433 16 21 32 37 80 289 355 753 3120
2026-03-19 19:00 4.61 79 6680 (2008) 13 (2009) 433 16 21 32 37 80 289 355 753 3120
2026-03-19 18:00 4.62 80 6680 (2008) 13 (2009) 433 16 21 32 37 80 289 355 753 3120
2026-03-19 17:00 4.62 80 6680 (2008) 13 (2009) 433 16 21 32 37 80 289 355 753 3120
2026-03-19 16:00 4.63 82 6680 (2008) 13 (2009) 433 16 21 32 37 80 289 355 753 3120
2026-03-19 15:00 4.62 80 6680 (2008) 13 (2009) 433 16 21 32 37 80 289 355 753 3120
2026-03-19 14:00 4.64 83 6680 (2008) 13 (2009) 433 16 21 32 37 80 289 355 753 3120
2026-03-19 13:00 4.64 83 6680 (2008) 13 (2009) 433 16 21 32 37 80 289 355 753 3120
2026-03-19 12:00 4.64 83 6680 (2008) 13 (2009) 433 16 21 32 37 80 289 355 753 3120
2026-03-19 11:00 4.65 85 6680 (2008) 13 (2009) 433 16 21 32 37 80 289 355 753 3120
2026-03-19 10:00 4.64 83 6680 (2008) 13 (2009) 433 16 21 32 37 80 289 355 753 3120
2026-03-19 09:00 4.65 85 6680 (2008) 13 (2009) 433 16 21 32 37 80 289 355 753 3120
2026-03-19 08:00 4.66 87 6680 (2008) 13 (2009) 433 16 21 32 37 80 289 355 753 3120
2026-03-19 07:00 4.66 87 6680 (2008) 13 (2009) 433 16 21 32 37 80 289 355 753 3120
2026-03-19 06:00 4.67 88 6680 (2008) 13 (2009) 433 16 21 32 37 80 289 355 753 3120
2026-03-19 05:00 4.67 88 6680 (2008) 13 (2009) 433 16 21 32 37 80 289 355 753 3120
2026-03-19 04:00 4.68 90 6680 (2008) 13 (2009) 433 16 21 32 37 80 289 355 753 3120
2026-03-19 03:00 4.68 90 6680 (2008) 13 (2009) 433 16 21 32 37 80 289 355 753 3120
2026-03-19 02:00 4.68 90 6680 (2008) 13 (2009) 433 16 21 32 37 80 289 355 753 3120
2026-03-19 01:00 4.69 92 6680 (2008) 13 (2009) 433 16 21 32 37 80 289 355 753 3120
2026-03-19 00:00 4.68 90 6680 (2008) 13 (2009) 433 16 21 32 37 80 289 355 753 3120
2026-03-18 23:00 4.70 93 6680 (2008) 13 (2009) 433 16 21 32 37 80 289 355 753 3120
2026-03-18 22:00 4.71 95 9740 (2008) 10 (2009) 401 16 21 34 39 74 179 233 862 1480
2026-03-18 21:00 4.70 93 9740 (2008) 10 (2009) 401 16 21 34 39 74 179 233 862 1480
2026-03-18 20:00 4.71 95 9740 (2008) 10 (2009) 401 16 21 34 39 74 179 233 862 1480
2026-03-18 19:00 4.72 97 9740 (2008) 10 (2009) 401 16 21 34 39 74 179 233 862 1480
2026-03-18 18:00 4.72 97 9740 (2008) 10 (2009) 401 16 21 34 39 74 179 233 862 1480
2026-03-18 17:00 4.73 99 9740 (2008) 10 (2009) 401 16 21 34 39 74 179 233 862 1480
2026-03-18 16:00 4.74 101 9740 (2008) 10 (2009) 401 16 21 34 39 74 179 233 862 1480
2026-03-18 15:00 4.74 101 9740 (2008) 10 (2009) 401 16 21 34 39 74 179 233 862 1480
2026-03-18 14:00 4.75 103 9740 (2008) 10 (2009) 401 16 21 34 39 74 179 233 862 1480
2026-03-18 13:00 4.76 104 9740 (2008) 10 (2009) 401 16 21 34 39 74 179 233 862 1480
2026-03-18 12:00 4.76 104 9740 (2008) 10 (2009) 401 16 21 34 39 74 179 233 862 1480
2026-03-18 11:00 4.77 106 9740 (2008) 10 (2009) 401 16 21 34 39 74 179 233 862 1480
2026-03-18 10:00 4.78 108 9740 (2008) 10 (2009) 401 16 21 34 39 74 179 233 862 1480
2026-03-18 09:00 4.78 108 9740 (2008) 10 (2009) 401 16 21 34 39 74 179 233 862 1480
2026-03-18 08:00 4.78 108 9740 (2008) 10 (2009) 401 16 21 34 39 74 179 233 862 1480
2026-03-18 07:00 4.80 112 9740 (2008) 10 (2009) 401 16 21 34 39 74 179 233 862 1480
2026-03-18 06:00 4.80 112 9740 (2008) 10 (2009) 401 16 21 34 39 74 179 233 862 1480
2026-03-18 05:00 4.82 116 9740 (2008) 10 (2009) 401 16 21 34 39 74 179 233 862 1480
2026-03-18 04:00 4.81 114 9740 (2008) 10 (2009) 401 16 21 34 39 74 179 233 862 1480
2026-03-18 03:00 4.82 116 9740 (2008) 10 (2009) 401 16 21 34 39 74 179 233 862 1480
2026-03-18 02:00 4.82 116 9740 (2008) 10 (2009) 401 16 21 34 39 74 179 233 862 1480
2026-03-18 01:00 4.83 118 9740 (2008) 10 (2009) 401 16 21 34 39 74 179 233 862 1480
2026-03-18 00:00 4.83 118 9740 (2008) 10 (2009) 401 16 21 34 39 74 179 233 862 1480
2026-03-17 23:00 4.83 118 9740 (2008) 10 (2009) 401 16 21 34 39 74 179 233 862 1480
2026-03-17 22:00 4.84 120 2330 (2013) 11 (2009) 231 18 23 31 35 70 163 244 667 1300
2026-03-17 21:00 4.86 125 2330 (2013) 11 (2009) 231 18 23 31 35 70 163 244 667 1300
2026-03-17 20:00 4.86 125 2330 (2013) 11 (2009) 231 18 23 31 35 70 163 244 667 1300
2026-03-17 19:00 4.87 127 2330 (2013) 11 (2009) 231 18 23 31 35 70 163 244 667 1300
2026-03-17 18:00 4.88 129 2330 (2013) 11 (2009) 231 18 23 31 35 70 163 244 667 1300
2026-03-17 17:00 4.89 131 2330 (2013) 11 (2009) 231 18 23 31 35 70 163 244 667 1300
2026-03-17 16:00 4.90 133 2330 (2013) 11 (2009) 231 18 23 31 35 70 163 244 667 1300
2026-03-17 15:00 4.92 138 2330 (2013) 11 (2009) 231 18 23 31 35 70 163 244 667 1300
2026-03-17 14:00 4.92 138 2330 (2013) 11 (2009) 231 18 23 31 35 70 163 244 667 1300
2026-03-17 13:00 4.94 143 2330 (2013) 11 (2009) 231 18 23 31 35 70 163 244 667 1300
2026-03-17 12:00 4.95 145 2330 (2013) 11 (2009) 231 18 23 31 35 70 163 244 667 1300
2026-03-17 11:00 4.97 150 2330 (2013) 11 (2009) 231 18 23 31 35 70 163 244 667 1300
2026-03-17 10:00 4.97 150 2330 (2013) 11 (2009) 231 18 23 31 35 70 163 244 667 1300
2026-03-17 09:00 4.98 152 2330 (2013) 11 (2009) 231 18 23 31 35 70 163 244 667 1300
2026-03-17 08:00 4.99 155 2330 (2013) 11 (2009) 231 18 23 31 35 70 163 244 667 1300
2026-03-17 07:00 5.00 157 2330 (2013) 11 (2009) 231 18 23 31 35 70 163 244 667 1300
2026-03-17 06:00 5.03 165 2330 (2013) 11 (2009) 231 18 23 31 35 70 163 244 667 1300
2026-03-17 05:00 5.05 170 2330 (2013) 11 (2009) 231 18 23 31 35 70 163 244 667 1300
2026-03-17 04:00 5.05 170 2330 (2013) 11 (2009) 231 18 23 31 35 70 163 244 667 1300
2026-03-17 03:00 5.08 178 2330 (2013) 11 (2009) 231 18 23 31 35 70 163 244 667 1300
2026-03-17 02:00 5.09 180 2330 (2013) 11 (2009) 231 18 23 31 35 70 163 244 667 1300
2026-03-17 01:00 5.12 189 2330 (2013) 11 (2009) 231 18 23 31 35 70 163 244 667 1300
2026-03-17 00:00 5.13 192 2330 (2013) 11 (2009) 231 18 23 31 35 70 163 244 667 1300
2026-03-16 23:00 5.15 197 2330 (2013) 11 (2009) 231 18 23 31 35 70 163 244 667 1300
2026-03-16 22:00 5.19 209 1620 (1968) 12 (2009) 169 20 21 31 35 78 213 275 360 615
2026-03-16 21:00 5.20 212 1620 (1968) 12 (2009) 169 20 21 31 35 78 213 275 360 615
2026-03-16 20:00 5.23 221 1620 (1968) 12 (2009) 169 20 21 31 35 78 213 275 360 615
2026-03-16 19:00 5.25 228 1620 (1968) 12 (2009) 169 20 21 31 35 78 213 275 360 615
2026-03-16 18:00 5.27 234 1620 (1968) 12 (2009) 169 20 21 31 35 78 213 275 360 615
2026-03-16 17:00 5.31 247 1620 (1968) 12 (2009) 169 20 21 31 35 78 213 275 360 615
2026-03-16 16:00 5.36 265 1620 (1968) 12 (2009) 169 20 21 31 35 78 213 275 360 615
2026-03-16 15:00 5.40 279 1620 (1968) 12 (2009) 169 20 21 31 35 78 213 275 360 615
2026-03-16 14:00 5.45 297 1620 (1968) 12 (2009) 169 20 21 31 35 78 213 275 360 615
2026-03-16 13:00 5.50 317 1620 (1968) 12 (2009) 169 20 21 31 35 78 213 275 360 615
2026-03-16 12:00 5.55 337 1620 (1968) 12 (2009) 169 20 21 31 35 78 213 275 360 615
2026-03-16 11:00 5.61 362 1620 (1968) 12 (2009) 169 20 21 31 35 78 213 275 360 615
2026-03-16 10:00 5.70 403 1620 (1968) 12 (2009) 169 20 21 31 35 78 213 275 360 615
2026-03-16 09:00 5.77 436 1620 (1968) 12 (2009) 169 20 21 31 35 78 213 275 360 615
2026-03-16 08:00 5.86 481 1620 (1968) 12 (2009) 169 20 21 31 35 78 213 275 360 615
2026-03-16 07:00 5.95 530 1620 (1968) 12 (2009) 169 20 21 31 35 78 213 275 360 615
2026-03-16 06:00 6.07 599 1620 (1968) 12 (2009) 169 20 21 31 35 78 213 275 360 615
2026-03-16 05:00 6.20 669 1620 (1968) 12 (2009) 169 20 21 31 35 78 213 275 360 615
2026-03-16 04:00 6.30 725 1620 (1968) 12 (2009) 169 20 21 31 35 78 213 275 360 615
2026-03-16 03:00 6.36 760 1620 (1968) 12 (2009) 169 20 21 31 35 78 213 275 360 615
2026-03-16 02:00 6.22 680 1620 (1968) 12 (2009) 169 20 21 31 35 78 213 275 360 615
2026-03-16 01:00 5.88 492 1620 (1968) 12 (2009) 169 20 21 31 35 78 213 275 360 615
2026-03-16 00:00 5.50 317 1620 (1968) 12 (2009) 169 20 21 31 35 78 213 275 360 615
2026-03-15 23:00 5.31 247 1620 (1968) 12 (2009) 169 20 21 31 35 78 213 275 360 615
2026-03-15 22:00 5.13 192 2610 (1968) 13 (2009) 217 22 24 29 36 89 222 273 481 975
2026-03-15 21:00 5.00 157 2610 (1968) 13 (2009) 217 22 24 29 36 89 222 273 481 975
2026-03-15 20:00 4.86 125 2610 (1968) 13 (2009) 217 22 24 29 36 89 222 273 481 975
2026-03-15 19:00 4.76 104 2610 (1968) 13 (2009) 217 22 24 29 36 89 222 273 481 975
2026-03-15 18:00 4.68 90 2610 (1968) 13 (2009) 217 22 24 29 36 89 222 273 481 975
2026-03-15 17:00 4.63 82 2610 (1968) 13 (2009) 217 22 24 29 36 89 222 273 481 975
2026-03-15 16:00 4.60 77 2610 (1968) 13 (2009) 217 22 24 29 36 89 222 273 481 975
2026-03-15 15:00 4.55 70 2610 (1968) 13 (2009) 217 22 24 29 36 89 222 273 481 975
2026-03-15 14:00 4.56 71 2610 (1968) 13 (2009) 217 22 24 29 36 89 222 273 481 975
2026-03-15 13:00 4.56 71 2610 (1968) 13 (2009) 217 22 24 29 36 89 222 273 481 975
2026-03-15 12:00 4.56 71 2610 (1968) 13 (2009) 217 22 24 29 36 89 222 273 481 975
2026-03-15 11:00 4.57 73 2610 (1968) 13 (2009) 217 22 24 29 36 89 222 273 481 975
2026-03-15 10:00 4.57 73 2610 (1968) 13 (2009) 217 22 24 29 36 89 222 273 481 975
2026-03-15 09:00 4.58 74 2610 (1968) 13 (2009) 217 22 24 29 36 89 222 273 481 975
2026-03-15 08:00 4.59 76 2610 (1968) 13 (2009) 217 22 24 29 36 89 222 273 481 975
2026-03-15 07:00 4.59 76 2610 (1968) 13 (2009) 217 22 24 29 36 89 222 273 481 975
2026-03-15 06:00 4.59 76 2610 (1968) 13 (2009) 217 22 24 29 36 89 222 273 481 975
2026-03-15 05:00 4.60 77 2610 (1968) 13 (2009) 217 22 24 29 36 89 222 273 481 975
2026-03-15 04:00 4.60 77 2610 (1968) 13 (2009) 217 22 24 29 36 89 222 273 481 975
2026-03-15 03:00 4.60 77 2610 (1968) 13 (2009) 217 22 24 29 36 89 222 273 481 975
2026-03-15 02:00 4.62 80 2610 (1968) 13 (2009) 217 22 24 29 36 89 222 273 481 975
2026-03-15 01:00 4.61 79 2610 (1968) 13 (2009) 217 22 24 29 36 89 222 273 481 975
2026-03-15 00:00 4.62 80 2610 (1968) 13 (2009) 217 22 24 29 36 89 222 273 481 975
2026-03-14 23:00 4.62 80 2610 (1968) 13 (2009) 217 22 24 29 36 89 222 273 481 975
2026-03-14 22:00 4.62 80 2990 (2011) 14 (2009) 238 22 24 31 36 78 195 251 852 1090
2026-03-14 21:00 4.63 82 2990 (2011) 14 (2009) 238 22 24 31 36 78 195 251 852 1090
2026-03-14 20:00 4.63 82 2990 (2011) 14 (2009) 238 22 24 31 36 78 195 251 852 1090
2026-03-14 19:00 4.64 83 2990 (2011) 14 (2009) 238 22 24 31 36 78 195 251 852 1090
2026-03-14 18:00 4.65 85 2990 (2011) 14 (2009) 238 22 24 31 36 78 195 251 852 1090
2026-03-14 17:00 4.65 85 2990 (2011) 14 (2009) 238 22 24 31 36 78 195 251 852 1090
2026-03-14 16:00 4.65 85 2990 (2011) 14 (2009) 238 22 24 31 36 78 195 251 852 1090
2026-03-14 15:00 4.65 85 2990 (2011) 14 (2009) 238 22 24 31 36 78 195 251 852 1090
2026-03-14 14:00 4.65 85 2990 (2011) 14 (2009) 238 22 24 31 36 78 195 251 852 1090
2026-03-14 13:00 4.66 87 2990 (2011) 14 (2009) 238 22 24 31 36 78 195 251 852 1090
2026-03-14 12:00 4.67 88 2990 (2011) 14 (2009) 238 22 24 31 36 78 195 251 852 1090
2026-03-14 11:00 4.67 88 2990 (2011) 14 (2009) 238 22 24 31 36 78 195 251 852 1090
2026-03-14 10:00 4.67 88 2990 (2011) 14 (2009) 238 22 24 31 36 78 195 251 852 1090
2026-03-14 09:00 4.67 88 2990 (2011) 14 (2009) 238 22 24 31 36 78 195 251 852 1090
2026-03-14 08:00 4.68 90 2990 (2011) 14 (2009) 238 22 24 31 36 78 195 251 852 1090
2026-03-14 07:00 4.68 90 2990 (2011) 14 (2009) 238 22 24 31 36 78 195 251 852 1090
2026-03-14 06:00 4.70 93 2990 (2011) 14 (2009) 238 22 24 31 36 78 195 251 852 1090
2026-03-14 05:00 4.69 92 2990 (2011) 14 (2009) 238 22 24 31 36 78 195 251 852 1090
2026-03-14 04:00 4.70 93 2990 (2011) 14 (2009) 238 22 24 31 36 78 195 251 852 1090
2026-03-14 03:00 4.71 95 2990 (2011) 14 (2009) 238 22 24 31 36 78 195 251 852 1090
2026-03-14 02:00 4.72 97 2990 (2011) 14 (2009) 238 22 24 31 36 78 195 251 852 1090
2026-03-14 01:00 4.72 97 2990 (2011) 14 (2009) 238 22 24 31 36 78 195 251 852 1090
2026-03-14 00:00 4.73 99 2990 (2011) 14 (2009) 238 22 24 31 36 78 195 251 852 1090
2026-03-13 23:00 4.74 101 2990 (2011) 14 (2009) 238 22 24 31 36 78 195 251 852 1090
2026-03-13 22:00 4.74 101 2320 (2019) 15 (2009) 221 23 25 34 37 84 187 222 568 1220
2026-03-13 21:00 4.75 103 2320 (2019) 15 (2009) 221 23 25 34 37 84 187 222 568 1220
2026-03-13 20:00 4.76 104 2320 (2019) 15 (2009) 221 23 25 34 37 84 187 222 568 1220
2026-03-13 19:00 4.77 106 2320 (2019) 15 (2009) 221 23 25 34 37 84 187 222 568 1220
2026-03-13 18:00 4.77 106 2320 (2019) 15 (2009) 221 23 25 34 37 84 187 222 568 1220
2026-03-13 17:00 4.78 108 2320 (2019) 15 (2009) 221 23 25 34 37 84 187 222 568 1220
2026-03-13 16:00 4.79 110 2320 (2019) 15 (2009) 221 23 25 34 37 84 187 222 568 1220
2026-03-13 15:00 4.81 114 2320 (2019) 15 (2009) 221 23 25 34 37 84 187 222 568 1220
2026-03-13 14:00 4.80 112 2320 (2019) 15 (2009) 221 23 25 34 37 84 187 222 568 1220
2026-03-13 13:00 4.82 116 2320 (2019) 15 (2009) 221 23 25 34 37 84 187 222 568 1220
2026-03-13 12:00 4.83 118 2320 (2019) 15 (2009) 221 23 25 34 37 84 187 222 568 1220
2026-03-13 11:00 4.83 118 2320 (2019) 15 (2009) 221 23 25 34 37 84 187 222 568 1220
2026-03-13 10:00 4.84 120 2320 (2019) 15 (2009) 221 23 25 34 37 84 187 222 568 1220
2026-03-13 09:00 4.84 120 2320 (2019) 15 (2009) 221 23 25 34 37 84 187 222 568 1220
2026-03-13 08:00 4.85 122 2320 (2019) 15 (2009) 221 23 25 34 37 84 187 222 568 1220
2026-03-13 07:00 4.87 127 2320 (2019) 15 (2009) 221 23 25 34 37 84 187 222 568 1220
2026-03-13 06:00 4.86 125 2320 (2019) 15 (2009) 221 23 25 34 37 84 187 222 568 1220
2026-03-13 05:00 4.87 127 2320 (2019) 15 (2009) 221 23 25 34 37 84 187 222 568 1220
2026-03-13 04:00 4.88 129 2320 (2019) 15 (2009) 221 23 25 34 37 84 187 222 568 1220
2026-03-13 03:00 4.89 131 2320 (2019) 15 (2009) 221 23 25 34 37 84 187 222 568 1220
2026-03-13 02:00 4.89 131 2320 (2019) 15 (2009) 221 23 25 34 37 84 187 222 568 1220
2026-03-13 01:00 4.90 133 2320 (2019) 15 (2009) 221 23 25 34 37 84 187 222 568 1220
2026-03-13 00:00 4.92 138 2320 (2019) 15 (2009) 221 23 25 34 37 84 187 222 568 1220
2026-03-12 23:00 4.94 143 2320 (2019) 15 (2009) 221 23 25 34 37 84 187 222 568 1220
2026-03-12 22:00 4.93 140 6030 (1975) 17 (1972) 281 18 19 30 33 68 162 281 682 1140
2026-03-12 21:00 4.94 143 6030 (1975) 17 (1972) 281 18 19 30 33 68 162 281 682 1140
2026-03-12 20:00 4.95 145 6030 (1975) 17 (1972) 281 18 19 30 33 68 162 281 682 1140
2026-03-12 19:00 4.96 147 6030 (1975) 17 (1972) 281 18 19 30 33 68 162 281 682 1140
2026-03-12 18:00 4.97 150 6030 (1975) 17 (1972) 281 18 19 30 33 68 162 281 682 1140
2026-03-12 17:00 4.98 152 6030 (1975) 17 (1972) 281 18 19 30 33 68 162 281 682 1140
2026-03-12 16:00 5.00 157 6030 (1975) 17 (1972) 281 18 19 30 33 68 162 281 682 1140
2026-03-12 15:00 5.01 159 6030 (1975) 17 (1972) 281 18 19 30 33 68 162 281 682 1140
2026-03-12 14:00 5.02 162 6030 (1975) 17 (1972) 281 18 19 30 33 68 162 281 682 1140
2026-03-12 13:00 5.04 167 6030 (1975) 17 (1972) 281 18 19 30 33 68 162 281 682 1140
2026-03-12 12:00 5.06 172 6030 (1975) 17 (1972) 281 18 19 30 33 68 162 281 682 1140
2026-03-12 11:00 5.07 175 6030 (1975) 17 (1972) 281 18 19 30 33 68 162 281 682 1140
2026-03-12 10:00 5.07 175 6030 (1975) 17 (1972) 281 18 19 30 33 68 162 281 682 1140
2026-03-12 09:00 5.10 183 6030 (1975) 17 (1972) 281 18 19 30 33 68 162 281 682 1140
2026-03-12 08:00 5.10 183 6030 (1975) 17 (1972) 281 18 19 30 33 68 162 281 682 1140
2026-03-12 07:00 5.12 189 6030 (1975) 17 (1972) 281 18 19 30 33 68 162 281 682 1140
2026-03-12 06:00 5.14 194 6030 (1975) 17 (1972) 281 18 19 30 33 68 162 281 682 1140
2026-03-12 05:00 5.16 200 6030 (1975) 17 (1972) 281 18 19 30 33 68 162 281 682 1140
2026-03-12 04:00 5.20 212 6030 (1975) 17 (1972) 281 18 19 30 33 68 162 281 682 1140
2026-03-12 03:00 5.21 215 6030 (1975) 17 (1972) 281 18 19 30 33 68 162 281 682 1140
2026-03-12 02:00 5.24 225 6030 (1975) 17 (1972) 281 18 19 30 33 68 162 281 682 1140
2026-03-12 01:00 5.29 241 6030 (1975) 17 (1972) 281 18 19 30 33 68 162 281 682 1140
2026-03-12 00:00 5.30 244 6030 (1975) 17 (1972) 281 18 19 30 33 68 162 281 682 1140
2026-03-11 23:00 5.34 258 6030 (1975) 17 (1972) 281 18 19 30 33 68 162 281 682 1140
2026-03-11 22:00 5.38 272 2000 (1973) 13 (2014) 221 17 18 28 33 62 205 213 888 1210
2026-03-11 21:00 5.44 294 2000 (1973) 13 (2014) 221 17 18 28 33 62 205 213 888 1210
2026-03-11 20:00 5.45 297 2000 (1973) 13 (2014) 221 17 18 28 33 62 205 213 888 1210
2026-03-11 19:00 5.45 297 2000 (1973) 13 (2014) 221 17 18 28 33 62 205 213 888 1210
2026-03-11 18:00 5.45 297 2000 (1973) 13 (2014) 221 17 18 28 33 62 205 213 888 1210
2026-03-11 17:00 5.43 290 2000 (1973) 13 (2014) 221 17 18 28 33 62 205 213 888 1210
2026-03-11 16:00 5.34 258 2000 (1973) 13 (2014) 221 17 18 28 33 62 205 213 888 1210
2026-03-11 15:00 5.17 203 2000 (1973) 13 (2014) 221 17 18 28 33 62 205 213 888 1210
2026-03-11 14:00 5.07 175 2000 (1973) 13 (2014) 221 17 18 28 33 62 205 213 888 1210
2026-03-11 13:00 4.99 155 2000 (1973) 13 (2014) 221 17 18 28 33 62 205 213 888 1210
2026-03-11 12:00 4.96 147 2000 (1973) 13 (2014) 221 17 18 28 33 62 205 213 888 1210
2026-03-11 11:00 4.94 143 2000 (1973) 13 (2014) 221 17 18 28 33 62 205 213 888 1210
2026-03-11 10:00 4.92 138 2000 (1973) 13 (2014) 221 17 18 28 33 62 205 213 888 1210
2026-03-11 09:00 4.89 131 2000 (1973) 13 (2014) 221 17 18 28 33 62 205 213 888 1210
2026-03-11 08:00 4.88 129 2000 (1973) 13 (2014) 221 17 18 28 33 62 205 213 888 1210
2026-03-11 07:00 4.86 125 2000 (1973) 13 (2014) 221 17 18 28 33 62 205 213 888 1210
2026-03-11 06:00 4.86 125 2000 (1973) 13 (2014) 221 17 18 28 33 62 205 213 888 1210
2026-03-11 05:00 4.86 125 2000 (1973) 13 (2014) 221 17 18 28 33 62 205 213 888 1210
2026-03-11 04:00 4.85 122 2000 (1973) 13 (2014) 221 17 18 28 33 62 205 213 888 1210
2026-03-11 03:00 4.84 120 2000 (1973) 13 (2014) 221 17 18 28 33 62 205 213 888 1210
2026-03-11 02:00 4.85 122 2000 (1973) 13 (2014) 221 17 18 28 33 62 205 213 888 1210
2026-03-11 01:00 4.86 125 2000 (1973) 13 (2014) 221 17 18 28 33 62 205 213 888 1210
2026-03-11 00:00 4.87 127 2000 (1973) 13 (2014) 221 17 18 28 33 62 205 213 888 1210
2026-03-10 23:00 4.86 125 2000 (1973) 13 (2014) 221 17 18 28 33 62 205 213 888 1210
2026-03-10 22:00 4.87 127 4000 (1973) 10 (2009) 285 13 16 29 34 75 287 354 482 1670
2026-03-10 21:00 4.88 129 4000 (1973) 10 (2009) 285 13 16 29 34 75 287 354 482 1670
2026-03-10 20:00 4.88 129 4000 (1973) 10 (2009) 285 13 16 29 34 75 287 354 482 1670
2026-03-10 19:00 4.89 131 4000 (1973) 10 (2009) 285 13 16 29 34 75 287 354 482 1670
2026-03-10 18:00 4.90 133 4000 (1973) 10 (2009) 285 13 16 29 34 75 287 354 482 1670
2026-03-10 17:00 4.91 136 4000 (1973) 10 (2009) 285 13 16 29 34 75 287 354 482 1670
2026-03-10 16:00 4.93 140 4000 (1973) 10 (2009) 285 13 16 29 34 75 287 354 482 1670
2026-03-10 15:00 4.92 138 4000 (1973) 10 (2009) 285 13 16 29 34 75 287 354 482 1670
2026-03-10 14:00 4.93 140 4000 (1973) 10 (2009) 285 13 16 29 34 75 287 354 482 1670
2026-03-10 13:00 4.93 140 4000 (1973) 10 (2009) 285 13 16 29 34 75 287 354 482 1670
2026-03-10 12:00 4.95 145 4000 (1973) 10 (2009) 285 13 16 29 34 75 287 354 482 1670
2026-03-10 11:00 4.95 145 4000 (1973) 10 (2009) 285 13 16 29 34 75 287 354 482 1670
2026-03-10 10:00 4.96 147 4000 (1973) 10 (2009) 285 13 16 29 34 75 287 354 482 1670
2026-03-10 09:00 4.97 150 4000 (1973) 10 (2009) 285 13 16 29 34 75 287 354 482 1670
2026-03-10 08:00 4.98 152 4000 (1973) 10 (2009) 285 13 16 29 34 75 287 354 482 1670
2026-03-10 07:00 4.99 155 4000 (1973) 10 (2009) 285 13 16 29 34 75 287 354 482 1670
2026-03-10 06:00 5.00 157 4000 (1973) 10 (2009) 285 13 16 29 34 75 287 354 482 1670
2026-03-10 05:00 5.00 157 4000 (1973) 10 (2009) 285 13 16 29 34 75 287 354 482 1670
2026-03-10 04:00 5.01 159 4000 (1973) 10 (2009) 285 13 16 29 34 75 287 354 482 1670
2026-03-10 03:00 5.02 162 4000 (1973) 10 (2009) 285 13 16 29 34 75 287 354 482 1670
2026-03-10 02:00 5.04 167 4000 (1973) 10 (2009) 285 13 16 29 34 75 287 354 482 1670
2026-03-10 01:00 5.06 172 4000 (1973) 10 (2009) 285 13 16 29 34 75 287 354 482 1670
2026-03-10 00:00 5.06 172 4000 (1973) 10 (2009) 285 13 16 29 34 75 287 354 482 1670
2026-03-09 23:00 5.09 180 4000 (1973) 10 (2009) 285 13 16 29 34 75 287 354 482 1670
2026-03-09 22:00 5.09 180 3350 (2019) 10 (1968) 243 14 17 36 40 75 199 281 528 1270
2026-03-09 21:00 5.10 183 3350 (2019) 10 (1968) 243 14 17 36 40 75 199 281 528 1270
2026-03-09 20:00 5.10 183 3350 (2019) 10 (1968) 243 14 17 36 40 75 199 281 528 1270
2026-03-09 19:00 5.14 194 3350 (2019) 10 (1968) 243 14 17 36 40 75 199 281 528 1270
2026-03-09 18:00 5.14 194 3350 (2019) 10 (1968) 243 14 17 36 40 75 199 281 528 1270
2026-03-09 17:00 5.16 200 3350 (2019) 10 (1968) 243 14 17 36 40 75 199 281 528 1270
2026-03-09 16:00 5.19 209 3350 (2019) 10 (1968) 243 14 17 36 40 75 199 281 528 1270
2026-03-09 15:00 5.19 209 3350 (2019) 10 (1968) 243 14 17 36 40 75 199 281 528 1270
2026-03-09 14:00 5.19 209 3350 (2019) 10 (1968) 243 14 17 36 40 75 199 281 528 1270
2026-03-09 13:00 5.24 225 3350 (2019) 10 (1968) 243 14 17 36 40 75 199 281 528 1270
2026-03-09 12:00 5.25 228 3350 (2019) 10 (1968) 243 14 17 36 40 75 199 281 528 1270
2026-03-09 11:00 5.25 228 3350 (2019) 10 (1968) 243 14 17 36 40 75 199 281 528 1270
2026-03-09 10:00 5.27 234 3350 (2019) 10 (1968) 243 14 17 36 40 75 199 281 528 1270
2026-03-09 09:00 5.28 237 3350 (2019) 10 (1968) 243 14 17 36 40 75 199 281 528 1270
2026-03-09 08:00 5.29 241 3350 (2019) 10 (1968) 243 14 17 36 40 75 199 281 528 1270
2026-03-09 07:00 5.33 254 3350 (2019) 10 (1968) 243 14 17 36 40 75 199 281 528 1270
2026-03-09 06:00 5.36 265 3350 (2019) 10 (1968) 243 14 17 36 40 75 199 281 528 1270
2026-03-09 05:00 5.38 272 3350 (2019) 10 (1968) 243 14 17 36 40 75 199 281 528 1270
2026-03-09 04:00 5.43 290 3350 (2019) 10 (1968) 243 14 17 36 40 75 199 281 528 1270
2026-03-09 03:00 5.43 290 3350 (2019) 10 (1968) 243 14 17 36 40 75 199 281 528 1270
2026-03-09 02:00 5.47 305 3350 (2019) 10 (1968) 243 14 17 36 40 75 199 281 528 1270
2026-03-09 01:00 5.49 313 3350 (2019) 10 (1968) 243 14 17 36 40 75 199 281 528 1270
2026-03-09 00:00 5.52 325 3350 (2019) 10 (1968) 243 14 17 36 40 75 199 281 528 1270
2026-03-08 23:00 5.57 345 3350 (2019) 10 (1968) 243 14 17 36 40 75 199 281 528 1270
2026-03-08 22:00 5.57 345 2990 (1998) 9 (1968) 226 14 17 33 40 74 154 232 493 1380
2026-03-08 21:00 5.62 367 2990 (1998) 9 (1968) 226 14 17 33 40 74 154 232 493 1380
2026-03-08 20:00 5.68 394 2990 (1998) 9 (1968) 226 14 17 33 40 74 154 232 493 1380
2026-03-08 19:00 5.72 412 2990 (1998) 9 (1968) 226 14 17 33 40 74 154 232 493 1380
2026-03-08 18:00 5.79 446 2990 (1998) 9 (1968) 226 14 17 33 40 74 154 232 493 1380
2026-03-08 17:00 5.83 466 2990 (1998) 9 (1968) 226 14 17 33 40 74 154 232 493 1380
2026-03-08 16:00 5.86 481 2990 (1998) 9 (1968) 226 14 17 33 40 74 154 232 493 1380
2026-03-08 15:00 5.91 508 2990 (1998) 9 (1968) 226 14 17 33 40 74 154 232 493 1380
2026-03-08 14:00 5.97 541 2990 (1998) 9 (1968) 226 14 17 33 40 74 154 232 493 1380
2026-03-08 13:00 6.03 576 2990 (1998) 9 (1968) 226 14 17 33 40 74 154 232 493 1380
2026-03-08 12:00 6.10 615 2990 (1998) 9 (1968) 226 14 17 33 40 74 154 232 493 1380
2026-03-08 11:00 6.16 647 2990 (1998) 9 (1968) 226 14 17 33 40 74 154 232 493 1380
2026-03-08 10:00 6.23 685 2990 (1998) 9 (1968) 226 14 17 33 40 74 154 232 493 1380
2026-03-08 09:00 6.30 725 2990 (1998) 9 (1968) 226 14 17 33 40 74 154 232 493 1380
2026-03-08 08:00 6.38 772 2990 (1998) 9 (1968) 226 14 17 33 40 74 154 232 493 1380
2026-03-08 07:00 6.47 826 2990 (1998) 9 (1968) 226 14 17 33 40 74 154 232 493 1380
2026-03-08 06:00 6.56 880 2990 (1998) 9 (1968) 226 14 17 33 40 74 154 232 493 1380
2026-03-08 05:00 6.65 933 2990 (1998) 9 (1968) 226 14 17 33 40 74 154 232 493 1380
2026-03-08 04:00 6.75 995 2990 (1998) 9 (1968) 226 14 17 33 40 74 154 232 493 1380
2026-03-08 03:00 6.86 1070 2990 (1998) 9 (1968) 226 14 17 33 40 74 154 232 493 1380
2026-03-08 01:00 6.98 1150 2990 (1998) 9 (1968) 226 14 17 33 40 74 154 232 493 1380
2026-03-08 00:00 7.11 1240 2990 (1998) 9 (1968) 226 14 17 33 40 74 154 232 493 1380
2026-03-07 23:00 7.24 1330 2990 (1998) 9 (1968) 226 14 17 33 40 74 154 232 493 1380
2026-03-07 22:00 7.37 1420 3540 (1995) 8 (1980) 246 9 14 28 35 79 161 205 426 1730
2026-03-07 21:00 7.55 1540 3540 (1995) 8 (1980) 246 9 14 28 35 79 161 205 426 1730
2026-03-07 20:00 7.74 1670 3540 (1995) 8 (1980) 246 9 14 28 35 79 161 205 426 1730
2026-03-07 19:00 7.94 1820 3540 (1995) 8 (1980) 246 9 14 28 35 79 161 205 426 1730
2026-03-07 18:00 8.18 1990 3540 (1995) 8 (1980) 246 9 14 28 35 79 161 205 426 1730
2026-03-07 17:00 8.45 2150 3540 (1995) 8 (1980) 246 9 14 28 35 79 161 205 426 1730
2026-03-07 16:00 8.76 2340 3540 (1995) 8 (1980) 246 9 14 28 35 79 161 205 426 1730
2026-03-07 15:00 9.22 2630 3540 (1995) 8 (1980) 246 9 14 28 35 79 161 205 426 1730
2026-03-07 14:00 10.01 3160 3540 (1995) 8 (1980) 246 9 14 28 35 79 161 205 426 1730
2026-03-07 13:00 11.36 4100 3540 (1995) 8 (1980) 246 9 14 28 35 79 161 205 426 1730
2026-03-07 12:00 12.92 5290 3540 (1995) 8 (1980) 246 9 14 28 35 79 161 205 426 1730
2026-03-07 11:00 13.86 6060 3540 (1995) 8 (1980) 246 9 14 28 35 79 161 205 426 1730
2026-03-07 10:00 13.91 6100 3540 (1995) 8 (1980) 246 9 14 28 35 79 161 205 426 1730
2026-03-07 09:00 13.32 5610 3540 (1995) 8 (1980) 246 9 14 28 35 79 161 205 426 1730
2026-03-07 08:00 12.14 4680 3540 (1995) 8 (1980) 246 9 14 28 35 79 161 205 426 1730
2026-03-07 07:00 10.37 3400 3540 (1995) 8 (1980) 246 9 14 28 35 79 161 205 426 1730
2026-03-07 06:00 8.45 2150 3540 (1995) 8 (1980) 246 9 14 28 35 79 161 205 426 1730
2026-03-07 05:00 7.05 1190 3540 (1995) 8 (1980) 246 9 14 28 35 79 161 205 426 1730
2026-03-07 04:00 5.87 487 3540 (1995) 8 (1980) 246 9 14 28 35 79 161 205 426 1730
2026-03-07 03:00 5.38 272 3540 (1995) 8 (1980) 246 9 14 28 35 79 161 205 426 1730
2026-03-07 02:00 5.23 221 3540 (1995) 8 (1980) 246 9 14 28 35 79 161 205 426 1730
2026-03-07 01:00 5.20 212 3540 (1995) 8 (1980) 246 9 14 28 35 79 161 205 426 1730
2026-03-07 00:00 5.21 215 3540 (1995) 8 (1980) 246 9 14 28 35 79 161 205 426 1730
2026-03-06 23:00 5.23 221 3540 (1995) 8 (1980) 246 9 14 28 35 79 161 205 426 1730
2026-03-06 22:00 5.24 225 1080 (1971) 4 (2024) 165 9 14 29 37 74 162 210 495 742
2026-03-06 21:00 5.28 237 1080 (1971) 4 (2024) 165 9 14 29 37 74 162 210 495 742
2026-03-06 20:00 5.31 247 1080 (1971) 4 (2024) 165 9 14 29 37 74 162 210 495 742
2026-03-06 19:00 5.34 258 1080 (1971) 4 (2024) 165 9 14 29 37 74 162 210 495 742
2026-03-06 18:00 5.36 265 1080 (1971) 4 (2024) 165 9 14 29 37 74 162 210 495 742
2026-03-06 17:00 5.41 283 1080 (1971) 4 (2024) 165 9 14 29 37 74 162 210 495 742
2026-03-06 16:00 5.44 294 1080 (1971) 4 (2024) 165 9 14 29 37 74 162 210 495 742
2026-03-06 15:00 5.47 305 1080 (1971) 4 (2024) 165 9 14 29 37 74 162 210 495 742
2026-03-06 14:00 5.51 321 1080 (1971) 4 (2024) 165 9 14 29 37 74 162 210 495 742
2026-03-06 13:00 5.56 341 1080 (1971) 4 (2024) 165 9 14 29 37 74 162 210 495 742
2026-03-06 12:00 5.60 358 1080 (1971) 4 (2024) 165 9 14 29 37 74 162 210 495 742
2026-03-06 11:00 5.65 380 1080 (1971) 4 (2024) 165 9 14 29 37 74 162 210 495 742
2026-03-06 10:00 5.70 403 1080 (1971) 4 (2024) 165 9 14 29 37 74 162 210 495 742
2026-03-06 09:00 5.75 426 1080 (1971) 4 (2024) 165 9 14 29 37 74 162 210 495 742
2026-03-06 08:00 5.80 451 1080 (1971) 4 (2024) 165 9 14 29 37 74 162 210 495 742
2026-03-06 07:00 5.86 481 1080 (1971) 4 (2024) 165 9 14 29 37 74 162 210 495 742
2026-03-06 06:00 5.91 508 1080 (1971) 4 (2024) 165 9 14 29 37 74 162 210 495 742
2026-03-06 05:00 6.01 564 1080 (1971) 4 (2024) 165 9 14 29 37 74 162 210 495 742
2026-03-06 04:00 6.06 593 1080 (1971) 4 (2024) 165 9 14 29 37 74 162 210 495 742
2026-03-06 03:00 6.15 642 1080 (1971) 4 (2024) 165 9 14 29 37 74 162 210 495 742
2026-03-06 02:00 6.21 674 1080 (1971) 4 (2024) 165 9 14 29 37 74 162 210 495 742
2026-03-06 01:00 6.29 719 1080 (1971) 4 (2024) 165 9 14 29 37 74 162 210 495 742
2026-03-06 00:00 6.39 778 1080 (1971) 4 (2024) 165 9 14 29 37 74 162 210 495 742
2026-03-05 23:00 6.47 826 1080 (1971) 4 (2024) 165 9 14 29 37 74 162 210 495 742
2026-03-05 22:00 6.59 897 2970 (2011) 4 (2024) 217 9 14 23 34 68 170 189 507 991
2026-03-05 21:00 6.69 957 2970 (2011) 4 (2024) 217 9 14 23 34 68 170 189 507 991
2026-03-05 20:00 6.84 1050 2970 (2011) 4 (2024) 217 9 14 23 34 68 170 189 507 991
2026-03-05 19:00 6.98 1150 2970 (2011) 4 (2024) 217 9 14 23 34 68 170 189 507 991
2026-03-05 18:00 7.13 1250 2970 (2011) 4 (2024) 217 9 14 23 34 68 170 189 507 991
2026-03-05 17:00 7.34 1400 2970 (2011) 4 (2024) 217 9 14 23 34 68 170 189 507 991
2026-03-05 16:00 7.46 1480 2970 (2011) 4 (2024) 217 9 14 23 34 68 170 189 507 991
2026-03-05 15:00 7.66 1610 2970 (2011) 4 (2024) 217 9 14 23 34 68 170 189 507 991
2026-03-05 14:00 7.88 1770 2970 (2011) 4 (2024) 217 9 14 23 34 68 170 189 507 991
2026-03-05 13:00 8.16 1980 2970 (2011) 4 (2024) 217 9 14 23 34 68 170 189 507 991
2026-03-05 12:00 8.52 2190 2970 (2011) 4 (2024) 217 9 14 23 34 68 170 189 507 991
2026-03-05 11:00 9.02 2500 2970 (2011) 4 (2024) 217 9 14 23 34 68 170 189 507 991
2026-03-05 10:00 9.74 2970 2970 (2011) 4 (2024) 217 9 14 23 34 68 170 189 507 991
2026-03-05 09:00 10.91 3780 2970 (2011) 4 (2024) 217 9 14 23 34 68 170 189 507 991
2026-03-05 08:00 12.00 4580 2970 (2011) 4 (2024) 217 9 14 23 34 68 170 189 507 991
2026-03-05 07:00 12.49 4950 2970 (2011) 4 (2024) 217 9 14 23 34 68 170 189 507 991
2026-03-05 06:00 12.11 4660 2970 (2011) 4 (2024) 217 9 14 23 34 68 170 189 507 991
2026-03-05 05:00 11.14 3940 2970 (2011) 4 (2024) 217 9 14 23 34 68 170 189 507 991
2026-03-05 04:00 9.05 2520 2970 (2011) 4 (2024) 217 9 14 23 34 68 170 189 507 991
2026-03-05 03:00 6.95 1130 2970 (2011) 4 (2024) 217 9 14 23 34 68 170 189 507 991
2026-03-05 02:00 6.53 862 2970 (2011) 4 (2024) 217 9 14 23 34 68 170 189 507 991
2026-03-05 01:00 6.27 708 2970 (2011) 4 (2024) 217 9 14 23 34 68 170 189 507 991
2026-03-05 00:00 6.03 576 2970 (2011) 4 (2024) 217 9 14 23 34 68 170 189 507 991
2026-03-04 23:00 5.91 508 2970 (2011) 4 (2024) 217 9 14 23 34 68 170 189 507 991
2026-03-04 22:00 5.53 329 6000 (1984) 4 (2024) 318 7 12 21 34 67 173 273 736 1530
2026-03-04 21:00 5.25 228 6000 (1984) 4 (2024) 318 7 12 21 34 67 173 273 736 1530
2026-03-04 20:00 5.05 170 6000 (1984) 4 (2024) 318 7 12 21 34 67 173 273 736 1530
2026-03-04 19:00 5.01 159 6000 (1984) 4 (2024) 318 7 12 21 34 67 173 273 736 1530
2026-03-04 18:00 4.94 143 6000 (1984) 4 (2024) 318 7 12 21 34 67 173 273 736 1530
2026-03-04 17:00 4.82 116 6000 (1984) 4 (2024) 318 7 12 21 34 67 173 273 736 1530
2026-03-04 16:00 4.75 103 6000 (1984) 4 (2024) 318 7 12 21 34 67 173 273 736 1530
2026-03-04 15:00 4.72 97 6000 (1984) 4 (2024) 318 7 12 21 34 67 173 273 736 1530
2026-03-04 14:00 4.57 73 6000 (1984) 4 (2024) 318 7 12 21 34 67 173 273 736 1530
2026-03-04 13:00 4.21 34 6000 (1984) 4 (2024) 318 7 12 21 34 67 173 273 736 1530
2026-03-04 12:00 4.08 24 6000 (1984) 4 (2024) 318 7 12 21 34 67 173 273 736 1530
2026-03-04 11:00 4.02 21 6000 (1984) 4 (2024) 318 7 12 21 34 67 173 273 736 1530
2026-03-04 10:00 3.97 18 6000 (1984) 4 (2024) 318 7 12 21 34 67 173 273 736 1530
2026-03-04 09:00 3.93 16 6000 (1984) 4 (2024) 318 7 12 21 34 67 173 273 736 1530
2026-03-04 08:00 3.92 15 6000 (1984) 4 (2024) 318 7 12 21 34 67 173 273 736 1530
2026-03-04 07:00 3.92 15 6000 (1984) 4 (2024) 318 7 12 21 34 67 173 273 736 1530
2026-03-04 06:00 3.92 15 6000 (1984) 4 (2024) 318 7 12 21 34 67 173 273 736 1530
2026-03-04 05:00 3.93 16 6000 (1984) 4 (2024) 318 7 12 21 34 67 173 273 736 1530
2026-03-04 04:00 3.93 16 6000 (1984) 4 (2024) 318 7 12 21 34 67 173 273 736 1530
2026-03-04 03:00 3.93 16 6000 (1984) 4 (2024) 318 7 12 21 34 67 173 273 736 1530
2026-03-04 02:00 3.93 16 6000 (1984) 4 (2024) 318 7 12 21 34 67 173 273 736 1530
2026-03-04 01:00 3.93 16 6000 (1984) 4 (2024) 318 7 12 21 34 67 173 273 736 1530
2026-03-04 00:00 3.94 16 6000 (1984) 4 (2024) 318 7 12 21 34 67 173 273 736 1530
2026-03-03 23:00 3.94 16 6000 (1984) 4 (2024) 318 7 12 21 34 67 173 273 736 1530
2026-03-03 22:00 3.94 16 6490 (2023) 4 (2024) 334 7 13 22 34 66 119 183 862 1710
2026-03-03 21:00 3.93 16 6490 (2023) 4 (2024) 334 7 13 22 34 66 119 183 862 1710
2026-03-03 20:00 3.93 16 6490 (2023) 4 (2024) 334 7 13 22 34 66 119 183 862 1710
2026-03-03 19:00 3.93 16 6490 (2023) 4 (2024) 334 7 13 22 34 66 119 183 862 1710
2026-03-03 18:00 3.92 15 6490 (2023) 4 (2024) 334 7 13 22 34 66 119 183 862 1710
2026-03-03 17:00 3.91 15 6490 (2023) 4 (2024) 334 7 13 22 34 66 119 183 862 1710
2026-03-03 16:00 3.91 15 6490 (2023) 4 (2024) 334 7 13 22 34 66 119 183 862 1710
2026-03-03 15:00 3.90 14 6490 (2023) 4 (2024) 334 7 13 22 34 66 119 183 862 1710
2026-03-03 14:00 3.90 14 6490 (2023) 4 (2024) 334 7 13 22 34 66 119 183 862 1710
2026-03-03 13:00 3.90 14 6490 (2023) 4 (2024) 334 7 13 22 34 66 119 183 862 1710
2026-03-03 12:00 3.90 14 6490 (2023) 4 (2024) 334 7 13 22 34 66 119 183 862 1710
2026-03-03 11:00 3.89 14 6490 (2023) 4 (2024) 334 7 13 22 34 66 119 183 862 1710
2026-03-03 10:00 3.89 14 6490 (2023) 4 (2024) 334 7 13 22 34 66 119 183 862 1710
2026-03-03 09:00 3.89 14 6490 (2023) 4 (2024) 334 7 13 22 34 66 119 183 862 1710
2026-03-03 08:00 3.89 14 6490 (2023) 4 (2024) 334 7 13 22 34 66 119 183 862 1710
2026-03-03 07:00 3.89 14 6490 (2023) 4 (2024) 334 7 13 22 34 66 119 183 862 1710
2026-03-03 06:00 3.89 14 6490 (2023) 4 (2024) 334 7 13 22 34 66 119 183 862 1710
2026-03-03 05:00 3.89 14 6490 (2023) 4 (2024) 334 7 13 22 34 66 119 183 862 1710
2026-03-03 04:00 3.89 14 6490 (2023) 4 (2024) 334 7 13 22 34 66 119 183 862 1710
2026-03-03 03:00 3.89 14 6490 (2023) 4 (2024) 334 7 13 22 34 66 119 183 862 1710
2026-03-03 02:00 3.90 14 6490 (2023) 4 (2024) 334 7 13 22 34 66 119 183 862 1710
2026-03-03 01:00 3.90 14 6490 (2023) 4 (2024) 334 7 13 22 34 66 119 183 862 1710
2026-03-03 00:00 3.90 14 6490 (2023) 4 (2024) 334 7 13 22 34 66 119 183 862 1710
2026-03-02 23:00 3.90 14 6490 (2023) 4 (2024) 334 7 13 22 34 66 119 183 862 1710
2026-03-02 22:00 3.90 14 2330 (2002) 4 (2024) 159 8 13 22 27 60 133 159 332 568
2026-03-02 21:00 3.90 14 2330 (2002) 4 (2024) 159 8 13 22 27 60 133 159 332 568
2026-03-02 20:00 3.90 14 2330 (2002) 4 (2024) 159 8 13 22 27 60 133 159 332 568
2026-03-02 19:00 3.90 14 2330 (2002) 4 (2024) 159 8 13 22 27 60 133 159 332 568
2026-03-02 18:00 3.90 14 2330 (2002) 4 (2024) 159 8 13 22 27 60 133 159 332 568
2026-03-02 17:00 3.90 14 2330 (2002) 4 (2024) 159 8 13 22 27 60 133 159 332 568
2026-03-02 16:00 3.90 14 2330 (2002) 4 (2024) 159 8 13 22 27 60 133 159 332 568
2026-03-02 15:00 3.89 14 2330 (2002) 4 (2024) 159 8 13 22 27 60 133 159 332 568
2026-03-02 14:00 3.89 14 2330 (2002) 4 (2024) 159 8 13 22 27 60 133 159 332 568
2026-03-02 13:00 3.89 14 2330 (2002) 4 (2024) 159 8 13 22 27 60 133 159 332 568
2026-03-02 12:00 3.88 14 2330 (2002) 4 (2024) 159 8 13 22 27 60 133 159 332 568
2026-03-02 11:00 3.88 14 2330 (2002) 4 (2024) 159 8 13 22 27 60 133 159 332 568
2026-03-02 10:00 3.88 14 2330 (2002) 4 (2024) 159 8 13 22 27 60 133 159 332 568
2026-03-02 09:00 3.88 14 2330 (2002) 4 (2024) 159 8 13 22 27 60 133 159 332 568
2026-03-02 08:00 3.87 13 2330 (2002) 4 (2024) 159 8 13 22 27 60 133 159 332 568
2026-03-02 07:00 3.87 13 2330 (2002) 4 (2024) 159 8 13 22 27 60 133 159 332 568
2026-03-02 06:00 3.87 13 2330 (2002) 4 (2024) 159 8 13 22 27 60 133 159 332 568
2026-03-02 05:00 3.87 13 2330 (2002) 4 (2024) 159 8 13 22 27 60 133 159 332 568
2026-03-02 04:00 3.85 12 2330 (2002) 4 (2024) 159 8 13 22 27 60 133 159 332 568
2026-03-02 03:00 3.85 12 2330 (2002) 4 (2024) 159 8 13 22 27 60 133 159 332 568
2026-03-02 02:00 3.84 12 2330 (2002) 4 (2024) 159 8 13 22 27 60 133 159 332 568
2026-03-02 01:00 3.84 12 2330 (2002) 4 (2024) 159 8 13 22 27 60 133 159 332 568
2026-03-02 00:00 3.83 11 2330 (2002) 4 (2024) 159 8 13 22 27 60 133 159 332 568
2026-03-01 23:00 3.83 11 2330 (2002) 4 (2024) 159 8 13 22 27 60 133 159 332 568
2026-03-01 22:00 3.81 11 554 (1966) 4 (2024) 106 8 13 21 28 60 158 168 238 457
2026-03-01 21:00 3.80 10 554 (1966) 4 (2024) 106 8 13 21 28 60 158 168 238 457
2026-03-01 20:00 3.79 10 554 (1966) 4 (2024) 106 8 13 21 28 60 158 168 238 457
2026-03-01 19:00 3.78 10 554 (1966) 4 (2024) 106 8 13 21 28 60 158 168 238 457
2026-03-01 18:00 3.78 10 554 (1966) 4 (2024) 106 8 13 21 28 60 158 168 238 457
2026-03-01 17:00 3.78 10 554 (1966) 4 (2024) 106 8 13 21 28 60 158 168 238 457
2026-03-01 16:00 3.78 10 554 (1966) 4 (2024) 106 8 13 21 28 60 158 168 238 457
2026-03-01 15:00 3.78 10 554 (1966) 4 (2024) 106 8 13 21 28 60 158 168 238 457
2026-03-01 14:00 3.78 10 554 (1966) 4 (2024) 106 8 13 21 28 60 158 168 238 457
2026-03-01 13:00 3.78 10 554 (1966) 4 (2024) 106 8 13 21 28 60 158 168 238 457
2026-03-01 12:00 3.78 10 554 (1966) 4 (2024) 106 8 13 21 28 60 158 168 238 457
2026-03-01 11:00 3.78 10 554 (1966) 4 (2024) 106 8 13 21 28 60 158 168 238 457
2026-03-01 10:00 3.78 10 554 (1966) 4 (2024) 106 8 13 21 28 60 158 168 238 457
2026-03-01 09:00 3.78 10 554 (1966) 4 (2024) 106 8 13 21 28 60 158 168 238 457
2026-03-01 08:00 3.78 10 554 (1966) 4 (2024) 106 8 13 21 28 60 158 168 238 457
2026-03-01 07:00 3.78 10 554 (1966) 4 (2024) 106 8 13 21 28 60 158 168 238 457
2026-03-01 06:00 3.78 10 554 (1966) 4 (2024) 106 8 13 21 28 60 158 168 238 457
2026-03-01 05:00 3.78 10 554 (1966) 4 (2024) 106 8 13 21 28 60 158 168 238 457
2026-03-01 04:00 3.79 10 554 (1966) 4 (2024) 106 8 13 21 28 60 158 168 238 457
2026-03-01 03:00 3.79 10 554 (1966) 4 (2024) 106 8 13 21 28 60 158 168 238 457
2026-03-01 02:00 3.79 10 554 (1966) 4 (2024) 106 8 13 21 28 60 158 168 238 457
2026-03-01 01:00 3.79 10 554 (1966) 4 (2024) 106 8 13 21 28 60 158 168 238 457
2026-03-01 00:00 3.79 10 554 (1966) 4 (2024) 106 8 13 21 28 60 158 168 238 457
2026-02-28 23:00 3.79 10 554 (1966) 4 (2024) 106 8 13 21 28 60 158 168 238 457
2026-02-28 22:00 3.80 10 640 (2011) 4 (2024) 113 8 14 25 30 66 132 146 257 384
2026-02-28 21:00 3.80 10 640 (2011) 4 (2024) 113 8 14 25 30 66 132 146 257 384
2026-02-28 20:00 3.80 10 640 (2011) 4 (2024) 113 8 14 25 30 66 132 146 257 384
2026-02-28 19:00 3.80 10 640 (2011) 4 (2024) 113 8 14 25 30 66 132 146 257 384
2026-02-28 18:00 3.80 10 640 (2011) 4 (2024) 113 8 14 25 30 66 132 146 257 384
2026-02-28 17:00 3.80 10 640 (2011) 4 (2024) 113 8 14 25 30 66 132 146 257 384
2026-02-28 16:00 3.80 10 640 (2011) 4 (2024) 113 8 14 25 30 66 132 146 257 384
2026-02-28 15:00 3.80 10 640 (2011) 4 (2024) 113 8 14 25 30 66 132 146 257 384
2026-02-28 14:00 3.80 10 640 (2011) 4 (2024) 113 8 14 25 30 66 132 146 257 384
2026-02-28 13:00 3.80 10 640 (2011) 4 (2024) 113 8 14 25 30 66 132 146 257 384
2026-02-28 12:00 3.80 10 640 (2011) 4 (2024) 113 8 14 25 30 66 132 146 257 384
2026-02-28 11:00 3.81 11 640 (2011) 4 (2024) 113 8 14 25 30 66 132 146 257 384
2026-02-28 10:00 3.80 10 640 (2011) 4 (2024) 113 8 14 25 30 66 132 146 257 384
2026-02-28 09:00 3.80 10 640 (2011) 4 (2024) 113 8 14 25 30 66 132 146 257 384
2026-02-28 08:00 3.80 10 640 (2011) 4 (2024) 113 8 14 25 30 66 132 146 257 384
2026-02-28 07:00 3.80 10 640 (2011) 4 (2024) 113 8 14 25 30 66 132 146 257 384
2026-02-28 06:00 3.80 10 640 (2011) 4 (2024) 113 8 14 25 30 66 132 146 257 384
2026-02-28 05:00 3.80 10 640 (2011) 4 (2024) 113 8 14 25 30 66 132 146 257 384
2026-02-28 04:00 3.81 11 640 (2011) 4 (2024) 113 8 14 25 30 66 132 146 257 384
2026-02-28 03:00 3.81 11 640 (2011) 4 (2024) 113 8 14 25 30 66 132 146 257 384
2026-02-28 02:00 3.81 11 640 (2011) 4 (2024) 113 8 14 25 30 66 132 146 257 384
2026-02-28 01:00 3.81 11 640 (2011) 4 (2024) 113 8 14 25 30 66 132 146 257 384
2026-02-28 00:00 3.81 11 640 (2011) 4 (2024) 113 8 14 25 30 66 132 146 257 384
2026-02-27 23:00 3.81 11 640 (2011) 4 (2024) 113 8 14 25 30 66 132 146 257 384
2026-02-27 22:00 3.81 11 1650 (1997) 5 (2024) 146 10 14 24 30 70 144 163 293 601
2026-02-27 21:00 3.81 11 1650 (1997) 5 (2024) 146 10 14 24 30 70 144 163 293 601
2026-02-27 20:00 3.82 11 1650 (1997) 5 (2024) 146 10 14 24 30 70 144 163 293 601
2026-02-27 19:00 3.82 11 1650 (1997) 5 (2024) 146 10 14 24 30 70 144 163 293 601
2026-02-27 18:00 3.82 11 1650 (1997) 5 (2024) 146 10 14 24 30 70 144 163 293 601
2026-02-27 17:00 3.82 11 1650 (1997) 5 (2024) 146 10 14 24 30 70 144 163 293 601
2026-02-27 16:00 3.82 11 1650 (1997) 5 (2024) 146 10 14 24 30 70 144 163 293 601
2026-02-27 15:00 3.82 11 1650 (1997) 5 (2024) 146 10 14 24 30 70 144 163 293 601
2026-02-27 14:00 3.83 11 1650 (1997) 5 (2024) 146 10 14 24 30 70 144 163 293 601
2026-02-27 13:00 3.83 11 1650 (1997) 5 (2024) 146 10 14 24 30 70 144 163 293 601
2026-02-27 12:00 3.83 11 1650 (1997) 5 (2024) 146 10 14 24 30 70 144 163 293 601
2026-02-27 11:00 3.84 12 1650 (1997) 5 (2024) 146 10 14 24 30 70 144 163 293 601
2026-02-27 10:00 3.83 11 1650 (1997) 5 (2024) 146 10 14 24 30 70 144 163 293 601
2026-02-27 09:00 3.83 11 1650 (1997) 5 (2024) 146 10 14 24 30 70 144 163 293 601
2026-02-27 08:00 3.83 11 1650 (1997) 5 (2024) 146 10 14 24 30 70 144 163 293 601
2026-02-27 07:00 3.82 11 1650 (1997) 5 (2024) 146 10 14 24 30 70 144 163 293 601
2026-02-27 06:00 3.82 11 1650 (1997) 5 (2024) 146 10 14 24 30 70 144 163 293 601
2026-02-27 05:00 3.83 11 1650 (1997) 5 (2024) 146 10 14 24 30 70 144 163 293 601
2026-02-27 04:00 3.83 11 1650 (1997) 5 (2024) 146 10 14 24 30 70 144 163 293 601
2026-02-27 03:00 3.82 11 1650 (1997) 5 (2024) 146 10 14 24 30 70 144 163 293 601
2026-02-27 02:00 3.83 11 1650 (1997) 5 (2024) 146 10 14 24 30 70 144 163 293 601
2026-02-27 01:00 3.83 11 1650 (1997) 5 (2024) 146 10 14 24 30 70 144 163 293 601
2026-02-27 00:00 3.83 11 1650 (1997) 5 (2024) 146 10 14 24 30 70 144 163 293 601
2026-02-26 23:00 3.83 11 1650 (1997) 5 (2024) 146 10 14 24 30 70 144 163 293 601
2026-02-26 22:00 3.83 11 4620 (1997) 5 (2024) 215 9 13 25 31 69 132 164 376 430
2026-02-26 21:00 3.83 11 4620 (1997) 5 (2024) 215 9 13 25 31 69 132 164 376 430
2026-02-26 20:00 3.83 11 4620 (1997) 5 (2024) 215 9 13 25 31 69 132 164 376 430
2026-02-26 19:00 3.84 12 4620 (1997) 5 (2024) 215 9 13 25 31 69 132 164 376 430
2026-02-26 18:00 3.84 12 4620 (1997) 5 (2024) 215 9 13 25 31 69 132 164 376 430
2026-02-26 17:00 3.83 11 4620 (1997) 5 (2024) 215 9 13 25 31 69 132 164 376 430
2026-02-26 16:00 3.84 12 4620 (1997) 5 (2024) 215 9 13 25 31 69 132 164 376 430
2026-02-26 15:00 3.84 12 4620 (1997) 5 (2024) 215 9 13 25 31 69 132 164 376 430
2026-02-26 14:00 3.84 12 4620 (1997) 5 (2024) 215 9 13 25 31 69 132 164 376 430
2026-02-26 13:00 3.85 12 4620 (1997) 5 (2024) 215 9 13 25 31 69 132 164 376 430
2026-02-26 12:00 3.85 12 4620 (1997) 5 (2024) 215 9 13 25 31 69 132 164 376 430
2026-02-26 11:00 3.85 12 4620 (1997) 5 (2024) 215 9 13 25 31 69 132 164 376 430
2026-02-26 10:00 3.85 12 4620 (1997) 5 (2024) 215 9 13 25 31 69 132 164 376 430
2026-02-26 09:00 3.85 12 4620 (1997) 5 (2024) 215 9 13 25 31 69 132 164 376 430
2026-02-26 08:00 3.84 12 4620 (1997) 5 (2024) 215 9 13 25 31 69 132 164 376 430
2026-02-26 07:00 3.84 12 4620 (1997) 5 (2024) 215 9 13 25 31 69 132 164 376 430
2026-02-26 06:00 3.84 12 4620 (1997) 5 (2024) 215 9 13 25 31 69 132 164 376 430
2026-02-26 05:00 3.84 12 4620 (1997) 5 (2024) 215 9 13 25 31 69 132 164 376 430
2026-02-26 04:00 3.84 12 4620 (1997) 5 (2024) 215 9 13 25 31 69 132 164 376 430
2026-02-26 03:00 3.84 12 4620 (1997) 5 (2024) 215 9 13 25 31 69 132 164 376 430
2026-02-26 02:00 3.84 12 4620 (1997) 5 (2024) 215 9 13 25 31 69 132 164 376 430
2026-02-26 01:00 3.85 12 4620 (1997) 5 (2024) 215 9 13 25 31 69 132 164 376 430
2026-02-26 00:00 3.85 12 4620 (1997) 5 (2024) 215 9 13 25 31 69 132 164 376 430
2026-02-25 23:00 3.85 12 4620 (1997) 5 (2024) 215 9 13 25 31 69 132 164 376 430
2026-02-25 22:00 3.85 12 2010 (2001) 5 (2024) 179 9 13 21 34 68 156 181 509 1210
2026-02-25 21:00 3.85 12 2010 (2001) 5 (2024) 179 9 13 21 34 68 156 181 509 1210
2026-02-25 20:00 3.85 12 2010 (2001) 5 (2024) 179 9 13 21 34 68 156 181 509 1210
2026-02-25 19:00 3.86 13 2010 (2001) 5 (2024) 179 9 13 21 34 68 156 181 509 1210
2026-02-25 18:00 3.85 12 2010 (2001) 5 (2024) 179 9 13 21 34 68 156 181 509 1210
2026-02-25 17:00 3.86 13 2010 (2001) 5 (2024) 179 9 13 21 34 68 156 181 509 1210
2026-02-25 16:00 3.85 12 2010 (2001) 5 (2024) 179 9 13 21 34 68 156 181 509 1210
2026-02-25 15:00 3.85 12 2010 (2001) 5 (2024) 179 9 13 21 34 68 156 181 509 1210
2026-02-25 14:00 3.86 13 2010 (2001) 5 (2024) 179 9 13 21 34 68 156 181 509 1210
2026-02-25 13:00 3.86 13 2010 (2001) 5 (2024) 179 9 13 21 34 68 156 181 509 1210
2026-02-25 12:00 3.86 13 2010 (2001) 5 (2024) 179 9 13 21 34 68 156 181 509 1210
2026-02-25 11:00 3.86 13 2010 (2001) 5 (2024) 179 9 13 21 34 68 156 181 509 1210
2026-02-25 10:00 3.85 12 2010 (2001) 5 (2024) 179 9 13 21 34 68 156 181 509 1210
2026-02-25 09:00 3.85 12 2010 (2001) 5 (2024) 179 9 13 21 34 68 156 181 509 1210
2026-02-25 08:00 3.85 12 2010 (2001) 5 (2024) 179 9 13 21 34 68 156 181 509 1210
2026-02-25 07:00 3.85 12 2010 (2001) 5 (2024) 179 9 13 21 34 68 156 181 509 1210
2026-02-25 06:00 3.85 12 2010 (2001) 5 (2024) 179 9 13 21 34 68 156 181 509 1210
2026-02-25 05:00 3.86 13 2010 (2001) 5 (2024) 179 9 13 21 34 68 156 181 509 1210
2026-02-25 04:00 3.86 13 2010 (2001) 5 (2024) 179 9 13 21 34 68 156 181 509 1210
2026-02-25 03:00 3.87 13 2010 (2001) 5 (2024) 179 9 13 21 34 68 156 181 509 1210
2026-02-25 02:00 3.87 13 2010 (2001) 5 (2024) 179 9 13 21 34 68 156 181 509 1210
2026-02-25 01:00 3.87 13 2010 (2001) 5 (2024) 179 9 13 21 34 68 156 181 509 1210
2026-02-25 00:00 3.87 13 2010 (2001) 5 (2024) 179 9 13 21 34 68 156 181 509 1210
2026-02-24 23:00 3.87 13 2010 (2001) 5 (2024) 179 9 13 21 34 68 156 181 509 1210
2026-02-24 22:00 3.87 13 5340 (2018) 5 (2024) 301 10 13 19 32 71 149 199 445 1710
2026-02-24 21:00 3.87 13 5340 (2018) 5 (2024) 301 10 13 19 32 71 149 199 445 1710
2026-02-24 20:00 3.87 13 5340 (2018) 5 (2024) 301 10 13 19 32 71 149 199 445 1710
2026-02-24 19:00 3.87 13 5340 (2018) 5 (2024) 301 10 13 19 32 71 149 199 445 1710
2026-02-24 18:00 3.87 13 5340 (2018) 5 (2024) 301 10 13 19 32 71 149 199 445 1710
2026-02-24 17:00 3.88 14 5340 (2018) 5 (2024) 301 10 13 19 32 71 149 199 445 1710
2026-02-24 16:00 3.88 14 5340 (2018) 5 (2024) 301 10 13 19 32 71 149 199 445 1710
2026-02-24 15:00 3.88 14 5340 (2018) 5 (2024) 301 10 13 19 32 71 149 199 445 1710
2026-02-24 14:00 3.89 14 5340 (2018) 5 (2024) 301 10 13 19 32 71 149 199 445 1710
2026-02-24 13:00 3.89 14 5340 (2018) 5 (2024) 301 10 13 19 32 71 149 199 445 1710
2026-02-24 12:00 3.89 14 5340 (2018) 5 (2024) 301 10 13 19 32 71 149 199 445 1710
2026-02-24 11:00 3.88 14 5340 (2018) 5 (2024) 301 10 13 19 32 71 149 199 445 1710
2026-02-24 10:00 3.88 14 5340 (2018) 5 (2024) 301 10 13 19 32 71 149 199 445 1710
2026-02-24 09:00 3.88 14 5340 (2018) 5 (2024) 301 10 13 19 32 71 149 199 445 1710
2026-02-24 08:00 3.88 14 5340 (2018) 5 (2024) 301 10 13 19 32 71 149 199 445 1710
2026-02-24 07:00 3.88 14 5340 (2018) 5 (2024) 301 10 13 19 32 71 149 199 445 1710
2026-02-24 06:00 3.88 14 5340 (2018) 5 (2024) 301 10 13 19 32 71 149 199 445 1710
2026-02-24 05:00 3.87 13 5340 (2018) 5 (2024) 301 10 13 19 32 71 149 199 445 1710
2026-02-24 04:00 3.88 14 5340 (2018) 5 (2024) 301 10 13 19 32 71 149 199 445 1710
2026-02-24 03:00 3.88 14 5340 (2018) 5 (2024) 301 10 13 19 32 71 149 199 445 1710
2026-02-24 02:00 3.88 14 5340 (2018) 5 (2024) 301 10 13 19 32 71 149 199 445 1710
2026-02-24 01:00 3.88 14 5340 (2018) 5 (2024) 301 10 13 19 32 71 149 199 445 1710
2026-02-24 00:00 3.88 14 5340 (2018) 5 (2024) 301 10 13 19 32 71 149 199 445 1710
2026-02-23 23:00 3.88 14 5340 (2018) 5 (2024) 301 10 13 19 32 71 149 199 445 1710
2026-02-23 22:00 3.88 14 8500 (1985) 6 (2024) 303 11 15 22 29 64 141 194 364 1550
2026-02-23 21:00 3.88 14 8500 (1985) 6 (2024) 303 11 15 22 29 64 141 194 364 1550
2026-02-23 20:00 3.89 14 8500 (1985) 6 (2024) 303 11 15 22 29 64 141 194 364 1550
2026-02-23 19:00 3.89 14 8500 (1985) 6 (2024) 303 11 15 22 29 64 141 194 364 1550
2026-02-23 18:00 3.89 14 8500 (1985) 6 (2024) 303 11 15 22 29 64 141 194 364 1550
2026-02-23 17:00 3.89 14 8500 (1985) 6 (2024) 303 11 15 22 29 64 141 194 364 1550
2026-02-23 16:00 3.90 14 8500 (1985) 6 (2024) 303 11 15 22 29 64 141 194 364 1550
2026-02-23 15:00 3.90 14 8500 (1985) 6 (2024) 303 11 15 22 29 64 141 194 364 1550
2026-02-23 14:00 3.90 14 8500 (1985) 6 (2024) 303 11 15 22 29 64 141 194 364 1550
2026-02-23 13:00 3.90 14 8500 (1985) 6 (2024) 303 11 15 22 29 64 141 194 364 1550
2026-02-23 12:00 3.91 15 8500 (1985) 6 (2024) 303 11 15 22 29 64 141 194 364 1550
2026-02-23 11:00 3.90 14 8500 (1985) 6 (2024) 303 11 15 22 29 64 141 194 364 1550
2026-02-23 10:00 3.90 14 8500 (1985) 6 (2024) 303 11 15 22 29 64 141 194 364 1550
2026-02-23 09:00 3.90 14 8500 (1985) 6 (2024) 303 11 15 22 29 64 141 194 364 1550
2026-02-23 08:00 3.90 14 8500 (1985) 6 (2024) 303 11 15 22 29 64 141 194 364 1550
2026-02-23 07:00 3.90 14 8500 (1985) 6 (2024) 303 11 15 22 29 64 141 194 364 1550
2026-02-23 06:00 3.90 14 8500 (1985) 6 (2024) 303 11 15 22 29 64 141 194 364 1550
2026-02-23 05:00 3.90 14 8500 (1985) 6 (2024) 303 11 15 22 29 64 141 194 364 1550
2026-02-23 04:00 3.90 14 8500 (1985) 6 (2024) 303 11 15 22 29 64 141 194 364 1550
2026-02-23 03:00 3.91 15 8500 (1985) 6 (2024) 303 11 15 22 29 64 141 194 364 1550
2026-02-23 02:00 3.91 15 8500 (1985) 6 (2024) 303 11 15 22 29 64 141 194 364 1550
2026-02-23 01:00 3.91 15 8500 (1985) 6 (2024) 303 11 15 22 29 64 141 194 364 1550
2026-02-23 00:00 3.91 15 8500 (1985) 6 (2024) 303 11 15 22 29 64 141 194 364 1550
2026-02-22 23:00 3.92 15 8500 (1985) 6 (2024) 303 11 15 22 29 64 141 194 364 1550
2026-02-22 22:00 3.92 15 4430 (1975) 6 (2024) 303 11 12 23 29 67 172 193 925 1590
2026-02-22 21:00 3.92 15 4430 (1975) 6 (2024) 303 11 12 23 29 67 172 193 925 1590
2026-02-22 20:00 3.92 15 4430 (1975) 6 (2024) 303 11 12 23 29 67 172 193 925 1590
2026-02-22 19:00 3.93 16 4430 (1975) 6 (2024) 303 11 12 23 29 67 172 193 925 1590
2026-02-22 18:00 3.93 16 4430 (1975) 6 (2024) 303 11 12 23 29 67 172 193 925 1590
2026-02-22 17:00 3.93 16 4430 (1975) 6 (2024) 303 11 12 23 29 67 172 193 925 1590
2026-02-22 16:00 3.94 16 4430 (1975) 6 (2024) 303 11 12 23 29 67 172 193 925 1590
2026-02-22 15:00 3.94 16 4430 (1975) 6 (2024) 303 11 12 23 29 67 172 193 925 1590
2026-02-22 14:00 3.94 16 4430 (1975) 6 (2024) 303 11 12 23 29 67 172 193 925 1590
2026-02-22 13:00 3.94 16 4430 (1975) 6 (2024) 303 11 12 23 29 67 172 193 925 1590
2026-02-22 12:00 3.94 16 4430 (1975) 6 (2024) 303 11 12 23 29 67 172 193 925 1590
2026-02-22 11:00 3.95 17 4430 (1975) 6 (2024) 303 11 12 23 29 67 172 193 925 1590
2026-02-22 10:00 3.94 16 4430 (1975) 6 (2024) 303 11 12 23 29 67 172 193 925 1590
2026-02-22 09:00 3.94 16 4430 (1975) 6 (2024) 303 11 12 23 29 67 172 193 925 1590
2026-02-22 08:00 3.95 17 4430 (1975) 6 (2024) 303 11 12 23 29 67 172 193 925 1590
2026-02-22 07:00 3.95 17 4430 (1975) 6 (2024) 303 11 12 23 29 67 172 193 925 1590
2026-02-22 06:00 3.95 17 4430 (1975) 6 (2024) 303 11 12 23 29 67 172 193 925 1590
2026-02-22 05:00 3.96 17 4430 (1975) 6 (2024) 303 11 12 23 29 67 172 193 925 1590
2026-02-22 04:00 3.96 17 4430 (1975) 6 (2024) 303 11 12 23 29 67 172 193 925 1590
2026-02-22 03:00 3.96 17 4430 (1975) 6 (2024) 303 11 12 23 29 67 172 193 925 1590
2026-02-22 02:00 3.96 17 4430 (1975) 6 (2024) 303 11 12 23 29 67 172 193 925 1590
2026-02-22 01:00 3.96 17 4430 (1975) 6 (2024) 303 11 12 23 29 67 172 193 925 1590
2026-02-22 00:00 3.97 18 4430 (1975) 6 (2024) 303 11 12 23 29 67 172 193 925 1590
2026-02-21 23:00 3.97 18 4430 (1975) 6 (2024) 303 11 12 23 29 67 172 193 925 1590
2026-02-21 22:00 3.97 18 1240 (1997) 6 (2024) 188 11 13 23 30 65 137 238 761 1150
2026-02-21 21:00 3.98 18 1240 (1997) 6 (2024) 188 11 13 23 30 65 137 238 761 1150
2026-02-21 20:00 3.98 18 1240 (1997) 6 (2024) 188 11 13 23 30 65 137 238 761 1150
2026-02-21 19:00 3.98 18 1240 (1997) 6 (2024) 188 11 13 23 30 65 137 238 761 1150
2026-02-21 18:00 3.99 19 1240 (1997) 6 (2024) 188 11 13 23 30 65 137 238 761 1150
2026-02-21 17:00 3.99 19 1240 (1997) 6 (2024) 188 11 13 23 30 65 137 238 761 1150
2026-02-21 16:00 3.99 19 1240 (1997) 6 (2024) 188 11 13 23 30 65 137 238 761 1150
2026-02-21 15:00 4.00 20 1240 (1997) 6 (2024) 188 11 13 23 30 65 137 238 761 1150
2026-02-21 14:00 4.00 20 1240 (1997) 6 (2024) 188 11 13 23 30 65 137 238 761 1150
2026-02-21 13:00 4.00 20 1240 (1997) 6 (2024) 188 11 13 23 30 65 137 238 761 1150
2026-02-21 12:00 4.01 20 1240 (1997) 6 (2024) 188 11 13 23 30 65 137 238 761 1150
2026-02-21 11:00 4.01 20 1240 (1997) 6 (2024) 188 11 13 23 30 65 137 238 761 1150
2026-02-21 10:00 4.01 20 1240 (1997) 6 (2024) 188 11 13 23 30 65 137 238 761 1150
2026-02-21 09:00 4.01 20 1240 (1997) 6 (2024) 188 11 13 23 30 65 137 238 761 1150
2026-02-21 08:00 4.01 20 1240 (1997) 6 (2024) 188 11 13 23 30 65 137 238 761 1150
2026-02-21 07:00 4.02 21 1240 (1997) 6 (2024) 188 11 13 23 30 65 137 238 761 1150
2026-02-21 06:00 4.02 21 1240 (1997) 6 (2024) 188 11 13 23 30 65 137 238 761 1150
2026-02-21 05:00 4.02 21 1240 (1997) 6 (2024) 188 11 13 23 30 65 137 238 761 1150
2026-02-21 04:00 4.03 21 1240 (1997) 6 (2024) 188 11 13 23 30 65 137 238 761 1150
2026-02-21 03:00 4.03 21 1240 (1997) 6 (2024) 188 11 13 23 30 65 137 238 761 1150
2026-02-21 02:00 4.03 21 1240 (1997) 6 (2024) 188 11 13 23 30 65 137 238 761 1150
2026-02-21 01:00 4.03 21 1240 (1997) 6 (2024) 188 11 13 23 30 65 137 238 761 1150
2026-02-21 00:00 4.04 22 1240 (1997) 6 (2024) 188 11 13 23 30 65 137 238 761 1150
2026-02-20 23:00 4.04 22 1240 (1997) 6 (2024) 188 11 13 23 30 65 137 238 761 1150
2026-02-20 22:00 4.05 23 616 (1988) 7 (2024) 104 11 13 24 28 60 123 150 284 451
2026-02-20 21:00 4.05 23 616 (1988) 7 (2024) 104 11 13 24 28 60 123 150 284 451
2026-02-20 20:00 4.06 23 616 (1988) 7 (2024) 104 11 13 24 28 60 123 150 284 451
2026-02-20 19:00 4.06 23 616 (1988) 7 (2024) 104 11 13 24 28 60 123 150 284 451
2026-02-20 18:00 4.07 24 616 (1988) 7 (2024) 104 11 13 24 28 60 123 150 284 451
2026-02-20 17:00 4.07 24 616 (1988) 7 (2024) 104 11 13 24 28 60 123 150 284 451
2026-02-20 16:00 4.08 24 616 (1988) 7 (2024) 104 11 13 24 28 60 123 150 284 451
2026-02-20 15:00 4.08 24 616 (1988) 7 (2024) 104 11 13 24 28 60 123 150 284 451
2026-02-20 14:00 4.09 25 616 (1988) 7 (2024) 104 11 13 24 28 60 123 150 284 451
2026-02-20 13:00 4.09 25 616 (1988) 7 (2024) 104 11 13 24 28 60 123 150 284 451
2026-02-20 12:00 4.09 25 616 (1988) 7 (2024) 104 11 13 24 28 60 123 150 284 451
2026-02-20 11:00 4.09 25 616 (1988) 7 (2024) 104 11 13 24 28 60 123 150 284 451
2026-02-20 10:00 4.09 25 616 (1988) 7 (2024) 104 11 13 24 28 60 123 150 284 451
2026-02-20 09:00 4.09 25 616 (1988) 7 (2024) 104 11 13 24 28 60 123 150 284 451
2026-02-20 08:00 4.09 25 616 (1988) 7 (2024) 104 11 13 24 28 60 123 150 284 451
2026-02-20 07:00 4.09 25 616 (1988) 7 (2024) 104 11 13 24 28 60 123 150 284 451
2026-02-20 06:00 4.10 26 616 (1988) 7 (2024) 104 11 13 24 28 60 123 150 284 451
2026-02-20 05:00 4.10 26 616 (1988) 7 (2024) 104 11 13 24 28 60 123 150 284 451
2026-02-20 04:00 4.11 26 616 (1988) 7 (2024) 104 11 13 24 28 60 123 150 284 451
2026-02-20 03:00 4.11 26 616 (1988) 7 (2024) 104 11 13 24 28 60 123 150 284 451
2026-02-20 02:00 4.12 27 616 (1988) 7 (2024) 104 11 13 24 28 60 123 150 284 451
2026-02-20 01:00 4.12 27 616 (1988) 7 (2024) 104 11 13 24 28 60 123 150 284 451
2026-02-20 00:00 4.12 27 616 (1988) 7 (2024) 104 11 13 24 28 60 123 150 284 451
2026-02-19 23:00 4.13 28 616 (1988) 7 (2024) 104 11 13 24 28 60 123 150 284 451
2026-02-19 22:00 4.14 29 1930 (1988) 7 (2024) 152 10 13 20 25 67 115 172 289 765
2026-02-19 21:00 4.14 29 1930 (1988) 7 (2024) 152 10 13 20 25 67 115 172 289 765
2026-02-19 20:00 4.15 29 1930 (1988) 7 (2024) 152 10 13 20 25 67 115 172 289 765
2026-02-19 19:00 4.15 29 1930 (1988) 7 (2024) 152 10 13 20 25 67 115 172 289 765
2026-02-19 18:00 4.15 29 1930 (1988) 7 (2024) 152 10 13 20 25 67 115 172 289 765
2026-02-19 17:00 4.15 29 1930 (1988) 7 (2024) 152 10 13 20 25 67 115 172 289 765
2026-02-19 16:00 4.16 30 1930 (1988) 7 (2024) 152 10 13 20 25 67 115 172 289 765
2026-02-19 15:00 4.17 31 1930 (1988) 7 (2024) 152 10 13 20 25 67 115 172 289 765
2026-02-19 14:00 4.17 31 1930 (1988) 7 (2024) 152 10 13 20 25 67 115 172 289 765
2026-02-19 13:00 4.18 32 1930 (1988) 7 (2024) 152 10 13 20 25 67 115 172 289 765
2026-02-19 12:00 4.18 32 1930 (1988) 7 (2024) 152 10 13 20 25 67 115 172 289 765
2026-02-19 11:00 4.18 32 1930 (1988) 7 (2024) 152 10 13 20 25 67 115 172 289 765
2026-02-19 10:00 4.18 32 1930 (1988) 7 (2024) 152 10 13 20 25 67 115 172 289 765
2026-02-19 09:00 4.18 32 1930 (1988) 7 (2024) 152 10 13 20 25 67 115 172 289 765
2026-02-19 08:00 4.18 32 1930 (1988) 7 (2024) 152 10 13 20 25 67 115 172 289 765
2026-02-19 07:00 4.18 32 1930 (1988) 7 (2024) 152 10 13 20 25 67 115 172 289 765
2026-02-19 06:00 4.19 32 1930 (1988) 7 (2024) 152 10 13 20 25 67 115 172 289 765
2026-02-19 05:00 4.19 32 1930 (1988) 7 (2024) 152 10 13 20 25 67 115 172 289 765
2026-02-19 04:00 4.20 33 1930 (1988) 7 (2024) 152 10 13 20 25 67 115 172 289 765
2026-02-19 03:00 4.20 33 1930 (1988) 7 (2024) 152 10 13 20 25 67 115 172 289 765
2026-02-19 02:00 4.21 34 1930 (1988) 7 (2024) 152 10 13 20 25 67 115 172 289 765
2026-02-19 01:00 4.21 34 1930 (1988) 7 (2024) 152 10 13 20 25 67 115 172 289 765
2026-02-19 00:00 4.22 35 1930 (1988) 7 (2024) 152 10 13 20 25 67 115 172 289 765
2026-02-18 23:00 4.22 35 1930 (1988) 7 (2024) 152 10 13 20 25 67 115 172 289 765
2026-02-18 22:00 4.23 36 797 (1998) 7 (2017) 132 9 13 21 26 70 152 179 388 565
2026-02-18 21:00 4.23 36 797 (1998) 7 (2017) 132 9 13 21 26 70 152 179 388 565
2026-02-18 20:00 4.24 36 797 (1998) 7 (2017) 132 9 13 21 26 70 152 179 388 565
2026-02-18 19:00 4.25 37 797 (1998) 7 (2017) 132 9 13 21 26 70 152 179 388 565
2026-02-18 18:00 4.28 40 797 (1998) 7 (2017) 132 9 13 21 26 70 152 179 388 565
2026-02-18 17:00 4.22 35 797 (1998) 7 (2017) 132 9 13 21 26 70 152 179 388 565
2026-02-18 16:00 4.23 36 797 (1998) 7 (2017) 132 9 13 21 26 70 152 179 388 565
2026-02-18 15:00 4.24 36 797 (1998) 7 (2017) 132 9 13 21 26 70 152 179 388 565
2026-02-18 14:00 4.24 36 797 (1998) 7 (2017) 132 9 13 21 26 70 152 179 388 565
2026-02-18 13:00 4.25 37 797 (1998) 7 (2017) 132 9 13 21 26 70 152 179 388 565
2026-02-18 12:00 4.25 37 797 (1998) 7 (2017) 132 9 13 21 26 70 152 179 388 565
2026-02-18 11:00 4.26 38 797 (1998) 7 (2017) 132 9 13 21 26 70 152 179 388 565
2026-02-18 10:00 4.26 38 797 (1998) 7 (2017) 132 9 13 21 26 70 152 179 388 565
2026-02-18 08:00 4.27 39 797 (1998) 7 (2017) 132 9 13 21 26 70 152 179 388 565
2026-02-18 07:00 4.27 39 797 (1998) 7 (2017) 132 9 13 21 26 70 152 179 388 565
2026-02-18 06:00 4.27 39 797 (1998) 7 (2017) 132 9 13 21 26 70 152 179 388 565
2026-02-18 05:00 4.28 40 797 (1998) 7 (2017) 132 9 13 21 26 70 152 179 388 565
2026-02-18 04:00 4.29 41 797 (1998) 7 (2017) 132 9 13 21 26 70 152 179 388 565
2026-02-18 03:00 4.29 41 797 (1998) 7 (2017) 132 9 13 21 26 70 152 179 388 565
2026-02-18 02:00 4.29 41 797 (1998) 7 (2017) 132 9 13 21 26 70 152 179 388 565
2026-02-18 01:00 4.30 42 797 (1998) 7 (2017) 132 9 13 21 26 70 152 179 388 565
2026-02-18 00:00 4.32 44 797 (1998) 7 (2017) 132 9 13 21 26 70 152 179 388 565
2026-02-17 23:00 4.32 44 797 (1998) 7 (2017) 132 9 13 21 26 70 152 179 388 565
2026-02-17 22:00 4.33 44 3380 (2008) 7 (2000) 216 8 10 21 27 60 153 198 352 1580
2026-02-17 21:00 4.33 44 3380 (2008) 7 (2000) 216 8 10 21 27 60 153 198 352 1580
2026-02-17 20:00 4.34 45 3380 (2008) 7 (2000) 216 8 10 21 27 60 153 198 352 1580
2026-02-17 19:00 4.35 46 3380 (2008) 7 (2000) 216 8 10 21 27 60 153 198 352 1580
2026-02-17 18:00 4.35 46 3380 (2008) 7 (2000) 216 8 10 21 27 60 153 198 352 1580
2026-02-17 17:00 4.36 47 3380 (2008) 7 (2000) 216 8 10 21 27 60 153 198 352 1580
2026-02-17 16:00 4.37 48 3380 (2008) 7 (2000) 216 8 10 21 27 60 153 198 352 1580
2026-02-17 15:00 4.37 48 3380 (2008) 7 (2000) 216 8 10 21 27 60 153 198 352 1580
2026-02-17 14:00 4.38 49 3380 (2008) 7 (2000) 216 8 10 21 27 60 153 198 352 1580
2026-02-17 13:00 4.39 50 3380 (2008) 7 (2000) 216 8 10 21 27 60 153 198 352 1580
2026-02-17 12:00 4.39 50 3380 (2008) 7 (2000) 216 8 10 21 27 60 153 198 352 1580
2026-02-17 11:00 4.40 52 3380 (2008) 7 (2000) 216 8 10 21 27 60 153 198 352 1580
2026-02-17 10:00 4.41 53 3380 (2008) 7 (2000) 216 8 10 21 27 60 153 198 352 1580
2026-02-17 09:00 4.41 53 3380 (2008) 7 (2000) 216 8 10 21 27 60 153 198 352 1580
2026-02-17 08:00 4.42 54 3380 (2008) 7 (2000) 216 8 10 21 27 60 153 198 352 1580
2026-02-17 07:00 4.43 55 3380 (2008) 7 (2000) 216 8 10 21 27 60 153 198 352 1580
2026-02-17 06:00 4.44 56 3380 (2008) 7 (2000) 216 8 10 21 27 60 153 198 352 1580
2026-02-17 05:00 4.44 56 3380 (2008) 7 (2000) 216 8 10 21 27 60 153 198 352 1580
2026-02-17 04:00 4.45 57 3380 (2008) 7 (2000) 216 8 10 21 27 60 153 198 352 1580
2026-02-17 03:00 4.47 59 3380 (2008) 7 (2000) 216 8 10 21 27 60 153 198 352 1580
2026-02-17 02:00 4.47 59 3380 (2008) 7 (2000) 216 8 10 21 27 60 153 198 352 1580
2026-02-17 01:00 4.49 62 3380 (2008) 7 (2000) 216 8 10 21 27 60 153 198 352 1580
2026-02-17 00:00 4.50 63 3380 (2008) 7 (2000) 216 8 10 21 27 60 153 198 352 1580
2026-02-16 23:00 4.50 63 3380 (2008) 7 (2000) 216 8 10 21 27 60 153 198 352 1580
2026-02-16 22:00 4.52 66 3000 (1982) 5 (2018) 172 7 11 22 23 52 171 205 378 640
2026-02-16 21:00 4.52 66 3000 (1982) 5 (2018) 172 7 11 22 23 52 171 205 378 640
2026-02-16 20:00 4.54 68 3000 (1982) 5 (2018) 172 7 11 22 23 52 171 205 378 640
2026-02-16 19:00 4.55 70 3000 (1982) 5 (2018) 172 7 11 22 23 52 171 205 378 640
2026-02-16 18:00 4.56 71 3000 (1982) 5 (2018) 172 7 11 22 23 52 171 205 378 640
2026-02-16 17:00 4.57 73 3000 (1982) 5 (2018) 172 7 11 22 23 52 171 205 378 640
2026-02-16 16:00 4.59 76 3000 (1982) 5 (2018) 172 7 11 22 23 52 171 205 378 640
2026-02-16 15:00 4.61 79 3000 (1982) 5 (2018) 172 7 11 22 23 52 171 205 378 640
2026-02-16 14:00 4.61 79 3000 (1982) 5 (2018) 172 7 11 22 23 52 171 205 378 640
2026-02-16 13:00 4.63 82 3000 (1982) 5 (2018) 172 7 11 22 23 52 171 205 378 640
2026-02-16 12:00 4.65 85 3000 (1982) 5 (2018) 172 7 11 22 23 52 171 205 378 640
2026-02-16 11:00 4.67 88 3000 (1982) 5 (2018) 172 7 11 22 23 52 171 205 378 640
2026-02-16 10:00 4.69 92 3000 (1982) 5 (2018) 172 7 11 22 23 52 171 205 378 640
2026-02-16 09:00 4.70 93 3000 (1982) 5 (2018) 172 7 11 22 23 52 171 205 378 640
2026-02-16 08:00 4.71 95 3000 (1982) 5 (2018) 172 7 11 22 23 52 171 205 378 640
2026-02-16 07:00 4.74 101 3000 (1982) 5 (2018) 172 7 11 22 23 52 171 205 378 640
2026-02-16 06:00 4.76 104 3000 (1982) 5 (2018) 172 7 11 22 23 52 171 205 378 640
2026-02-16 05:00 4.79 110 3000 (1982) 5 (2018) 172 7 11 22 23 52 171 205 378 640
2026-02-16 04:00 4.81 114 3000 (1982) 5 (2018) 172 7 11 22 23 52 171 205 378 640
2026-02-16 03:00 4.84 120 3000 (1982) 5 (2018) 172 7 11 22 23 52 171 205 378 640
2026-02-16 02:00 4.86 125 3000 (1982) 5 (2018) 172 7 11 22 23 52 171 205 378 640
2026-02-16 01:00 4.90 133 3000 (1982) 5 (2018) 172 7 11 22 23 52 171 205 378 640
2026-02-16 00:00 4.91 136 3000 (1982) 5 (2018) 172 7 11 22 23 52 171 205 378 640
2026-02-15 23:00 4.94 143 3000 (1982) 5 (2018) 172 7 11 22 23 52 171 205 378 640
2026-02-15 22:00 4.99 155 798 (1990) 3 (2018) 124 7 11 20 24 52 146 195 372 533
2026-02-15 21:00 5.03 165 798 (1990) 3 (2018) 124 7 11 20 24 52 146 195 372 533
2026-02-15 20:00 5.08 178 798 (1990) 3 (2018) 124 7 11 20 24 52 146 195 372 533
2026-02-15 19:00 5.14 194 798 (1990) 3 (2018) 124 7 11 20 24 52 146 195 372 533
2026-02-15 18:00 5.18 206 798 (1990) 3 (2018) 124 7 11 20 24 52 146 195 372 533
2026-02-15 17:00 5.20 212 798 (1990) 3 (2018) 124 7 11 20 24 52 146 195 372 533
2026-02-15 16:00 5.21 215 798 (1990) 3 (2018) 124 7 11 20 24 52 146 195 372 533
2026-02-15 15:00 5.28 237 798 (1990) 3 (2018) 124 7 11 20 24 52 146 195 372 533
2026-02-15 14:00 5.35 261 798 (1990) 3 (2018) 124 7 11 20 24 52 146 195 372 533
2026-02-15 13:00 5.39 275 798 (1990) 3 (2018) 124 7 11 20 24 52 146 195 372 533
2026-02-15 12:00 5.31 247 798 (1990) 3 (2018) 124 7 11 20 24 52 146 195 372 533
2026-02-15 11:00 5.07 175 798 (1990) 3 (2018) 124 7 11 20 24 52 146 195 372 533
2026-02-15 10:00 4.87 127 798 (1990) 3 (2018) 124 7 11 20 24 52 146 195 372 533
2026-02-15 09:00 4.79 110 798 (1990) 3 (2018) 124 7 11 20 24 52 146 195 372 533
2026-02-15 08:00 4.76 104 798 (1990) 3 (2018) 124 7 11 20 24 52 146 195 372 533
2026-02-15 07:00 4.76 104 798 (1990) 3 (2018) 124 7 11 20 24 52 146 195 372 533
2026-02-15 06:00 4.77 106 798 (1990) 3 (2018) 124 7 11 20 24 52 146 195 372 533
2026-02-15 05:00 4.79 110 798 (1990) 3 (2018) 124 7 11 20 24 52 146 195 372 533
2026-02-15 04:00 4.77 106 798 (1990) 3 (2018) 124 7 11 20 24 52 146 195 372 533
2026-02-15 03:00 4.63 82 798 (1990) 3 (2018) 124 7 11 20 24 52 146 195 372 533
2026-02-15 02:00 3.84 12 798 (1990) 3 (2018) 124 7 11 20 24 52 146 195 372 533
2026-02-15 01:00 3.75 8 798 (1990) 3 (2018) 124 7 11 20 24 52 146 195 372 533
2026-02-15 00:00 3.73 8 798 (1990) 3 (2018) 124 7 11 20 24 52 146 195 372 533
2026-02-14 23:00 3.71 7 798 (1990) 3 (2018) 124 7 11 20 24 52 146 195 372 533
2026-02-14 22:00 3.69 7 1190 (1992) 3 (2018) 117 7 10 18 21 49 116 166 266 611
2026-02-14 21:00 3.68 6 1190 (1992) 3 (2018) 117 7 10 18 21 49 116 166 266 611
2026-02-14 20:00 3.66 6 1190 (1992) 3 (2018) 117 7 10 18 21 49 116 166 266 611
2026-02-14 19:00 3.65 6 1190 (1992) 3 (2018) 117 7 10 18 21 49 116 166 266 611
2026-02-14 18:00 3.64 5 1190 (1992) 3 (2018) 117 7 10 18 21 49 116 166 266 611
2026-02-14 17:00 3.64 5 1190 (1992) 3 (2018) 117 7 10 18 21 49 116 166 266 611
2026-02-14 16:00 3.63 5 1190 (1992) 3 (2018) 117 7 10 18 21 49 116 166 266 611
2026-02-14 15:00 3.63 5 1190 (1992) 3 (2018) 117 7 10 18 21 49 116 166 266 611
2026-02-14 14:00 3.62 5 1190 (1992) 3 (2018) 117 7 10 18 21 49 116 166 266 611
2026-02-14 13:00 3.60 4 1190 (1992) 3 (2018) 117 7 10 18 21 49 116 166 266 611
2026-02-14 12:00 3.59 4 1190 (1992) 3 (2018) 117 7 10 18 21 49 116 166 266 611
2026-02-14 11:00 3.58 4 1190 (1992) 3 (2018) 117 7 10 18 21 49 116 166 266 611
2026-02-14 10:00 3.57 4 1190 (1992) 3 (2018) 117 7 10 18 21 49 116 166 266 611
2026-02-14 09:00 3.57 4 1190 (1992) 3 (2018) 117 7 10 18 21 49 116 166 266 611
2026-02-14 08:00 3.56 4 1190 (1992) 3 (2018) 117 7 10 18 21 49 116 166 266 611
2026-02-14 07:00 3.56 4 1190 (1992) 3 (2018) 117 7 10 18 21 49 116 166 266 611
2026-02-14 06:00 3.56 4 1190 (1992) 3 (2018) 117 7 10 18 21 49 116 166 266 611
2026-02-14 05:00 3.55 3 1190 (1992) 3 (2018) 117 7 10 18 21 49 116 166 266 611
2026-02-14 04:00 3.55 3 1190 (1992) 3 (2018) 117 7 10 18 21 49 116 166 266 611
2026-02-14 03:00 3.54 3 1190 (1992) 3 (2018) 117 7 10 18 21 49 116 166 266 611
2026-02-14 02:00 3.54 3 1190 (1992) 3 (2018) 117 7 10 18 21 49 116 166 266 611
2026-02-14 01:00 3.54 3 1190 (1992) 3 (2018) 117 7 10 18 21 49 116 166 266 611
2026-02-14 00:00 3.54 3 1190 (1992) 3 (2018) 117 7 10 18 21 49 116 166 266 611
2026-02-13 23:00 3.54 3 1190 (1992) 3 (2018) 117 7 10 18 21 49 116 166 266 611
2026-02-13 22:00 3.54 3 1800 (2005) 3 (2018) 116 3 8 18 20 45 99 140 249 397
2026-02-13 21:00 3.54 3 1800 (2005) 3 (2018) 116 3 8 18 20 45 99 140 249 397
2026-02-13 20:00 3.55 3 1800 (2005) 3 (2018) 116 3 8 18 20 45 99 140 249 397
2026-02-13 19:00 3.55 3 1800 (2005) 3 (2018) 116 3 8 18 20 45 99 140 249 397
2026-02-13 18:00 3.55 3 1800 (2005) 3 (2018) 116 3 8 18 20 45 99 140 249 397
2026-02-13 17:00 3.55 3 1800 (2005) 3 (2018) 116 3 8 18 20 45 99 140 249 397
2026-02-13 16:00 3.56 4 1800 (2005) 3 (2018) 116 3 8 18 20 45 99 140 249 397
2026-02-13 15:00 3.56 4 1800 (2005) 3 (2018) 116 3 8 18 20 45 99 140 249 397
2026-02-13 14:00 3.56 4 1800 (2005) 3 (2018) 116 3 8 18 20 45 99 140 249 397
2026-02-13 13:00 3.56 4 1800 (2005) 3 (2018) 116 3 8 18 20 45 99 140 249 397
2026-02-13 12:00 3.56 4 1800 (2005) 3 (2018) 116 3 8 18 20 45 99 140 249 397
2026-02-13 11:00 3.56 4 1800 (2005) 3 (2018) 116 3 8 18 20 45 99 140 249 397
2026-02-13 10:00 3.56 4 1800 (2005) 3 (2018) 116 3 8 18 20 45 99 140 249 397
2026-02-13 09:00 3.56 4 1800 (2005) 3 (2018) 116 3 8 18 20 45 99 140 249 397
2026-02-13 08:00 3.56 4 1800 (2005) 3 (2018) 116 3 8 18 20 45 99 140 249 397
2026-02-13 07:00 3.56 4 1800 (2005) 3 (2018) 116 3 8 18 20 45 99 140 249 397
2026-02-13 06:00 3.56 4 1800 (2005) 3 (2018) 116 3 8 18 20 45 99 140 249 397
2026-02-13 05:00 3.56 4 1800 (2005) 3 (2018) 116 3 8 18 20 45 99 140 249 397
2026-02-13 04:00 3.56 4 1800 (2005) 3 (2018) 116 3 8 18 20 45 99 140 249 397
2026-02-13 03:00 3.56 4 1800 (2005) 3 (2018) 116 3 8 18 20 45 99 140 249 397
2026-02-13 02:00 3.56 4 1800 (2005) 3 (2018) 116 3 8 18 20 45 99 140 249 397
2026-02-13 01:00 3.56 4 1800 (2005) 3 (2018) 116 3 8 18 20 45 99 140 249 397
2026-02-13 00:00 3.56 4 1800 (2005) 3 (2018) 116 3 8 18 20 45 99 140 249 397
2026-02-12 23:00 3.56 4 1800 (2005) 3 (2018) 116 3 8 18 20 45 99 140 249 397
2026-02-12 22:00 3.56 4 796 (2020) 3 (2018) 101 4 8 18 22 47 93 108 301 630
2026-02-12 21:00 3.56 4 796 (2020) 3 (2018) 101 4 8 18 22 47 93 108 301 630
2026-02-12 20:00 3.56 4 796 (2020) 3 (2018) 101 4 8 18 22 47 93 108 301 630
2026-02-12 19:00 3.57 4 796 (2020) 3 (2018) 101 4 8 18 22 47 93 108 301 630
2026-02-12 18:00 3.57 4 796 (2020) 3 (2018) 101 4 8 18 22 47 93 108 301 630
2026-02-12 17:00 3.57 4 796 (2020) 3 (2018) 101 4 8 18 22 47 93 108 301 630
2026-02-12 16:00 3.57 4 796 (2020) 3 (2018) 101 4 8 18 22 47 93 108 301 630
2026-02-12 15:00 3.57 4 796 (2020) 3 (2018) 101 4 8 18 22 47 93 108 301 630
2026-02-12 14:00 3.58 4 796 (2020) 3 (2018) 101 4 8 18 22 47 93 108 301 630
2026-02-12 13:00 3.58 4 796 (2020) 3 (2018) 101 4 8 18 22 47 93 108 301 630
2026-02-12 12:00 3.58 4 796 (2020) 3 (2018) 101 4 8 18 22 47 93 108 301 630
2026-02-12 11:00 3.57 4 796 (2020) 3 (2018) 101 4 8 18 22 47 93 108 301 630
2026-02-12 10:00 3.57 4 796 (2020) 3 (2018) 101 4 8 18 22 47 93 108 301 630
2026-02-12 09:00 3.57 4 796 (2020) 3 (2018) 101 4 8 18 22 47 93 108 301 630
2026-02-12 08:00 3.57 13 796 (2020) 3 (2018) 101 4 8 18 22 47 93 108 301 630
2026-02-12 07:00 3.57 13 796 (2020) 3 (2018) 101 4 8 18 22 47 93 108 301 630
2026-02-12 06:00 3.57 13 796 (2020) 3 (2018) 101 4 8 18 22 47 93 108 301 630
2026-02-12 05:00 3.57 13 796 (2020) 3 (2018) 101 4 8 18 22 47 93 108 301 630
2026-02-12 04:00 3.57 13 796 (2020) 3 (2018) 101 4 8 18 22 47 93 108 301 630
2026-02-12 03:00 3.57 13 796 (2020) 3 (2018) 101 4 8 18 22 47 93 108 301 630
2026-02-12 02:00 3.57 13 796 (2020) 3 (2018) 101 4 8 18 22 47 93 108 301 630
2026-02-12 01:00 3.57 13 796 (2020) 3 (2018) 101 4 8 18 22 47 93 108 301 630
2026-02-12 00:00 3.57 13 796 (2020) 3 (2018) 101 4 8 18 22 47 93 108 301 630
2026-02-11 23:00 3.57 13 796 (2020) 3 (2018) 101 4 8 18 22 47 93 108 301 630
2026-02-11 22:00 3.57 13 5180 (2009) 3 (2018) 186 4 9 17 21 47 107 120 267 823
2026-02-11 21:00 3.57 13 5180 (2009) 3 (2018) 186 4 9 17 21 47 107 120 267 823
2026-02-11 20:00 3.57 13 5180 (2009) 3 (2018) 186 4 9 17 21 47 107 120 267 823
2026-02-11 19:00 3.57 13 5180 (2009) 3 (2018) 186 4 9 17 21 47 107 120 267 823
2026-02-11 18:00 3.57 13 5180 (2009) 3 (2018) 186 4 9 17 21 47 107 120 267 823
2026-02-11 17:00 3.57 13 5180 (2009) 3 (2018) 186 4 9 17 21 47 107 120 267 823
2026-02-11 16:00 3.58 13 5180 (2009) 3 (2018) 186 4 9 17 21 47 107 120 267 823
2026-02-11 15:00 3.58 13 5180 (2009) 3 (2018) 186 4 9 17 21 47 107 120 267 823
2026-02-11 14:00 3.58 13 5180 (2009) 3 (2018) 186 4 9 17 21 47 107 120 267 823
2026-02-11 13:00 3.58 13 5180 (2009) 3 (2018) 186 4 9 17 21 47 107 120 267 823
2026-02-11 12:00 3.58 13 5180 (2009) 3 (2018) 186 4 9 17 21 47 107 120 267 823
2026-02-11 11:00 3.58 13 5180 (2009) 3 (2018) 186 4 9 17 21 47 107 120 267 823
2026-02-11 10:00 3.58 13 5180 (2009) 3 (2018) 186 4 9 17 21 47 107 120 267 823
2026-02-11 09:00 3.57 13 5180 (2009) 3 (2018) 186 4 9 17 21 47 107 120 267 823
2026-02-11 08:00 3.57 13 5180 (2009) 3 (2018) 186 4 9 17 21 47 107 120 267 823
2026-02-11 07:00 3.57 13 5180 (2009) 3 (2018) 186 4 9 17 21 47 107 120 267 823
2026-02-11 06:00 3.57 13 5180 (2009) 3 (2018) 186 4 9 17 21 47 107 120 267 823
2026-02-11 05:00 3.57 13 5180 (2009) 3 (2018) 186 4 9 17 21 47 107 120 267 823
2026-02-11 04:00 3.57 13 5180 (2009) 3 (2018) 186 4 9 17 21 47 107 120 267 823
2026-02-11 03:00 3.58 13 5180 (2009) 3 (2018) 186 4 9 17 21 47 107 120 267 823
2026-02-11 02:00 3.58 13 5180 (2009) 3 (2018) 186 4 9 17 21 47 107 120 267 823
2026-02-11 01:00 3.58 13 5180 (2009) 3 (2018) 186 4 9 17 21 47 107 120 267 823
2026-02-11 00:00 3.58 13 5180 (2009) 3 (2018) 186 4 9 17 21 47 107 120 267 823
2026-02-10 23:00 3.58 13 5180 (2009) 3 (2018) 186 4 9 17 21 47 107 120 267 823
2026-02-10 22:00 3.58 13 3030 (1966) 3 (2018) 134 3 7 17 20 39 92 126 186 536
2026-02-10 21:00 3.59 14 3030 (1966) 3 (2018) 134 3 7 17 20 39 92 126 186 536
2026-02-10 20:00 3.58 13 3030 (1966) 3 (2018) 134 3 7 17 20 39 92 126 186 536
2026-02-10 19:00 3.58 13 3030 (1966) 3 (2018) 134 3 7 17 20 39 92 126 186 536
2026-02-10 18:00 3.58 13 3030 (1966) 3 (2018) 134 3 7 17 20 39 92 126 186 536
2026-02-10 17:00 3.58 13 3030 (1966) 3 (2018) 134 3 7 17 20 39 92 126 186 536
2026-02-10 16:00 3.59 14 3030 (1966) 3 (2018) 134 3 7 17 20 39 92 126 186 536
2026-02-10 15:00 3.59 14 3030 (1966) 3 (2018) 134 3 7 17 20 39 92 126 186 536
2026-02-10 14:00 3.58 13 3030 (1966) 3 (2018) 134 3 7 17 20 39 92 126 186 536
2026-02-10 13:00 3.58 13 3030 (1966) 3 (2018) 134 3 7 17 20 39 92 126 186 536
2026-02-10 12:00 3.58 13 3030 (1966) 3 (2018) 134 3 7 17 20 39 92 126 186 536
2026-02-10 11:00 3.58 13 3030 (1966) 3 (2018) 134 3 7 17 20 39 92 126 186 536
2026-02-10 10:00 3.58 13 3030 (1966) 3 (2018) 134 3 7 17 20 39 92 126 186 536
2026-02-10 09:00 3.57 13 3030 (1966) 3 (2018) 134 3 7 17 20 39 92 126 186 536
2026-02-10 08:00 3.57 13 3030 (1966) 3 (2018) 134 3 7 17 20 39 92 126 186 536
2026-02-10 07:00 3.57 13 3030 (1966) 3 (2018) 134 3 7 17 20 39 92 126 186 536
2026-02-10 06:00 3.57 13 3030 (1966) 3 (2018) 134 3 7 17 20 39 92 126 186 536
2026-02-10 05:00 3.57 13 3030 (1966) 3 (2018) 134 3 7 17 20 39 92 126 186 536
2026-02-10 04:00 3.57 13 3030 (1966) 3 (2018) 134 3 7 17 20 39 92 126 186 536
2026-02-10 03:00 3.57 13 3030 (1966) 3 (2018) 134 3 7 17 20 39 92 126 186 536
2026-02-10 02:00 3.57 13 3030 (1966) 3 (2018) 134 3 7 17 20 39 92 126 186 536
2026-02-10 01:00 3.57 13 3030 (1966) 3 (2018) 134 3 7 17 20 39 92 126 186 536
2026-02-10 00:00 3.57 13 3030 (1966) 3 (2018) 134 3 7 17 20 39 92 126 186 536
2026-02-09 23:00 3.57 13 3030 (1966) 3 (2018) 134 3 7 17 20 39 92 126 186 536
2026-02-09 22:00 3.57 13 6400 (1966) 3 (1977) 200 3 4 16 20 39 90 107 243 352
2026-02-09 21:00 3.57 13 6400 (1966) 3 (1977) 200 3 4 16 20 39 90 107 243 352
2026-02-09 20:00 3.57 13 6400 (1966) 3 (1977) 200 3 4 16 20 39 90 107 243 352
2026-02-09 19:00 3.58 13 6400 (1966) 3 (1977) 200 3 4 16 20 39 90 107 243 352
2026-02-09 18:00 3.58 13 6400 (1966) 3 (1977) 200 3 4 16 20 39 90 107 243 352
2026-02-09 17:00 3.58 13 6400 (1966) 3 (1977) 200 3 4 16 20 39 90 107 243 352
2026-02-09 16:00 3.58 13 6400 (1966) 3 (1977) 200 3 4 16 20 39 90 107 243 352
2026-02-09 15:00 3.58 13 6400 (1966) 3 (1977) 200 3 4 16 20 39 90 107 243 352
2026-02-09 14:00 3.58 13 6400 (1966) 3 (1977) 200 3 4 16 20 39 90 107 243 352
2026-02-09 13:00 3.58 13 6400 (1966) 3 (1977) 200 3 4 16 20 39 90 107 243 352
2026-02-09 12:00 3.58 13 6400 (1966) 3 (1977) 200 3 4 16 20 39 90 107 243 352
2026-02-09 11:00 3.59 14 6400 (1966) 3 (1977) 200 3 4 16 20 39 90 107 243 352
2026-02-09 10:00 3.58 13 6400 (1966) 3 (1977) 200 3 4 16 20 39 90 107 243 352
2026-02-09 09:00 3.58 13 6400 (1966) 3 (1977) 200 3 4 16 20 39 90 107 243 352
2026-02-09 08:00 3.57 13 6400 (1966) 3 (1977) 200 3 4 16 20 39 90 107 243 352
2026-02-09 07:00 3.57 13 6400 (1966) 3 (1977) 200 3 4 16 20 39 90 107 243 352
2026-02-09 06:00 3.58 13 6400 (1966) 3 (1977) 200 3 4 16 20 39 90 107 243 352
2026-02-09 05:00 3.58 13 6400 (1966) 3 (1977) 200 3 4 16 20 39 90 107 243 352
2026-02-09 04:00 3.58 13 6400 (1966) 3 (1977) 200 3 4 16 20 39 90 107 243 352
2026-02-09 03:00 3.58 13 6400 (1966) 3 (1977) 200 3 4 16 20 39 90 107 243 352
2026-02-09 02:00 3.58 13 6400 (1966) 3 (1977) 200 3 4 16 20 39 90 107 243 352
2026-02-09 01:00 3.58 13 6400 (1966) 3 (1977) 200 3 4 16 20 39 90 107 243 352
2026-02-09 00:00 3.58 13 6400 (1966) 3 (1977) 200 3 4 16 20 39 90 107 243 352
2026-02-08 23:00 3.58 13 6400 (1966) 3 (1977) 200 3 4 16 20 39 90 107 243 352
2026-02-08 22:00 3.58 13 1910 (1966) 2 (1977) 120 3 4 13 17 38 97 112 395 576
2026-02-08 21:00 3.58 13 1910 (1966) 2 (1977) 120 3 4 13 17 38 97 112 395 576
2026-02-08 20:00 3.58 13 1910 (1966) 2 (1977) 120 3 4 13 17 38 97 112 395 576
2026-02-08 19:00 3.58 13 1910 (1966) 2 (1977) 120 3 4 13 17 38 97 112 395 576
2026-02-08 18:00 3.58 13 1910 (1966) 2 (1977) 120 3 4 13 17 38 97 112 395 576
2026-02-08 17:00 3.58 13 1910 (1966) 2 (1977) 120 3 4 13 17 38 97 112 395 576
2026-02-08 16:00 3.58 13 1910 (1966) 2 (1977) 120 3 4 13 17 38 97 112 395 576
2026-02-08 15:00 3.58 13 1910 (1966) 2 (1977) 120 3 4 13 17 38 97 112 395 576
2026-02-08 14:00 3.58 13 1910 (1966) 2 (1977) 120 3 4 13 17 38 97 112 395 576
2026-02-08 13:00 3.58 13 1910 (1966) 2 (1977) 120 3 4 13 17 38 97 112 395 576
2026-02-08 12:00 3.58 13 1910 (1966) 2 (1977) 120 3 4 13 17 38 97 112 395 576
2026-02-08 11:00 3.57 13 1910 (1966) 2 (1977) 120 3 4 13 17 38 97 112 395 576
2026-02-08 10:00 3.57 13 1910 (1966) 2 (1977) 120 3 4 13 17 38 97 112 395 576
2026-02-08 09:00 3.57 13 1910 (1966) 2 (1977) 120 3 4 13 17 38 97 112 395 576
2026-02-08 08:00 3.57 13 1910 (1966) 2 (1977) 120 3 4 13 17 38 97 112 395 576
2026-02-08 07:00 3.57 13 1910 (1966) 2 (1977) 120 3 4 13 17 38 97 112 395 576
2026-02-08 06:00 3.57 13 1910 (1966) 2 (1977) 120 3 4 13 17 38 97 112 395 576
2026-02-08 05:00 3.57 13 1910 (1966) 2 (1977) 120 3 4 13 17 38 97 112 395 576
2026-02-08 04:00 3.57 13 1910 (1966) 2 (1977) 120 3 4 13 17 38 97 112 395 576
2026-02-08 03:00 3.57 13 1910 (1966) 2 (1977) 120 3 4 13 17 38 97 112 395 576
2026-02-08 02:00 3.57 13 1910 (1966) 2 (1977) 120 3 4 13 17 38 97 112 395 576
2026-02-08 01:00 3.57 13 1910 (1966) 2 (1977) 120 3 4 13 17 38 97 112 395 576
2026-02-08 00:00 3.56 12 1910 (1966) 2 (1977) 120 3 4 13 17 38 97 112 395 576
2026-02-07 23:00 3.56 12 1910 (1966) 2 (1977) 120 3 4 13 17 38 97 112 395 576

A total of 2196 rows are displayed for years 1966 through 2025.